<?xml version="1.0" encoding="UTF-8" standalone="no" ?>
<gpx xmlns="http://www.topografix.com/GPX/1/1" xmlns:xsi="http://www.w3.org/2001/XMLSchema-instance" xsi:schemaLocation="http://www.topografix.com/GPX/1/1 http://www.topografix.com/GPX/1/1/gpx.xsd" version="1.1" creator="VisuGPX - https://www.visugpx.com">
  <metadata>
    <name>Ventoux 2026</name>
  </metadata>
  <trk>
    <name><![CDATA[Ventoux 2026_1]]></name>
    <extensions>
      <line xmlns="http://www.topografix.com/GPX/gpx_style/0/2">
        <color>0000FF</color>
        <width>4</width>
      </line>
    </extensions>
    <trkseg>
      <trkpt lat="44.09222" lon="5.40854">
        <ele>764.5</ele>
        <time>2026-06-16T09:48:58.000Z</time>
      </trkpt>
      <trkpt lat="44.09222" lon="5.40854">
        <ele>764.5</ele>
        <time>2026-06-16T09:48:58.000Z</time>
        <extensions>
          <visugpx:TrkExtension xmlns:visugpx="https://www.visugpx.com/editgpx/">
            <visugpx:node>1</visugpx:node>
            </visugpx:TrkExtension>
        </extensions>
      </trkpt>
      <trkpt lat="44.09217" lon="5.4084">
        <ele>763.5</ele>
        <time>2026-06-16T09:49:01.285Z</time>
      </trkpt>
      <trkpt lat="44.09223" lon="5.40833">
        <ele>762.9</ele>
        <time>2026-06-16T09:49:03.597Z</time>
      </trkpt>
      <trkpt lat="44.09233" lon="5.4083">
        <ele>762.4</ele>
        <time>2026-06-16T09:49:06.700Z</time>
      </trkpt>
      <trkpt lat="44.09246" lon="5.40829">
        <ele>762</ele>
        <time>2026-06-16T09:49:10.736Z</time>
      </trkpt>
      <trkpt lat="44.09333" lon="5.40821">
        <ele>759.8</ele>
        <time>2026-06-16T09:49:37.960Z</time>
      </trkpt>
      <trkpt lat="44.09357" lon="5.40818">
        <ele>758.8</ele>
        <time>2026-06-16T09:49:45.332Z</time>
      </trkpt>
      <trkpt lat="44.09368" lon="5.40817">
        <ele>758.2</ele>
        <time>2026-06-16T09:49:48.655Z</time>
      </trkpt>
      <trkpt lat="44.09551" lon="5.4081">
        <ele>745.3</ele>
        <time>2026-06-16T09:50:43.004Z</time>
      </trkpt>
      <trkpt lat="44.09629" lon="5.40806">
        <ele>738.5</ele>
        <time>2026-06-16T09:51:05.869Z</time>
      </trkpt>
      <trkpt lat="44.09645" lon="5.40806">
        <ele>737.3</ele>
        <time>2026-06-16T09:51:10.601Z</time>
      </trkpt>
      <trkpt lat="44.09661" lon="5.40809">
        <ele>736.2</ele>
        <time>2026-06-16T09:51:15.404Z</time>
      </trkpt>
      <trkpt lat="44.09681" lon="5.40814">
        <ele>734.6</ele>
        <time>2026-06-16T09:51:21.394Z</time>
      </trkpt>
      <trkpt lat="44.09748" lon="5.40839">
        <ele>730.3</ele>
        <time>2026-06-16T09:51:42.150Z</time>
      </trkpt>
      <trkpt lat="44.09817" lon="5.40868">
        <ele>725</ele>
        <time>2026-06-16T09:52:03.490Z</time>
      </trkpt>
      <trkpt lat="44.09949" lon="5.40919">
        <ele>717.2</ele>
        <time>2026-06-16T09:52:44.687Z</time>
      </trkpt>
      <trkpt lat="44.0996" lon="5.4092">
        <ele>716.6</ele>
        <time>2026-06-16T09:52:48.011Z</time>
      </trkpt>
      <trkpt lat="44.09961" lon="5.40919">
        <ele>716.3</ele>
        <time>2026-06-16T09:52:48.385Z</time>
        <extensions>
          <visugpx:TrkExtension xmlns:visugpx="https://www.visugpx.com/editgpx/">
            <visugpx:node>2</visugpx:node>
            </visugpx:TrkExtension>
        </extensions>
      </trkpt>
      <trkpt lat="44.09964" lon="5.40916">
        <ele>715.5</ele>
        <time>2026-06-16T09:52:49.473Z</time>
      </trkpt>
      <trkpt lat="44.09967" lon="5.40911">
        <ele>714.4</ele>
        <time>2026-06-16T09:52:50.879Z</time>
      </trkpt>
      <trkpt lat="44.09965" lon="5.40899">
        <ele>712.5</ele>
        <time>2026-06-16T09:52:53.481Z</time>
      </trkpt>
      <trkpt lat="44.09961" lon="5.40892">
        <ele>711.7</ele>
        <time>2026-06-16T09:52:55.327Z</time>
      </trkpt>
      <trkpt lat="44.09939" lon="5.40872">
        <ele>710.1</ele>
        <time>2026-06-16T09:53:03.197Z</time>
      </trkpt>
      <trkpt lat="44.09855" lon="5.40772">
        <ele>702.6</ele>
        <time>2026-06-16T09:53:36.083Z</time>
      </trkpt>
      <trkpt lat="44.09734" lon="5.40653">
        <ele>695.2</ele>
        <time>2026-06-16T09:54:20.964Z</time>
      </trkpt>
      <trkpt lat="44.09726" lon="5.40641">
        <ele>694.1</ele>
        <time>2026-06-16T09:54:24.394Z</time>
      </trkpt>
      <trkpt lat="44.0972" lon="5.40621">
        <ele>694</ele>
        <time>2026-06-16T09:54:29.387Z</time>
      </trkpt>
      <trkpt lat="44.0972" lon="5.40609">
        <ele>693.9</ele>
        <time>2026-06-16T09:54:32.130Z</time>
        <extensions>
          <visugpx:TrkExtension xmlns:visugpx="https://www.visugpx.com/editgpx/">
            <visugpx:node>3</visugpx:node>
            </visugpx:TrkExtension>
        </extensions>
      </trkpt>
      <trkpt lat="44.09719" lon="5.40599">
        <ele>693.8</ele>
        <time>2026-06-16T09:54:34.431Z</time>
      </trkpt>
      <trkpt lat="44.09721" lon="5.40587">
        <ele>693.9</ele>
        <time>2026-06-16T09:54:37.352Z</time>
      </trkpt>
      <trkpt lat="44.09729" lon="5.40567">
        <ele>693.5</ele>
        <time>2026-06-16T09:54:42.491Z</time>
      </trkpt>
      <trkpt lat="44.09744" lon="5.40544">
        <ele>694.4</ele>
        <time>2026-06-16T09:54:50.264Z</time>
      </trkpt>
      <trkpt lat="44.0988" lon="5.40357">
        <ele>708.9</ele>
        <time>2026-06-16T09:56:02.200Z</time>
      </trkpt>
      <trkpt lat="44.09896" lon="5.40333">
        <ele>709.5</ele>
        <time>2026-06-16T09:56:10.163Z</time>
      </trkpt>
      <trkpt lat="44.09919" lon="5.40287">
        <ele>711.2</ele>
        <time>2026-06-16T09:56:24.238Z</time>
      </trkpt>
      <trkpt lat="44.09927" lon="5.40274">
        <ele>711.7</ele>
        <time>2026-06-16T09:56:28.524Z</time>
      </trkpt>
      <trkpt lat="44.09936" lon="5.40264">
        <ele>712.1</ele>
        <time>2026-06-16T09:56:32.491Z</time>
      </trkpt>
      <trkpt lat="44.09944" lon="5.40258">
        <ele>712.2</ele>
        <time>2026-06-16T09:56:35.489Z</time>
      </trkpt>
      <trkpt lat="44.09956" lon="5.40253">
        <ele>712.3</ele>
        <time>2026-06-16T09:56:39.601Z</time>
      </trkpt>
      <trkpt lat="44.10005" lon="5.40238">
        <ele>712.2</ele>
        <time>2026-06-16T09:56:55.807Z</time>
      </trkpt>
      <trkpt lat="44.1002" lon="5.40231">
        <ele>712.6</ele>
        <time>2026-06-16T09:57:01.161Z</time>
      </trkpt>
      <trkpt lat="44.10045" lon="5.4022">
        <ele>712.5</ele>
        <time>2026-06-16T09:57:09.605Z</time>
      </trkpt>
      <trkpt lat="44.10071" lon="5.40204">
        <ele>712.9</ele>
        <time>2026-06-16T09:57:19.034Z</time>
      </trkpt>
      <trkpt lat="44.1011" lon="5.4018">
        <ele>713.5</ele>
        <time>2026-06-16T09:57:33.178Z</time>
      </trkpt>
      <trkpt lat="44.10176" lon="5.40143">
        <ele>714.4</ele>
        <time>2026-06-16T09:57:56.720Z</time>
      </trkpt>
      <trkpt lat="44.10338" lon="5.40053">
        <ele>716.9</ele>
        <time>2026-06-16T09:58:54.601Z</time>
      </trkpt>
      <trkpt lat="44.10357" lon="5.40038">
        <ele>717.3</ele>
        <time>2026-06-16T09:59:01.900Z</time>
      </trkpt>
      <trkpt lat="44.10376" lon="5.40019">
        <ele>717.8</ele>
        <time>2026-06-16T09:59:09.760Z</time>
      </trkpt>
      <trkpt lat="44.10399" lon="5.39988">
        <ele>718.1</ele>
        <time>2026-06-16T09:59:20.292Z</time>
      </trkpt>
      <trkpt lat="44.10404" lon="5.39979">
        <ele>718.2</ele>
        <time>2026-06-16T09:59:22.994Z</time>
      </trkpt>
      <trkpt lat="44.10419" lon="5.39957">
        <ele>719</ele>
        <time>2026-06-16T09:59:30.529Z</time>
      </trkpt>
      <trkpt lat="44.10435" lon="5.39937">
        <ele>719.1</ele>
        <time>2026-06-16T09:59:37.548Z</time>
      </trkpt>
      <trkpt lat="44.10455" lon="5.39923">
        <ele>719.2</ele>
        <time>2026-06-16T09:59:44.854Z</time>
      </trkpt>
      <trkpt lat="44.10469" lon="5.39917">
        <ele>719.1</ele>
        <time>2026-06-16T09:59:49.550Z</time>
      </trkpt>
      <trkpt lat="44.10494" lon="5.39913">
        <ele>719</ele>
        <time>2026-06-16T09:59:57.653Z</time>
      </trkpt>
      <trkpt lat="44.10504" lon="5.39914">
        <ele>719.1</ele>
        <time>2026-06-16T10:00:00.955Z</time>
      </trkpt>
      <trkpt lat="44.10525" lon="5.39922">
        <ele>719.5</ele>
        <time>2026-06-16T10:00:08.232Z</time>
      </trkpt>
      <trkpt lat="44.10604" lon="5.39971">
        <ele>722.2</ele>
        <time>2026-06-16T10:00:37.827Z</time>
      </trkpt>
      <trkpt lat="44.10615" lon="5.39978">
        <ele>723.1</ele>
        <time>2026-06-16T10:00:42.363Z</time>
      </trkpt>
      <trkpt lat="44.10657" lon="5.40006">
        <ele>725.8</ele>
        <time>2026-06-16T10:00:59.193Z</time>
      </trkpt>
      <trkpt lat="44.10686" lon="5.40032">
        <ele>728.7</ele>
        <time>2026-06-16T10:01:12.432Z</time>
      </trkpt>
      <trkpt lat="44.10705" lon="5.40044">
        <ele>730.2</ele>
        <time>2026-06-16T10:01:20.212Z</time>
      </trkpt>
      <trkpt lat="44.10749" lon="5.40058">
        <ele>732.9</ele>
        <time>2026-06-16T10:01:36.590Z</time>
      </trkpt>
      <trkpt lat="44.10769" lon="5.40066">
        <ele>734.1</ele>
        <time>2026-06-16T10:01:44.105Z</time>
      </trkpt>
      <trkpt lat="44.10785" lon="5.40073">
        <ele>734.8</ele>
        <time>2026-06-16T10:01:49.964Z</time>
        <extensions>
          <visugpx:TrkExtension xmlns:visugpx="https://www.visugpx.com/editgpx/">
            <visugpx:node>4</visugpx:node>
            </visugpx:TrkExtension>
        </extensions>
      </trkpt>
      <trkpt lat="44.10792" lon="5.40079">
        <ele>735.1</ele>
        <time>2026-06-16T10:01:52.806Z</time>
      </trkpt>
      <trkpt lat="44.10801" lon="5.40081">
        <ele>735.7</ele>
        <time>2026-06-16T10:01:56.157Z</time>
      </trkpt>
      <trkpt lat="44.1081" lon="5.4008">
        <ele>736.2</ele>
        <time>2026-06-16T10:01:59.402Z</time>
      </trkpt>
      <trkpt lat="44.10824" lon="5.40068">
        <ele>737</ele>
        <time>2026-06-16T10:02:05.227Z</time>
      </trkpt>
      <trkpt lat="44.10897" lon="5.39962">
        <ele>742.7</ele>
        <time>2026-06-16T10:02:43.020Z</time>
      </trkpt>
      <trkpt lat="44.10918" lon="5.39939">
        <ele>744.3</ele>
        <time>2026-06-16T10:02:52.716Z</time>
      </trkpt>
      <trkpt lat="44.10933" lon="5.39926">
        <ele>745.6</ele>
        <time>2026-06-16T10:02:59.330Z</time>
      </trkpt>
      <trkpt lat="44.11004" lon="5.3988">
        <ele>750.5</ele>
        <time>2026-06-16T10:03:27.918Z</time>
      </trkpt>
      <trkpt lat="44.11084" lon="5.39825">
        <ele>756.3</ele>
        <time>2026-06-16T10:04:00.668Z</time>
      </trkpt>
      <trkpt lat="44.11147" lon="5.39768">
        <ele>761.5</ele>
        <time>2026-06-16T10:04:28.509Z</time>
      </trkpt>
      <trkpt lat="44.11156" lon="5.39761">
        <ele>762</ele>
        <time>2026-06-16T10:04:32.160Z</time>
      </trkpt>
      <trkpt lat="44.11176" lon="5.39751">
        <ele>763.3</ele>
        <time>2026-06-16T10:04:39.894Z</time>
      </trkpt>
      <trkpt lat="44.11196" lon="5.39744">
        <ele>764.5</ele>
        <time>2026-06-16T10:04:47.351Z</time>
      </trkpt>
      <trkpt lat="44.11254" lon="5.39742">
        <ele>768.4</ele>
        <time>2026-06-16T10:05:08.755Z</time>
      </trkpt>
      <trkpt lat="44.11325" lon="5.39727">
        <ele>773.1</ele>
        <time>2026-06-16T10:05:35.141Z</time>
      </trkpt>
      <trkpt lat="44.11336" lon="5.39727">
        <ele>773.8</ele>
        <time>2026-06-16T10:05:39.167Z</time>
      </trkpt>
      <trkpt lat="44.1138" lon="5.3973">
        <ele>776.1</ele>
        <time>2026-06-16T10:05:54.892Z</time>
      </trkpt>
      <trkpt lat="44.11398" lon="5.39725">
        <ele>776.8</ele>
        <time>2026-06-16T10:06:01.258Z</time>
      </trkpt>
      <trkpt lat="44.11423" lon="5.39714">
        <ele>778.4</ele>
        <time>2026-06-16T10:06:10.797Z</time>
      </trkpt>
      <trkpt lat="44.11437" lon="5.39703">
        <ele>780.3</ele>
        <time>2026-06-16T10:06:17.546Z</time>
      </trkpt>
      <trkpt lat="44.11442" lon="5.39689">
        <ele>781.1</ele>
        <time>2026-06-16T10:06:21.726Z</time>
      </trkpt>
      <trkpt lat="44.11443" lon="5.39679">
        <ele>781.5</ele>
        <time>2026-06-16T10:06:24.331Z</time>
      </trkpt>
      <trkpt lat="44.11441" lon="5.39668">
        <ele>781.9</ele>
        <time>2026-06-16T10:06:27.220Z</time>
      </trkpt>
      <trkpt lat="44.11435" lon="5.39653">
        <ele>782.8</ele>
        <time>2026-06-16T10:06:31.829Z</time>
      </trkpt>
      <trkpt lat="44.11387" lon="5.39527">
        <ele>787.9</ele>
        <time>2026-06-16T10:07:08.200Z</time>
      </trkpt>
      <trkpt lat="44.11377" lon="5.39509">
        <ele>789.2</ele>
        <time>2026-06-16T10:07:14.404Z</time>
      </trkpt>
      <trkpt lat="44.11364" lon="5.3949">
        <ele>790.8</ele>
        <time>2026-06-16T10:07:21.653Z</time>
      </trkpt>
      <trkpt lat="44.11348" lon="5.39473">
        <ele>791.9</ele>
        <time>2026-06-16T10:07:28.874Z</time>
      </trkpt>
      <trkpt lat="44.11331" lon="5.39461">
        <ele>793.9</ele>
        <time>2026-06-16T10:07:36.591Z</time>
      </trkpt>
      <trkpt lat="44.11234" lon="5.39401">
        <ele>799.2</ele>
        <time>2026-06-16T10:08:14.297Z</time>
      </trkpt>
      <trkpt lat="44.11189" lon="5.3938">
        <ele>801</ele>
        <time>2026-06-16T10:08:30.751Z</time>
      </trkpt>
      <trkpt lat="44.11182" lon="5.39368">
        <ele>801.4</ele>
        <time>2026-06-16T10:08:34.585Z</time>
      </trkpt>
      <trkpt lat="44.1118" lon="5.3936">
        <ele>801.9</ele>
        <time>2026-06-16T10:08:36.909Z</time>
      </trkpt>
      <trkpt lat="44.11182" lon="5.39341">
        <ele>802.2</ele>
        <time>2026-06-16T10:08:41.545Z</time>
      </trkpt>
      <trkpt lat="44.11209" lon="5.39293">
        <ele>805.5</ele>
        <time>2026-06-16T10:08:58.004Z</time>
      </trkpt>
      <trkpt lat="44.11213" lon="5.3928">
        <ele>805.2</ele>
        <time>2026-06-16T10:09:01.157Z</time>
      </trkpt>
      <trkpt lat="44.11213" lon="5.3927">
        <ele>805.9</ele>
        <time>2026-06-16T10:09:04.008Z</time>
      </trkpt>
      <trkpt lat="44.1121" lon="5.39259">
        <ele>807.1</ele>
        <time>2026-06-16T10:09:07.813Z</time>
      </trkpt>
      <trkpt lat="44.11203" lon="5.39251">
        <ele>808.5</ele>
        <time>2026-06-16T10:09:12.056Z</time>
      </trkpt>
      <trkpt lat="44.11195" lon="5.39248">
        <ele>809.4</ele>
        <time>2026-06-16T10:09:15.444Z</time>
      </trkpt>
      <trkpt lat="44.11168" lon="5.39241">
        <ele>810</ele>
        <time>2026-06-16T10:09:24.680Z</time>
      </trkpt>
      <trkpt lat="44.11145" lon="5.3923">
        <ele>811.8</ele>
        <time>2026-06-16T10:09:33.793Z</time>
      </trkpt>
      <trkpt lat="44.11063" lon="5.39179">
        <ele>817.8</ele>
        <time>2026-06-16T10:10:06.893Z</time>
      </trkpt>
      <trkpt lat="44.11049" lon="5.39169">
        <ele>818.5</ele>
        <time>2026-06-16T10:10:12.420Z</time>
      </trkpt>
      <trkpt lat="44.1099" lon="5.39114">
        <ele>822.9</ele>
        <time>2026-06-16T10:10:38.305Z</time>
      </trkpt>
      <trkpt lat="44.10983" lon="5.39104">
        <ele>823.4</ele>
        <time>2026-06-16T10:10:41.867Z</time>
      </trkpt>
      <trkpt lat="44.10978" lon="5.39095">
        <ele>824</ele>
        <time>2026-06-16T10:10:44.925Z</time>
      </trkpt>
      <trkpt lat="44.10974" lon="5.39083">
        <ele>825.1</ele>
        <time>2026-06-16T10:10:48.887Z</time>
      </trkpt>
      <trkpt lat="44.10972" lon="5.3907">
        <ele>825.5</ele>
        <time>2026-06-16T10:10:52.223Z</time>
      </trkpt>
      <trkpt lat="44.10972" lon="5.39053">
        <ele>826</ele>
        <time>2026-06-16T10:10:56.480Z</time>
      </trkpt>
      <trkpt lat="44.10977" lon="5.39011">
        <ele>826.9</ele>
        <time>2026-06-16T10:11:06.906Z</time>
      </trkpt>
      <trkpt lat="44.10981" lon="5.38989">
        <ele>827.6</ele>
        <time>2026-06-16T10:11:12.612Z</time>
      </trkpt>
      <trkpt lat="44.10987" lon="5.38973">
        <ele>828.1</ele>
        <time>2026-06-16T10:11:17.111Z</time>
      </trkpt>
      <trkpt lat="44.11009" lon="5.38935">
        <ele>829.2</ele>
        <time>2026-06-16T10:11:29.109Z</time>
      </trkpt>
      <trkpt lat="44.11021" lon="5.3892">
        <ele>830.1</ele>
        <time>2026-06-16T10:11:34.910Z</time>
      </trkpt>
      <trkpt lat="44.11041" lon="5.38899">
        <ele>831.2</ele>
        <time>2026-06-16T10:11:43.698Z</time>
      </trkpt>
      <trkpt lat="44.11067" lon="5.38883">
        <ele>832.4</ele>
        <time>2026-06-16T10:11:53.638Z</time>
      </trkpt>
      <trkpt lat="44.11096" lon="5.38873">
        <ele>833.5</ele>
        <time>2026-06-16T10:12:03.973Z</time>
      </trkpt>
      <trkpt lat="44.11126" lon="5.3887">
        <ele>834.7</ele>
        <time>2026-06-16T10:12:14.441Z</time>
      </trkpt>
      <trkpt lat="44.1118" lon="5.38873">
        <ele>837.1</ele>
        <time>2026-06-16T10:12:33.423Z</time>
      </trkpt>
      <trkpt lat="44.11226" lon="5.3887">
        <ele>838.9</ele>
        <time>2026-06-16T10:12:49.425Z</time>
      </trkpt>
      <trkpt lat="44.1125" lon="5.38872">
        <ele>840.4</ele>
        <time>2026-06-16T10:12:58.199Z</time>
      </trkpt>
      <trkpt lat="44.1126" lon="5.38876">
        <ele>840.5</ele>
        <time>2026-06-16T10:13:01.624Z</time>
      </trkpt>
      <trkpt lat="44.11269" lon="5.38882">
        <ele>840.8</ele>
        <time>2026-06-16T10:13:05.031Z</time>
      </trkpt>
      <trkpt lat="44.11307" lon="5.38919">
        <ele>842.1</ele>
        <time>2026-06-16T10:13:20.803Z</time>
      </trkpt>
      <trkpt lat="44.11325" lon="5.38933">
        <ele>842.7</ele>
        <time>2026-06-16T10:13:27.830Z</time>
      </trkpt>
      <trkpt lat="44.11343" lon="5.38938">
        <ele>843.6</ele>
        <time>2026-06-16T10:13:34.338Z</time>
      </trkpt>
      <trkpt lat="44.1136" lon="5.38933">
        <ele>844.5</ele>
        <time>2026-06-16T10:13:40.535Z</time>
      </trkpt>
      <trkpt lat="44.11427" lon="5.38888">
        <ele>846.7</ele>
        <time>2026-06-16T10:14:05.911Z</time>
      </trkpt>
      <trkpt lat="44.11437" lon="5.38884">
        <ele>847.2</ele>
        <time>2026-06-16T10:14:09.592Z</time>
      </trkpt>
      <trkpt lat="44.11448" lon="5.38883">
        <ele>847.7</ele>
        <time>2026-06-16T10:14:13.472Z</time>
      </trkpt>
      <trkpt lat="44.1146" lon="5.38886">
        <ele>848.4</ele>
        <time>2026-06-16T10:14:17.873Z</time>
      </trkpt>
      <trkpt lat="44.11486" lon="5.38899">
        <ele>849</ele>
        <time>2026-06-16T10:14:27.161Z</time>
      </trkpt>
      <trkpt lat="44.11495" lon="5.38901">
        <ele>849</ele>
        <time>2026-06-16T10:14:30.114Z</time>
      </trkpt>
      <trkpt lat="44.11511" lon="5.38896">
        <ele>849.4</ele>
        <time>2026-06-16T10:14:35.654Z</time>
      </trkpt>
      <trkpt lat="44.11525" lon="5.38883">
        <ele>849.9</ele>
        <time>2026-06-16T10:14:41.396Z</time>
      </trkpt>
      <trkpt lat="44.11532" lon="5.38872">
        <ele>850.3</ele>
        <time>2026-06-16T10:14:45.054Z</time>
      </trkpt>
      <trkpt lat="44.11577" lon="5.38781">
        <ele>853.3</ele>
        <time>2026-06-16T10:15:12.552Z</time>
      </trkpt>
      <trkpt lat="44.11594" lon="5.38759">
        <ele>854.4</ele>
        <time>2026-06-16T10:15:20.752Z</time>
      </trkpt>
      <trkpt lat="44.11605" lon="5.38749">
        <ele>855.3</ele>
        <time>2026-06-16T10:15:25.613Z</time>
      </trkpt>
      <trkpt lat="44.11622" lon="5.38737">
        <ele>856</ele>
        <time>2026-06-16T10:15:32.205Z</time>
      </trkpt>
      <trkpt lat="44.117" lon="5.38691">
        <ele>861.5</ele>
        <time>2026-06-16T10:16:03.292Z</time>
      </trkpt>
      <trkpt lat="44.11714" lon="5.38681">
        <ele>862.6</ele>
        <time>2026-06-16T10:16:09.132Z</time>
      </trkpt>
      <trkpt lat="44.1177" lon="5.3863">
        <ele>867.2</ele>
        <time>2026-06-16T10:16:33.901Z</time>
      </trkpt>
      <trkpt lat="44.11774" lon="5.38617">
        <ele>867.7</ele>
        <time>2026-06-16T10:16:37.503Z</time>
      </trkpt>
      <trkpt lat="44.11774" lon="5.38608">
        <ele>868</ele>
        <time>2026-06-16T10:16:39.782Z</time>
      </trkpt>
      <trkpt lat="44.11771" lon="5.386">
        <ele>868.4</ele>
        <time>2026-06-16T10:16:42.143Z</time>
      </trkpt>
      <trkpt lat="44.11744" lon="5.38562">
        <ele>870.3</ele>
        <time>2026-06-16T10:16:55.767Z</time>
      </trkpt>
      <trkpt lat="44.11736" lon="5.38547">
        <ele>871.3</ele>
        <time>2026-06-16T10:17:00.800Z</time>
      </trkpt>
      <trkpt lat="44.11726" lon="5.38523">
        <ele>872.6</ele>
        <time>2026-06-16T10:17:08.117Z</time>
      </trkpt>
      <trkpt lat="44.11721" lon="5.38502">
        <ele>873.8</ele>
        <time>2026-06-16T10:17:14.091Z</time>
      </trkpt>
      <trkpt lat="44.11717" lon="5.38487">
        <ele>874.5</ele>
        <time>2026-06-16T10:17:18.270Z</time>
      </trkpt>
      <trkpt lat="44.11715" lon="5.38463">
        <ele>875.6</ele>
        <time>2026-06-16T10:17:24.614Z</time>
      </trkpt>
      <trkpt lat="44.11718" lon="5.38434">
        <ele>876.9</ele>
        <time>2026-06-16T10:17:32.281Z</time>
      </trkpt>
      <trkpt lat="44.11723" lon="5.38417">
        <ele>878</ele>
        <time>2026-06-16T10:17:37.335Z</time>
      </trkpt>
      <trkpt lat="44.1173" lon="5.384">
        <ele>878.1</ele>
        <time>2026-06-16T10:17:41.947Z</time>
      </trkpt>
      <trkpt lat="44.11738" lon="5.38386">
        <ele>878.7</ele>
        <time>2026-06-16T10:17:46.481Z</time>
      </trkpt>
      <trkpt lat="44.11753" lon="5.38369">
        <ele>880.2</ele>
        <time>2026-06-16T10:17:53.788Z</time>
      </trkpt>
      <trkpt lat="44.11886" lon="5.38234">
        <ele>890.1</ele>
        <time>2026-06-16T10:18:53.549Z</time>
      </trkpt>
      <trkpt lat="44.11893" lon="5.38224">
        <ele>890.6</ele>
        <time>2026-06-16T10:18:57.110Z</time>
      </trkpt>
      <trkpt lat="44.11898" lon="5.38211">
        <ele>891.5</ele>
        <time>2026-06-16T10:19:01.184Z</time>
      </trkpt>
      <trkpt lat="44.11902" lon="5.38184">
        <ele>892.3</ele>
        <time>2026-06-16T10:19:08.080Z</time>
      </trkpt>
      <trkpt lat="44.11905" lon="5.38161">
        <ele>893.2</ele>
        <time>2026-06-16T10:19:14.088Z</time>
      </trkpt>
      <trkpt lat="44.11913" lon="5.38132">
        <ele>894.4</ele>
        <time>2026-06-16T10:19:22.077Z</time>
      </trkpt>
      <trkpt lat="44.11944" lon="5.38079">
        <ele>897.8</ele>
        <time>2026-06-16T10:19:40.268Z</time>
      </trkpt>
      <trkpt lat="44.12002" lon="5.37987">
        <ele>902.8</ele>
        <time>2026-06-16T10:20:11.960Z</time>
      </trkpt>
      <trkpt lat="44.12023" lon="5.37959">
        <ele>904.8</ele>
        <time>2026-06-16T10:20:22.723Z</time>
      </trkpt>
      <trkpt lat="44.12089" lon="5.37882">
        <ele>909.8</ele>
        <time>2026-06-16T10:20:53.844Z</time>
      </trkpt>
      <trkpt lat="44.12103" lon="5.37864">
        <ele>911.2</ele>
        <time>2026-06-16T10:21:00.974Z</time>
      </trkpt>
      <trkpt lat="44.1211" lon="5.3785">
        <ele>911.8</ele>
        <time>2026-06-16T10:21:05.317Z</time>
      </trkpt>
      <trkpt lat="44.12115" lon="5.37837">
        <ele>912.4</ele>
        <time>2026-06-16T10:21:09.133Z</time>
      </trkpt>
      <trkpt lat="44.12127" lon="5.37792">
        <ele>913.9</ele>
        <time>2026-06-16T10:21:21.215Z</time>
      </trkpt>
      <trkpt lat="44.12132" lon="5.37798">
        <ele>914.9</ele>
        <time>2026-06-16T10:21:24.277Z</time>
      </trkpt>
      <trkpt lat="44.12136" lon="5.37824">
        <ele>915</ele>
        <time>2026-06-16T10:21:30.515Z</time>
      </trkpt>
      <trkpt lat="44.12136" lon="5.37833">
        <ele>914.7</ele>
        <time>2026-06-16T10:21:32.480Z</time>
        <extensions>
          <visugpx:TrkExtension xmlns:visugpx="https://www.visugpx.com/editgpx/">
            <visugpx:node>5</visugpx:node>
            </visugpx:TrkExtension>
        </extensions>
      </trkpt>
      <trkpt lat="44.12136" lon="5.37824">
        <ele>915</ele>
        <time>2026-06-16T10:21:34.758Z</time>
      </trkpt>
      <trkpt lat="44.12132" lon="5.37798">
        <ele>914.9</ele>
        <time>2026-06-16T10:21:40.893Z</time>
      </trkpt>
      <trkpt lat="44.12127" lon="5.37792">
        <ele>913.9</ele>
        <time>2026-06-16T10:21:42.782Z</time>
      </trkpt>
      <trkpt lat="44.12144" lon="5.37724">
        <ele>917</ele>
        <time>2026-06-16T10:22:01.545Z</time>
      </trkpt>
      <trkpt lat="44.12158" lon="5.37669">
        <ele>919.8</ele>
        <time>2026-06-16T10:22:16.986Z</time>
      </trkpt>
      <trkpt lat="44.1218" lon="5.37612">
        <ele>922.4</ele>
        <time>2026-06-16T10:22:33.704Z</time>
      </trkpt>
      <trkpt lat="44.12199" lon="5.37575">
        <ele>925.2</ele>
        <time>2026-06-16T10:22:46.291Z</time>
      </trkpt>
      <trkpt lat="44.12233" lon="5.37524">
        <ele>927.8</ele>
        <time>2026-06-16T10:23:04.120Z</time>
      </trkpt>
      <trkpt lat="44.12277" lon="5.37466">
        <ele>931.4</ele>
        <time>2026-06-16T10:23:26.083Z</time>
      </trkpt>
      <trkpt lat="44.12357" lon="5.37375">
        <ele>937.8</ele>
        <time>2026-06-16T10:24:03.739Z</time>
      </trkpt>
      <trkpt lat="44.1237" lon="5.37363">
        <ele>938.5</ele>
        <time>2026-06-16T10:24:09.221Z</time>
      </trkpt>
      <trkpt lat="44.12394" lon="5.37344">
        <ele>940.4</ele>
        <time>2026-06-16T10:24:19.443Z</time>
      </trkpt>
      <trkpt lat="44.12433" lon="5.3732">
        <ele>942.6</ele>
        <time>2026-06-16T10:24:34.642Z</time>
      </trkpt>
      <trkpt lat="44.12471" lon="5.37308">
        <ele>945.2</ele>
        <time>2026-06-16T10:24:49.001Z</time>
      </trkpt>
      <trkpt lat="44.12499" lon="5.37303">
        <ele>946.5</ele>
        <time>2026-06-16T10:24:58.949Z</time>
      </trkpt>
      <trkpt lat="44.12655" lon="5.37303">
        <ele>956.1</ele>
        <time>2026-06-16T10:25:55.772Z</time>
      </trkpt>
      <trkpt lat="44.12688" lon="5.3731">
        <ele>957.8</ele>
        <time>2026-06-16T10:26:07.655Z</time>
      </trkpt>
      <trkpt lat="44.12786" lon="5.37344">
        <ele>964.4</ele>
        <time>2026-06-16T10:26:44.756Z</time>
      </trkpt>
      <trkpt lat="44.12822" lon="5.37351">
        <ele>966.5</ele>
        <time>2026-06-16T10:26:57.887Z</time>
      </trkpt>
      <trkpt lat="44.12844" lon="5.37353">
        <ele>967.7</ele>
        <time>2026-06-16T10:27:05.795Z</time>
      </trkpt>
      <trkpt lat="44.12897" lon="5.37351">
        <ele>971.5</ele>
        <time>2026-06-16T10:27:25.555Z</time>
      </trkpt>
      <trkpt lat="44.12938" lon="5.37346">
        <ele>974.6</ele>
        <time>2026-06-16T10:27:41.026Z</time>
      </trkpt>
      <trkpt lat="44.12947" lon="5.37343">
        <ele>975</ele>
        <time>2026-06-16T10:27:44.268Z</time>
      </trkpt>
      <trkpt lat="44.12989" lon="5.37323">
        <ele>976.5</ele>
        <time>2026-06-16T10:27:59.533Z</time>
      </trkpt>
      <trkpt lat="44.13008" lon="5.37315">
        <ele>977.7</ele>
        <time>2026-06-16T10:28:06.745Z</time>
      </trkpt>
      <trkpt lat="44.13033" lon="5.37312">
        <ele>979.3</ele>
        <time>2026-06-16T10:28:15.931Z</time>
      </trkpt>
      <trkpt lat="44.13045" lon="5.37312">
        <ele>980.2</ele>
        <time>2026-06-16T10:28:20.438Z</time>
      </trkpt>
      <trkpt lat="44.13098" lon="5.37326">
        <ele>983.7</ele>
        <time>2026-06-16T10:28:40.234Z</time>
      </trkpt>
      <trkpt lat="44.13126" lon="5.37338">
        <ele>985.1</ele>
        <time>2026-06-16T10:28:50.595Z</time>
      </trkpt>
      <trkpt lat="44.13276" lon="5.37418">
        <ele>995.4</ele>
        <time>2026-06-16T10:29:49.436Z</time>
      </trkpt>
      <trkpt lat="44.13365" lon="5.37447">
        <ele>1001.5</ele>
        <time>2026-06-16T10:30:23.119Z</time>
      </trkpt>
      <trkpt lat="44.13392" lon="5.37452">
        <ele>1002.6</ele>
        <time>2026-06-16T10:30:32.608Z</time>
      </trkpt>
      <trkpt lat="44.13432" lon="5.37443">
        <ele>1005</ele>
        <time>2026-06-16T10:30:47.292Z</time>
      </trkpt>
      <trkpt lat="44.13441" lon="5.3744">
        <ele>1005.4</ele>
        <time>2026-06-16T10:30:50.535Z</time>
      </trkpt>
      <trkpt lat="44.13553" lon="5.37409">
        <ele>1012.5</ele>
        <time>2026-06-16T10:31:32.187Z</time>
      </trkpt>
      <trkpt lat="44.1363" lon="5.37396">
        <ele>1018.8</ele>
        <time>2026-06-16T10:32:01.755Z</time>
      </trkpt>
      <trkpt lat="44.13637" lon="5.37393">
        <ele>1018.7</ele>
        <time>2026-06-16T10:32:04.080Z</time>
      </trkpt>
      <trkpt lat="44.13642" lon="5.37387">
        <ele>1018.3</ele>
        <time>2026-06-16T10:32:06.057Z</time>
      </trkpt>
      <trkpt lat="44.13646" lon="5.37378">
        <ele>1018.9</ele>
        <time>2026-06-16T10:32:08.937Z</time>
      </trkpt>
      <trkpt lat="44.13646" lon="5.37368">
        <ele>1019.3</ele>
        <time>2026-06-16T10:32:11.519Z</time>
      </trkpt>
      <trkpt lat="44.13645" lon="5.37358">
        <ele>1020.2</ele>
        <time>2026-06-16T10:32:14.614Z</time>
      </trkpt>
      <trkpt lat="44.13641" lon="5.3735">
        <ele>1022</ele>
        <time>2026-06-16T10:32:19.477Z</time>
      </trkpt>
      <trkpt lat="44.13634" lon="5.37344">
        <ele>1022.8</ele>
        <time>2026-06-16T10:32:22.739Z</time>
      </trkpt>
      <trkpt lat="44.13596" lon="5.37324">
        <ele>1025.1</ele>
        <time>2026-06-16T10:32:37.377Z</time>
      </trkpt>
      <trkpt lat="44.1357" lon="5.37304">
        <ele>1027.3</ele>
        <time>2026-06-16T10:32:48.508Z</time>
      </trkpt>
      <trkpt lat="44.13553" lon="5.37285">
        <ele>1029.4</ele>
        <time>2026-06-16T10:32:57.136Z</time>
      </trkpt>
      <trkpt lat="44.13445" lon="5.37147">
        <ele>1035.9</ele>
        <time>2026-06-16T10:33:48.599Z</time>
      </trkpt>
      <trkpt lat="44.13439" lon="5.37136">
        <ele>1036.6</ele>
        <time>2026-06-16T10:33:52.285Z</time>
      </trkpt>
      <trkpt lat="44.13435" lon="5.37127">
        <ele>1036.7</ele>
        <time>2026-06-16T10:33:54.802Z</time>
      </trkpt>
      <trkpt lat="44.13434" lon="5.37107">
        <ele>1037.6</ele>
        <time>2026-06-16T10:34:00.055Z</time>
      </trkpt>
      <trkpt lat="44.13436" lon="5.37095">
        <ele>1038</ele>
        <time>2026-06-16T10:34:03.165Z</time>
      </trkpt>
      <trkpt lat="44.13439" lon="5.37085">
        <ele>1038.4</ele>
        <time>2026-06-16T10:34:05.937Z</time>
      </trkpt>
      <trkpt lat="44.13445" lon="5.37076">
        <ele>1038.8</ele>
        <time>2026-06-16T10:34:09.040Z</time>
      </trkpt>
      <trkpt lat="44.13463" lon="5.37061">
        <ele>1040.2</ele>
        <time>2026-06-16T10:34:16.769Z</time>
      </trkpt>
      <trkpt lat="44.1353" lon="5.37013">
        <ele>1043.3</ele>
        <time>2026-06-16T10:34:43.056Z</time>
      </trkpt>
      <trkpt lat="44.13573" lon="5.36981">
        <ele>1046.9</ele>
        <time>2026-06-16T10:35:01.317Z</time>
      </trkpt>
      <trkpt lat="44.1361" lon="5.3696">
        <ele>1050</ele>
        <time>2026-06-16T10:35:16.416Z</time>
      </trkpt>
      <trkpt lat="44.13635" lon="5.36951">
        <ele>1051.4</ele>
        <time>2026-06-16T10:35:25.673Z</time>
      </trkpt>
      <trkpt lat="44.13669" lon="5.36944">
        <ele>1054.2</ele>
        <time>2026-06-16T10:35:38.783Z</time>
      </trkpt>
      <trkpt lat="44.13712" lon="5.36929">
        <ele>1056.7</ele>
        <time>2026-06-16T10:35:54.748Z</time>
      </trkpt>
      <trkpt lat="44.13732" lon="5.36921">
        <ele>1058.4</ele>
        <time>2026-06-16T10:36:02.690Z</time>
      </trkpt>
      <trkpt lat="44.13753" lon="5.36908">
        <ele>1059.8</ele>
        <time>2026-06-16T10:36:11.049Z</time>
      </trkpt>
      <trkpt lat="44.1377" lon="5.36893">
        <ele>1061.2</ele>
        <time>2026-06-16T10:36:18.512Z</time>
      </trkpt>
      <trkpt lat="44.13809" lon="5.36844">
        <ele>1064.4</ele>
        <time>2026-06-16T10:36:37.614Z</time>
      </trkpt>
      <trkpt lat="44.13827" lon="5.36824">
        <ele>1065.9</ele>
        <time>2026-06-16T10:36:46.068Z</time>
      </trkpt>
      <trkpt lat="44.13861" lon="5.36801">
        <ele>1068.3</ele>
        <time>2026-06-16T10:36:59.895Z</time>
      </trkpt>
      <trkpt lat="44.13884" lon="5.3679">
        <ele>1070.4</ele>
        <time>2026-06-16T10:37:09.282Z</time>
      </trkpt>
      <trkpt lat="44.13905" lon="5.36784">
        <ele>1071.9</ele>
        <time>2026-06-16T10:37:17.240Z</time>
      </trkpt>
      <trkpt lat="44.13922" lon="5.36784">
        <ele>1073.5</ele>
        <time>2026-06-16T10:37:23.932Z</time>
      </trkpt>
      <trkpt lat="44.13952" lon="5.36785">
        <ele>1075.8</ele>
        <time>2026-06-16T10:37:35.247Z</time>
      </trkpt>
      <trkpt lat="44.13998" lon="5.36791">
        <ele>1078.3</ele>
        <time>2026-06-16T10:37:51.806Z</time>
      </trkpt>
      <trkpt lat="44.14047" lon="5.36811">
        <ele>1082.8</ele>
        <time>2026-06-16T10:38:11.604Z</time>
      </trkpt>
      <trkpt lat="44.14059" lon="5.36818">
        <ele>1083.7</ele>
        <time>2026-06-16T10:38:16.424Z</time>
      </trkpt>
      <trkpt lat="44.14083" lon="5.36834">
        <ele>1085.1</ele>
        <time>2026-06-16T10:38:25.930Z</time>
      </trkpt>
      <trkpt lat="44.14113" lon="5.36862">
        <ele>1088</ele>
        <time>2026-06-16T10:38:39.665Z</time>
      </trkpt>
      <trkpt lat="44.14141" lon="5.36896">
        <ele>1089.9</ele>
        <time>2026-06-16T10:38:52.893Z</time>
      </trkpt>
      <trkpt lat="44.14173" lon="5.36954">
        <ele>1093.7</ele>
        <time>2026-06-16T10:39:12.492Z</time>
      </trkpt>
      <trkpt lat="44.1418" lon="5.36975">
        <ele>1095.2</ele>
        <time>2026-06-16T10:39:18.970Z</time>
      </trkpt>
      <trkpt lat="44.14194" lon="5.37038">
        <ele>1098</ele>
        <time>2026-06-16T10:39:36.119Z</time>
      </trkpt>
      <trkpt lat="44.14197" lon="5.37048">
        <ele>1098</ele>
        <time>2026-06-16T10:39:38.639Z</time>
      </trkpt>
      <trkpt lat="44.14202" lon="5.37055">
        <ele>1098</ele>
        <time>2026-06-16T10:39:40.936Z</time>
      </trkpt>
      <trkpt lat="44.1421" lon="5.37062">
        <ele>1098.1</ele>
        <time>2026-06-16T10:39:44.051Z</time>
      </trkpt>
      <trkpt lat="44.14222" lon="5.37063">
        <ele>1098</ele>
        <time>2026-06-16T10:39:47.896Z</time>
      </trkpt>
      <trkpt lat="44.14229" lon="5.3706">
        <ele>1098.7</ele>
        <time>2026-06-16T10:39:50.790Z</time>
      </trkpt>
      <trkpt lat="44.14237" lon="5.37053">
        <ele>1099.6</ele>
        <time>2026-06-16T10:39:54.519Z</time>
      </trkpt>
      <trkpt lat="44.14255" lon="5.37027">
        <ele>1102.1</ele>
        <time>2026-06-16T10:40:04.785Z</time>
      </trkpt>
      <trkpt lat="44.1426" lon="5.37016">
        <ele>1103</ele>
        <time>2026-06-16T10:40:08.483Z</time>
      </trkpt>
      <trkpt lat="44.14262" lon="5.37004">
        <ele>1103.5</ele>
        <time>2026-06-16T10:40:11.669Z</time>
      </trkpt>
      <trkpt lat="44.14266" lon="5.36964">
        <ele>1104.8</ele>
        <time>2026-06-16T10:40:21.857Z</time>
      </trkpt>
      <trkpt lat="44.14272" lon="5.36859">
        <ele>1108.3</ele>
        <time>2026-06-16T10:40:48.509Z</time>
      </trkpt>
      <trkpt lat="44.14278" lon="5.36816">
        <ele>1110.1</ele>
        <time>2026-06-16T10:40:59.852Z</time>
      </trkpt>
      <trkpt lat="44.14283" lon="5.36797">
        <ele>1110.8</ele>
        <time>2026-06-16T10:41:04.993Z</time>
      </trkpt>
      <trkpt lat="44.14299" lon="5.36763">
        <ele>1112.3</ele>
        <time>2026-06-16T10:41:15.390Z</time>
      </trkpt>
      <trkpt lat="44.14329" lon="5.36721">
        <ele>1113.9</ele>
        <time>2026-06-16T10:41:30.125Z</time>
      </trkpt>
      <trkpt lat="44.14342" lon="5.36706">
        <ele>1114.6</ele>
        <time>2026-06-16T10:41:36.018Z</time>
      </trkpt>
      <trkpt lat="44.14383" lon="5.36676">
        <ele>1117.4</ele>
        <time>2026-06-16T10:41:52.846Z</time>
      </trkpt>
      <trkpt lat="44.14399" lon="5.36667">
        <ele>1118.1</ele>
        <time>2026-06-16T10:41:58.859Z</time>
      </trkpt>
      <trkpt lat="44.1443" lon="5.36657">
        <ele>1119.7</ele>
        <time>2026-06-16T10:42:10.172Z</time>
      </trkpt>
      <trkpt lat="44.1445" lon="5.36653">
        <ele>1121</ele>
        <time>2026-06-16T10:42:17.577Z</time>
      </trkpt>
      <trkpt lat="44.14475" lon="5.36651">
        <ele>1122.7</ele>
        <time>2026-06-16T10:42:26.829Z</time>
      </trkpt>
      <trkpt lat="44.14566" lon="5.36665">
        <ele>1130</ele>
        <time>2026-06-16T10:43:01.606Z</time>
      </trkpt>
      <trkpt lat="44.14572" lon="5.36664">
        <ele>1130.6</ele>
        <time>2026-06-16T10:43:04.017Z</time>
      </trkpt>
      <trkpt lat="44.14577" lon="5.3666">
        <ele>1131</ele>
        <time>2026-06-16T10:43:06.154Z</time>
      </trkpt>
      <trkpt lat="44.14581" lon="5.36653">
        <ele>1131.2</ele>
        <time>2026-06-16T10:43:08.351Z</time>
      </trkpt>
      <trkpt lat="44.14584" lon="5.36645">
        <ele>1131.3</ele>
        <time>2026-06-16T10:43:10.505Z</time>
      </trkpt>
      <trkpt lat="44.14583" lon="5.36635">
        <ele>1131.2</ele>
        <time>2026-06-16T10:43:12.804Z</time>
      </trkpt>
      <trkpt lat="44.14579" lon="5.36622">
        <ele>1131.4</ele>
        <time>2026-06-16T10:43:16.204Z</time>
      </trkpt>
      <trkpt lat="44.14512" lon="5.36472">
        <ele>1136.3</ele>
        <time>2026-06-16T10:44:00.223Z</time>
      </trkpt>
      <trkpt lat="44.14507" lon="5.36448">
        <ele>1137.5</ele>
        <time>2026-06-16T10:44:06.834Z</time>
      </trkpt>
      <trkpt lat="44.14506" lon="5.36437">
        <ele>1137.7</ele>
        <time>2026-06-16T10:44:09.526Z</time>
      </trkpt>
      <trkpt lat="44.14507" lon="5.36424">
        <ele>1137.9</ele>
        <time>2026-06-16T10:44:12.678Z</time>
      </trkpt>
      <trkpt lat="44.14509" lon="5.36412">
        <ele>1138.2</ele>
        <time>2026-06-16T10:44:15.719Z</time>
      </trkpt>
      <trkpt lat="44.14513" lon="5.36401">
        <ele>1138.6</ele>
        <time>2026-06-16T10:44:18.832Z</time>
      </trkpt>
      <trkpt lat="44.1452" lon="5.36389">
        <ele>1139.2</ele>
        <time>2026-06-16T10:44:22.809Z</time>
      </trkpt>
      <trkpt lat="44.14554" lon="5.3635">
        <ele>1141.6</ele>
        <time>2026-06-16T10:44:38.605Z</time>
      </trkpt>
      <trkpt lat="44.14581" lon="5.36321">
        <ele>1142.7</ele>
        <time>2026-06-16T10:44:50.294Z</time>
      </trkpt>
      <trkpt lat="44.14583" lon="5.36324">
        <ele>1143.3</ele>
        <time>2026-06-16T10:44:51.934Z</time>
      </trkpt>
      <trkpt lat="44.14584" lon="5.36333">
        <ele>1144.1</ele>
        <time>2026-06-16T10:44:54.711Z</time>
      </trkpt>
      <trkpt lat="44.14578" lon="5.36367">
        <ele>1145.8</ele>
        <time>2026-06-16T10:45:03.989Z</time>
      </trkpt>
      <trkpt lat="44.14578" lon="5.36375">
        <ele>1146.3</ele>
        <time>2026-06-16T10:45:06.209Z</time>
        <extensions>
          <visugpx:TrkExtension xmlns:visugpx="https://www.visugpx.com/editgpx/">
            <visugpx:node>6</visugpx:node>
            </visugpx:TrkExtension>
        </extensions>
      </trkpt>
      <trkpt lat="44.14578" lon="5.36367">
        <ele>1145.8</ele>
        <time>2026-06-16T10:45:07.891Z</time>
      </trkpt>
      <trkpt lat="44.14584" lon="5.36333">
        <ele>1144.1</ele>
        <time>2026-06-16T10:45:15.368Z</time>
      </trkpt>
      <trkpt lat="44.14583" lon="5.36324">
        <ele>1143.3</ele>
        <time>2026-06-16T10:45:17.248Z</time>
      </trkpt>
      <trkpt lat="44.14581" lon="5.36321">
        <ele>1142.7</ele>
        <time>2026-06-16T10:45:18.105Z</time>
      </trkpt>
      <trkpt lat="44.14593" lon="5.36306">
        <ele>1144.1</ele>
        <time>2026-06-16T10:45:24.335Z</time>
      </trkpt>
      <trkpt lat="44.14598" lon="5.36297">
        <ele>1145</ele>
        <time>2026-06-16T10:45:27.689Z</time>
      </trkpt>
      <trkpt lat="44.14603" lon="5.36279">
        <ele>1146</ele>
        <time>2026-06-16T10:45:32.858Z</time>
      </trkpt>
      <trkpt lat="44.14604" lon="5.36247">
        <ele>1147.2</ele>
        <time>2026-06-16T10:45:41.062Z</time>
      </trkpt>
      <trkpt lat="44.14598" lon="5.36177">
        <ele>1149.1</ele>
        <time>2026-06-16T10:45:58.587Z</time>
      </trkpt>
      <trkpt lat="44.14598" lon="5.36144">
        <ele>1150.5</ele>
        <time>2026-06-16T10:46:07.167Z</time>
      </trkpt>
      <trkpt lat="44.14601" lon="5.36108">
        <ele>1151.5</ele>
        <time>2026-06-16T10:46:16.193Z</time>
      </trkpt>
      <trkpt lat="44.14606" lon="5.36077">
        <ele>1152.7</ele>
        <time>2026-06-16T10:46:24.339Z</time>
      </trkpt>
      <trkpt lat="44.14611" lon="5.36056">
        <ele>1154</ele>
        <time>2026-06-16T10:46:30.401Z</time>
      </trkpt>
      <trkpt lat="44.14626" lon="5.36012">
        <ele>1155.6</ele>
        <time>2026-06-16T10:46:42.712Z</time>
      </trkpt>
      <trkpt lat="44.14641" lon="5.35981">
        <ele>1157</ele>
        <time>2026-06-16T10:46:52.289Z</time>
      </trkpt>
      <trkpt lat="44.14657" lon="5.35959">
        <ele>1158.1</ele>
        <time>2026-06-16T10:47:00.257Z</time>
      </trkpt>
      <trkpt lat="44.1468" lon="5.35939">
        <ele>1159.8</ele>
        <time>2026-06-16T10:47:10.158Z</time>
      </trkpt>
      <trkpt lat="44.14706" lon="5.35925">
        <ele>1161.4</ele>
        <time>2026-06-16T10:47:20.219Z</time>
      </trkpt>
      <trkpt lat="44.14747" lon="5.35914">
        <ele>1164.1</ele>
        <time>2026-06-16T10:47:35.534Z</time>
      </trkpt>
      <trkpt lat="44.14762" lon="5.35911">
        <ele>1164.6</ele>
        <time>2026-06-16T10:47:40.737Z</time>
      </trkpt>
      <trkpt lat="44.14776" lon="5.35911">
        <ele>1165.5</ele>
        <time>2026-06-16T10:47:45.868Z</time>
      </trkpt>
      <trkpt lat="44.14929" lon="5.35964">
        <ele>1179</ele>
        <time>2026-06-16T10:48:46.619Z</time>
      </trkpt>
      <trkpt lat="44.14938" lon="5.35966">
        <ele>1179.1</ele>
        <time>2026-06-16T10:48:49.626Z</time>
      </trkpt>
      <trkpt lat="44.14943" lon="5.35965">
        <ele>1179</ele>
        <time>2026-06-16T10:48:51.215Z</time>
      </trkpt>
      <trkpt lat="44.14947" lon="5.35961">
        <ele>1179.3</ele>
        <time>2026-06-16T10:48:53.006Z</time>
      </trkpt>
      <trkpt lat="44.14953" lon="5.35949">
        <ele>1180.4</ele>
        <time>2026-06-16T10:48:57.254Z</time>
      </trkpt>
      <trkpt lat="44.14952" lon="5.35936">
        <ele>1181.8</ele>
        <time>2026-06-16T10:49:01.575Z</time>
      </trkpt>
      <trkpt lat="44.14949" lon="5.35928">
        <ele>1182.5</ele>
        <time>2026-06-16T10:49:04.220Z</time>
      </trkpt>
      <trkpt lat="44.14943" lon="5.3592">
        <ele>1182.3</ele>
        <time>2026-06-16T10:49:06.817Z</time>
      </trkpt>
      <trkpt lat="44.14905" lon="5.35883">
        <ele>1183.5</ele>
        <time>2026-06-16T10:49:22.522Z</time>
      </trkpt>
      <trkpt lat="44.14898" lon="5.35873">
        <ele>1183.8</ele>
        <time>2026-06-16T10:49:25.944Z</time>
      </trkpt>
      <trkpt lat="44.14893" lon="5.3586">
        <ele>1185</ele>
        <time>2026-06-16T10:49:30.329Z</time>
      </trkpt>
      <trkpt lat="44.14872" lon="5.35765">
        <ele>1189.9</ele>
        <time>2026-06-16T10:49:56.731Z</time>
      </trkpt>
      <trkpt lat="44.14869" lon="5.3574">
        <ele>1191.2</ele>
        <time>2026-06-16T10:50:03.507Z</time>
      </trkpt>
      <trkpt lat="44.14869" lon="5.35706">
        <ele>1192.6</ele>
        <time>2026-06-16T10:50:12.313Z</time>
      </trkpt>
      <trkpt lat="44.14871" lon="5.35687">
        <ele>1193.7</ele>
        <time>2026-06-16T10:50:17.548Z</time>
      </trkpt>
      <trkpt lat="44.14875" lon="5.35671">
        <ele>1194.9</ele>
        <time>2026-06-16T10:50:22.390Z</time>
      </trkpt>
      <trkpt lat="44.14885" lon="5.3564">
        <ele>1196.3</ele>
        <time>2026-06-16T10:50:31.193Z</time>
      </trkpt>
      <trkpt lat="44.14906" lon="5.35598">
        <ele>1198.9</ele>
        <time>2026-06-16T10:50:44.855Z</time>
      </trkpt>
      <trkpt lat="44.14924" lon="5.35572">
        <ele>1200.5</ele>
        <time>2026-06-16T10:50:54.302Z</time>
      </trkpt>
      <trkpt lat="44.14951" lon="5.35539">
        <ele>1203</ele>
        <time>2026-06-16T10:51:07.623Z</time>
      </trkpt>
      <trkpt lat="44.14971" lon="5.35522">
        <ele>1205.2</ele>
        <time>2026-06-16T10:51:16.839Z</time>
      </trkpt>
      <trkpt lat="44.14986" lon="5.35511">
        <ele>1206.2</ele>
        <time>2026-06-16T10:51:22.979Z</time>
      </trkpt>
      <trkpt lat="44.15007" lon="5.35501">
        <ele>1207.6</ele>
        <time>2026-06-16T10:51:31.090Z</time>
      </trkpt>
      <trkpt lat="44.15019" lon="5.35499">
        <ele>1208.2</ele>
        <time>2026-06-16T10:51:35.381Z</time>
      </trkpt>
      <trkpt lat="44.15032" lon="5.355">
        <ele>1209.3</ele>
        <time>2026-06-16T10:51:40.384Z</time>
      </trkpt>
      <trkpt lat="44.15052" lon="5.35505">
        <ele>1211.5</ele>
        <time>2026-06-16T10:51:48.685Z</time>
      </trkpt>
      <trkpt lat="44.15066" lon="5.35516">
        <ele>1211.9</ele>
        <time>2026-06-16T10:51:54.120Z</time>
      </trkpt>
      <trkpt lat="44.15092" lon="5.35552">
        <ele>1216.1</ele>
        <time>2026-06-16T10:52:09.355Z</time>
      </trkpt>
      <trkpt lat="44.15098" lon="5.35556">
        <ele>1216.5</ele>
        <time>2026-06-16T10:52:11.770Z</time>
      </trkpt>
      <trkpt lat="44.15107" lon="5.35558">
        <ele>1216.4</ele>
        <time>2026-06-16T10:52:14.674Z</time>
      </trkpt>
      <trkpt lat="44.15115" lon="5.35553">
        <ele>1216.6</ele>
        <time>2026-06-16T10:52:17.627Z</time>
      </trkpt>
      <trkpt lat="44.15127" lon="5.35523">
        <ele>1216.8</ele>
        <time>2026-06-16T10:52:25.720Z</time>
      </trkpt>
      <trkpt lat="44.15133" lon="5.35513">
        <ele>1218</ele>
        <time>2026-06-16T10:52:29.762Z</time>
      </trkpt>
      <trkpt lat="44.15145" lon="5.35499">
        <ele>1220</ele>
        <time>2026-06-16T10:52:36.516Z</time>
      </trkpt>
      <trkpt lat="44.15176" lon="5.35469">
        <ele>1222.1</ele>
        <time>2026-06-16T10:52:50.087Z</time>
      </trkpt>
      <trkpt lat="44.15186" lon="5.35464">
        <ele>1222.9</ele>
        <time>2026-06-16T10:52:54.081Z</time>
      </trkpt>
      <trkpt lat="44.1521" lon="5.35456">
        <ele>1226</ele>
        <time>2026-06-16T10:53:04.664Z</time>
      </trkpt>
      <trkpt lat="44.15215" lon="5.35451">
        <ele>1226.2</ele>
        <time>2026-06-16T10:53:06.775Z</time>
      </trkpt>
      <trkpt lat="44.15221" lon="5.35437">
        <ele>1227.2</ele>
        <time>2026-06-16T10:53:11.282Z</time>
      </trkpt>
      <trkpt lat="44.15221" lon="5.35427">
        <ele>1227.9</ele>
        <time>2026-06-16T10:53:14.131Z</time>
      </trkpt>
      <trkpt lat="44.15219" lon="5.35405">
        <ele>1229</ele>
        <time>2026-06-16T10:53:20.027Z</time>
      </trkpt>
      <trkpt lat="44.15219" lon="5.3539">
        <ele>1230.1</ele>
        <time>2026-06-16T10:53:24.353Z</time>
      </trkpt>
      <trkpt lat="44.15232" lon="5.35318">
        <ele>1233.6</ele>
        <time>2026-06-16T10:53:43.938Z</time>
      </trkpt>
      <trkpt lat="44.15242" lon="5.35289">
        <ele>1235.2</ele>
        <time>2026-06-16T10:53:52.495Z</time>
      </trkpt>
      <trkpt lat="44.15265" lon="5.35238">
        <ele>1238.9</ele>
        <time>2026-06-16T10:54:09.149Z</time>
      </trkpt>
      <trkpt lat="44.15275" lon="5.35206">
        <ele>1240.7</ele>
        <time>2026-06-16T10:54:18.487Z</time>
      </trkpt>
      <trkpt lat="44.15277" lon="5.35189">
        <ele>1241</ele>
        <time>2026-06-16T10:54:22.662Z</time>
      </trkpt>
      <trkpt lat="44.15279" lon="5.35122">
        <ele>1244</ele>
        <time>2026-06-16T10:54:40.219Z</time>
      </trkpt>
      <trkpt lat="44.15281" lon="5.35089">
        <ele>1245.6</ele>
        <time>2026-06-16T10:54:48.987Z</time>
      </trkpt>
      <trkpt lat="44.15284" lon="5.35074">
        <ele>1246.5</ele>
        <time>2026-06-16T10:54:53.239Z</time>
      </trkpt>
      <trkpt lat="44.15288" lon="5.35059">
        <ele>1247.3</ele>
        <time>2026-06-16T10:54:57.499Z</time>
      </trkpt>
      <trkpt lat="44.15295" lon="5.35045">
        <ele>1248.2</ele>
        <time>2026-06-16T10:55:02.081Z</time>
      </trkpt>
      <trkpt lat="44.15304" lon="5.3503">
        <ele>1249.7</ele>
        <time>2026-06-16T10:55:07.792Z</time>
      </trkpt>
      <trkpt lat="44.15313" lon="5.3502">
        <ele>1250</ele>
        <time>2026-06-16T10:55:11.693Z</time>
      </trkpt>
      <trkpt lat="44.15324" lon="5.35011">
        <ele>1250.7</ele>
        <time>2026-06-16T10:55:16.272Z</time>
      </trkpt>
      <trkpt lat="44.15352" lon="5.34999">
        <ele>1252</ele>
        <time>2026-06-16T10:55:26.560Z</time>
      </trkpt>
      <trkpt lat="44.15396" lon="5.34994">
        <ele>1254.6</ele>
        <time>2026-06-16T10:55:42.547Z</time>
      </trkpt>
      <trkpt lat="44.15442" lon="5.35">
        <ele>1256.2</ele>
        <time>2026-06-16T10:55:58.462Z</time>
      </trkpt>
      <trkpt lat="44.15458" lon="5.34997">
        <ele>1256.6</ele>
        <time>2026-06-16T10:56:03.921Z</time>
      </trkpt>
      <trkpt lat="44.15502" lon="5.34977">
        <ele>1256.8</ele>
        <time>2026-06-16T10:56:19.022Z</time>
      </trkpt>
      <trkpt lat="44.15541" lon="5.34951">
        <ele>1256</ele>
        <time>2026-06-16T10:56:32.646Z</time>
      </trkpt>
      <trkpt lat="44.15566" lon="5.34941">
        <ele>1255.6</ele>
        <time>2026-06-16T10:56:40.880Z</time>
      </trkpt>
      <trkpt lat="44.15585" lon="5.34938">
        <ele>1256.2</ele>
        <time>2026-06-16T10:56:47.425Z</time>
      </trkpt>
      <trkpt lat="44.15606" lon="5.34939">
        <ele>1256</ele>
        <time>2026-06-16T10:56:54.135Z</time>
      </trkpt>
      <trkpt lat="44.15618" lon="5.34944">
        <ele>1256.6</ele>
        <time>2026-06-16T10:56:58.565Z</time>
      </trkpt>
      <trkpt lat="44.15649" lon="5.34965">
        <ele>1257.4</ele>
        <time>2026-06-16T10:57:10.186Z</time>
      </trkpt>
      <trkpt lat="44.15662" lon="5.34971">
        <ele>1257.3</ele>
        <time>2026-06-16T10:57:14.573Z</time>
      </trkpt>
      <trkpt lat="44.15673" lon="5.34973">
        <ele>1257.1</ele>
        <time>2026-06-16T10:57:18.071Z</time>
      </trkpt>
      <trkpt lat="44.15702" lon="5.34975">
        <ele>1257.6</ele>
        <time>2026-06-16T10:57:27.756Z</time>
      </trkpt>
      <trkpt lat="44.15717" lon="5.34972">
        <ele>1257.6</ele>
        <time>2026-06-16T10:57:32.666Z</time>
      </trkpt>
      <trkpt lat="44.15723" lon="5.34966">
        <ele>1258.7</ele>
        <time>2026-06-16T10:57:36.065Z</time>
      </trkpt>
      <trkpt lat="44.15725" lon="5.34956">
        <ele>1260.2</ele>
        <time>2026-06-16T10:57:40.175Z</time>
      </trkpt>
      <trkpt lat="44.15721" lon="5.3494">
        <ele>1259.8</ele>
        <time>2026-06-16T10:57:43.933Z</time>
      </trkpt>
      <trkpt lat="44.15705" lon="5.3491">
        <ele>1261</ele>
        <time>2026-06-16T10:57:53.359Z</time>
      </trkpt>
      <trkpt lat="44.1569" lon="5.34878">
        <ele>1260.1</ele>
        <time>2026-06-16T10:58:01.838Z</time>
      </trkpt>
      <trkpt lat="44.15688" lon="5.34869">
        <ele>1260.1</ele>
        <time>2026-06-16T10:58:04.028Z</time>
      </trkpt>
      <trkpt lat="44.1569" lon="5.34854">
        <ele>1261.2</ele>
        <time>2026-06-16T10:58:08.408Z</time>
      </trkpt>
      <trkpt lat="44.15693" lon="5.34845">
        <ele>1261.5</ele>
        <time>2026-06-16T10:58:10.897Z</time>
      </trkpt>
      <trkpt lat="44.15705" lon="5.34829">
        <ele>1262.2</ele>
        <time>2026-06-16T10:58:16.703Z</time>
      </trkpt>
      <trkpt lat="44.15717" lon="5.34818">
        <ele>1262</ele>
        <time>2026-06-16T10:58:21.260Z</time>
      </trkpt>
      <trkpt lat="44.15725" lon="5.34813">
        <ele>1262.4</ele>
        <time>2026-06-16T10:58:24.347Z</time>
      </trkpt>
      <trkpt lat="44.15754" lon="5.34801">
        <ele>1264.5</ele>
        <time>2026-06-16T10:58:35.563Z</time>
      </trkpt>
      <trkpt lat="44.15766" lon="5.34791">
        <ele>1264.6</ele>
        <time>2026-06-16T10:58:40.146Z</time>
      </trkpt>
      <trkpt lat="44.1577" lon="5.3478">
        <ele>1263.2</ele>
        <time>2026-06-16T10:58:42.680Z</time>
      </trkpt>
      <trkpt lat="44.1577" lon="5.34769">
        <ele>1265.1</ele>
        <time>2026-06-16T10:58:47.783Z</time>
      </trkpt>
      <trkpt lat="44.15767" lon="5.34763">
        <ele>1265.8</ele>
        <time>2026-06-16T10:58:50.086Z</time>
      </trkpt>
      <trkpt lat="44.15758" lon="5.3475">
        <ele>1267</ele>
        <time>2026-06-16T10:58:55.168Z</time>
      </trkpt>
      <trkpt lat="44.15753" lon="5.34747">
        <ele>1266.7</ele>
        <time>2026-06-16T10:58:56.808Z</time>
      </trkpt>
      <trkpt lat="44.15728" lon="5.34742">
        <ele>1266.2</ele>
        <time>2026-06-16T10:59:04.753Z</time>
      </trkpt>
      <trkpt lat="44.15702" lon="5.34731">
        <ele>1267.7</ele>
        <time>2026-06-16T10:59:14.514Z</time>
      </trkpt>
      <trkpt lat="44.15671" lon="5.34711">
        <ele>1269.5</ele>
        <time>2026-06-16T10:59:26.721Z</time>
      </trkpt>
      <trkpt lat="44.15646" lon="5.34689">
        <ele>1271.3</ele>
        <time>2026-06-16T10:59:37.474Z</time>
      </trkpt>
      <trkpt lat="44.15629" lon="5.34664">
        <ele>1272.4</ele>
        <time>2026-06-16T10:59:46.156Z</time>
      </trkpt>
      <trkpt lat="44.15614" lon="5.34635">
        <ele>1274.7</ele>
        <time>2026-06-16T10:59:56.139Z</time>
      </trkpt>
      <trkpt lat="44.15598" lon="5.34609">
        <ele>1276.2</ele>
        <time>2026-06-16T11:00:05.081Z</time>
      </trkpt>
      <trkpt lat="44.15565" lon="5.34576">
        <ele>1276.5</ele>
        <time>2026-06-16T11:00:18.401Z</time>
      </trkpt>
      <trkpt lat="44.15552" lon="5.34558">
        <ele>1277.5</ele>
        <time>2026-06-16T11:00:24.975Z</time>
      </trkpt>
      <trkpt lat="44.1553" lon="5.34506">
        <ele>1279.5</ele>
        <time>2026-06-16T11:00:40.242Z</time>
      </trkpt>
      <trkpt lat="44.15512" lon="5.34469">
        <ele>1282.2</ele>
        <time>2026-06-16T11:00:52.557Z</time>
      </trkpt>
      <trkpt lat="44.15503" lon="5.34456">
        <ele>1282.5</ele>
        <time>2026-06-16T11:00:56.926Z</time>
      </trkpt>
      <trkpt lat="44.15496" lon="5.34452">
        <ele>1283.6</ele>
        <time>2026-06-16T11:01:00.370Z</time>
      </trkpt>
      <trkpt lat="44.15486" lon="5.34455">
        <ele>1285.5</ele>
        <time>2026-06-16T11:01:05.699Z</time>
      </trkpt>
      <trkpt lat="44.15482" lon="5.3446">
        <ele>1285.2</ele>
        <time>2026-06-16T11:01:07.317Z</time>
      </trkpt>
      <trkpt lat="44.15464" lon="5.34502">
        <ele>1284.6</ele>
        <time>2026-06-16T11:01:18.401Z</time>
      </trkpt>
      <trkpt lat="44.15448" lon="5.34532">
        <ele>1284.3</ele>
        <time>2026-06-16T11:01:26.943Z</time>
      </trkpt>
      <trkpt lat="44.1543" lon="5.34559">
        <ele>1285.1</ele>
        <time>2026-06-16T11:01:35.976Z</time>
      </trkpt>
      <trkpt lat="44.15409" lon="5.34578">
        <ele>1285.9</ele>
        <time>2026-06-16T11:01:44.555Z</time>
      </trkpt>
      <trkpt lat="44.15395" lon="5.34585">
        <ele>1286.4</ele>
        <time>2026-06-16T11:01:49.669Z</time>
      </trkpt>
      <trkpt lat="44.15367" lon="5.3459">
        <ele>1286.6</ele>
        <time>2026-06-16T11:01:58.922Z</time>
      </trkpt>
      <trkpt lat="44.15344" lon="5.34589">
        <ele>1287.2</ele>
        <time>2026-06-16T11:02:06.721Z</time>
      </trkpt>
      <trkpt lat="44.15326" lon="5.34585">
        <ele>1288.2</ele>
        <time>2026-06-16T11:02:13.265Z</time>
      </trkpt>
      <trkpt lat="44.15291" lon="5.34576">
        <ele>1289.2</ele>
        <time>2026-06-16T11:02:25.373Z</time>
      </trkpt>
      <trkpt lat="44.1527" lon="5.34566">
        <ele>1289.5</ele>
        <time>2026-06-16T11:02:32.727Z</time>
      </trkpt>
      <trkpt lat="44.15251" lon="5.34547">
        <ele>1291.4</ele>
        <time>2026-06-16T11:02:41.642Z</time>
      </trkpt>
      <trkpt lat="44.15226" lon="5.345">
        <ele>1292</ele>
        <time>2026-06-16T11:02:55.572Z</time>
      </trkpt>
      <trkpt lat="44.15217" lon="5.3449">
        <ele>1292.1</ele>
        <time>2026-06-16T11:02:59.355Z</time>
      </trkpt>
      <trkpt lat="44.15211" lon="5.34486">
        <ele>1292.7</ele>
        <time>2026-06-16T11:03:01.947Z</time>
      </trkpt>
      <trkpt lat="44.15204" lon="5.34485">
        <ele>1292.5</ele>
        <time>2026-06-16T11:03:04.135Z</time>
      </trkpt>
      <trkpt lat="44.15197" lon="5.34485">
        <ele>1292</ele>
        <time>2026-06-16T11:03:06.211Z</time>
      </trkpt>
      <trkpt lat="44.1519" lon="5.34489">
        <ele>1292.5</ele>
        <time>2026-06-16T11:03:08.995Z</time>
      </trkpt>
      <trkpt lat="44.15164" lon="5.3452">
        <ele>1293.5</ele>
        <time>2026-06-16T11:03:20.660Z</time>
      </trkpt>
      <trkpt lat="44.15156" lon="5.34528">
        <ele>1292.8</ele>
        <time>2026-06-16T11:03:23.582Z</time>
      </trkpt>
      <trkpt lat="44.15147" lon="5.34533">
        <ele>1292.8</ele>
        <time>2026-06-16T11:03:26.721Z</time>
      </trkpt>
      <trkpt lat="44.15133" lon="5.34537">
        <ele>1293.4</ele>
        <time>2026-06-16T11:03:31.716Z</time>
      </trkpt>
      <trkpt lat="44.15109" lon="5.3454">
        <ele>1293.6</ele>
        <time>2026-06-16T11:03:39.631Z</time>
      </trkpt>
      <trkpt lat="44.15065" lon="5.34537">
        <ele>1294.7</ele>
        <time>2026-06-16T11:03:54.531Z</time>
      </trkpt>
      <trkpt lat="44.15035" lon="5.34531">
        <ele>1294.8</ele>
        <time>2026-06-16T11:04:04.404Z</time>
      </trkpt>
      <trkpt lat="44.15004" lon="5.3452">
        <ele>1296.4</ele>
        <time>2026-06-16T11:04:15.770Z</time>
      </trkpt>
      <trkpt lat="44.14985" lon="5.34511">
        <ele>1296.5</ele>
        <time>2026-06-16T11:04:22.325Z</time>
      </trkpt>
      <trkpt lat="44.14976" lon="5.34504">
        <ele>1297.3</ele>
        <time>2026-06-16T11:04:26.220Z</time>
      </trkpt>
      <trkpt lat="44.14953" lon="5.34478">
        <ele>1299.4</ele>
        <time>2026-06-16T11:04:37.238Z</time>
      </trkpt>
      <trkpt lat="44.14945" lon="5.34474">
        <ele>1298.5</ele>
        <time>2026-06-16T11:04:39.700Z</time>
      </trkpt>
      <trkpt lat="44.1494" lon="5.34474">
        <ele>1299.3</ele>
        <time>2026-06-16T11:04:42.084Z</time>
      </trkpt>
      <trkpt lat="44.14932" lon="5.34477">
        <ele>1300.1</ele>
        <time>2026-06-16T11:04:45.366Z</time>
      </trkpt>
      <trkpt lat="44.14913" lon="5.34493">
        <ele>1299.7</ele>
        <time>2026-06-16T11:04:52.367Z</time>
      </trkpt>
      <trkpt lat="44.14894" lon="5.345">
        <ele>1301.1</ele>
        <time>2026-06-16T11:04:59.684Z</time>
      </trkpt>
      <trkpt lat="44.14799" lon="5.34515">
        <ele>1303.1</ele>
        <time>2026-06-16T11:05:31.784Z</time>
      </trkpt>
      <trkpt lat="44.14718" lon="5.34516">
        <ele>1306.3</ele>
        <time>2026-06-16T11:05:59.955Z</time>
      </trkpt>
      <trkpt lat="44.1465" lon="5.34507">
        <ele>1308.7</ele>
        <time>2026-06-16T11:06:23.507Z</time>
      </trkpt>
      <trkpt lat="44.14619" lon="5.34495">
        <ele>1310.1</ele>
        <time>2026-06-16T11:06:34.787Z</time>
      </trkpt>
      <trkpt lat="44.14589" lon="5.34474">
        <ele>1311.5</ele>
        <time>2026-06-16T11:06:46.514Z</time>
      </trkpt>
      <trkpt lat="44.14576" lon="5.34458">
        <ele>1311.8</ele>
        <time>2026-06-16T11:06:52.300Z</time>
      </trkpt>
      <trkpt lat="44.14556" lon="5.34426">
        <ele>1313.1</ele>
        <time>2026-06-16T11:07:02.958Z</time>
      </trkpt>
      <trkpt lat="44.14535" lon="5.34397">
        <ele>1314.2</ele>
        <time>2026-06-16T11:07:13.193Z</time>
      </trkpt>
      <trkpt lat="44.14527" lon="5.34391">
        <ele>1313.6</ele>
        <time>2026-06-16T11:07:15.901Z</time>
      </trkpt>
      <trkpt lat="44.14518" lon="5.34388">
        <ele>1315.3</ele>
        <time>2026-06-16T11:07:20.687Z</time>
      </trkpt>
      <trkpt lat="44.14508" lon="5.34389">
        <ele>1316.1</ele>
        <time>2026-06-16T11:07:24.496Z</time>
      </trkpt>
      <trkpt lat="44.14499" lon="5.34395">
        <ele>1315.7</ele>
        <time>2026-06-16T11:07:27.553Z</time>
      </trkpt>
      <trkpt lat="44.14416" lon="5.3447">
        <ele>1318.6</ele>
        <time>2026-06-16T11:08:01.284Z</time>
      </trkpt>
      <trkpt lat="44.14376" lon="5.34497">
        <ele>1319.6</ele>
        <time>2026-06-16T11:08:16.249Z</time>
      </trkpt>
      <trkpt lat="44.14328" lon="5.34519">
        <ele>1320.7</ele>
        <time>2026-06-16T11:08:33.240Z</time>
      </trkpt>
      <trkpt lat="44.143" lon="5.34526">
        <ele>1321.8</ele>
        <time>2026-06-16T11:08:43.117Z</time>
      </trkpt>
      <trkpt lat="44.14256" lon="5.34529">
        <ele>1322.7</ele>
        <time>2026-06-16T11:08:57.894Z</time>
      </trkpt>
      <trkpt lat="44.1424" lon="5.34527">
        <ele>1322.8</ele>
        <time>2026-06-16T11:09:03.153Z</time>
      </trkpt>
      <trkpt lat="44.14217" lon="5.34519">
        <ele>1323.3</ele>
        <time>2026-06-16T11:09:11.114Z</time>
      </trkpt>
      <trkpt lat="44.14178" lon="5.34502">
        <ele>1324.7</ele>
        <time>2026-06-16T11:09:25.180Z</time>
      </trkpt>
      <trkpt lat="44.1416" lon="5.34493">
        <ele>1325.3</ele>
        <time>2026-06-16T11:09:31.726Z</time>
      </trkpt>
      <trkpt lat="44.14144" lon="5.34481">
        <ele>1325.6</ele>
        <time>2026-06-16T11:09:37.779Z</time>
      </trkpt>
      <trkpt lat="44.14119" lon="5.34459">
        <ele>1326.4</ele>
        <time>2026-06-16T11:09:47.819Z</time>
      </trkpt>
      <trkpt lat="44.14113" lon="5.3445">
        <ele>1326.7</ele>
        <time>2026-06-16T11:09:50.852Z</time>
      </trkpt>
      <trkpt lat="44.1411" lon="5.34441">
        <ele>1326.9</ele>
        <time>2026-06-16T11:09:53.275Z</time>
      </trkpt>
      <trkpt lat="44.1411" lon="5.3443">
        <ele>1326.9</ele>
        <time>2026-06-16T11:09:55.832Z</time>
      </trkpt>
      <trkpt lat="44.14113" lon="5.3442">
        <ele>1327.2</ele>
        <time>2026-06-16T11:09:58.533Z</time>
      </trkpt>
      <trkpt lat="44.14134" lon="5.34385">
        <ele>1328.4</ele>
        <time>2026-06-16T11:10:09.855Z</time>
      </trkpt>
      <trkpt lat="44.14144" lon="5.3437">
        <ele>1328.9</ele>
        <time>2026-06-16T11:10:14.910Z</time>
      </trkpt>
      <trkpt lat="44.14178" lon="5.34323">
        <ele>1331.3</ele>
        <time>2026-06-16T11:10:31.930Z</time>
      </trkpt>
      <trkpt lat="44.14191" lon="5.34292">
        <ele>1332</ele>
        <time>2026-06-16T11:10:40.681Z</time>
      </trkpt>
      <trkpt lat="44.14209" lon="5.3424">
        <ele>1333.8</ele>
        <time>2026-06-16T11:10:55.204Z</time>
      </trkpt>
      <trkpt lat="44.14214" lon="5.34221">
        <ele>1334.2</ele>
        <time>2026-06-16T11:11:00.139Z</time>
      </trkpt>
      <trkpt lat="44.14217" lon="5.34203">
        <ele>1334.7</ele>
        <time>2026-06-16T11:11:04.735Z</time>
      </trkpt>
      <trkpt lat="44.14224" lon="5.34138">
        <ele>1336.3</ele>
        <time>2026-06-16T11:11:20.960Z</time>
      </trkpt>
      <trkpt lat="44.14233" lon="5.34096">
        <ele>1336.9</ele>
        <time>2026-06-16T11:11:31.486Z</time>
      </trkpt>
      <trkpt lat="44.14261" lon="5.34017">
        <ele>1339.4</ele>
        <time>2026-06-16T11:11:53.477Z</time>
      </trkpt>
      <trkpt lat="44.14268" lon="5.34004">
        <ele>1339.8</ele>
        <time>2026-06-16T11:11:57.492Z</time>
      </trkpt>
      <trkpt lat="44.14286" lon="5.33981">
        <ele>1340.6</ele>
        <time>2026-06-16T11:12:05.874Z</time>
      </trkpt>
      <trkpt lat="44.1431" lon="5.33959">
        <ele>1341.6</ele>
        <time>2026-06-16T11:12:15.773Z</time>
      </trkpt>
      <trkpt lat="44.14335" lon="5.33944">
        <ele>1343</ele>
        <time>2026-06-16T11:12:25.473Z</time>
      </trkpt>
      <trkpt lat="44.14362" lon="5.33939">
        <ele>1343.7</ele>
        <time>2026-06-16T11:12:34.698Z</time>
      </trkpt>
      <trkpt lat="44.14408" lon="5.33937">
        <ele>1346.2</ele>
        <time>2026-06-16T11:12:51.201Z</time>
      </trkpt>
      <trkpt lat="44.14424" lon="5.33933">
        <ele>1346.6</ele>
        <time>2026-06-16T11:12:56.695Z</time>
      </trkpt>
      <trkpt lat="44.1444" lon="5.33927">
        <ele>1347</ele>
        <time>2026-06-16T11:13:02.291Z</time>
      </trkpt>
      <trkpt lat="44.14525" lon="5.33879">
        <ele>1350.7</ele>
        <time>2026-06-16T11:13:34.240Z</time>
      </trkpt>
      <trkpt lat="44.14561" lon="5.3387">
        <ele>1353.1</ele>
        <time>2026-06-16T11:13:47.685Z</time>
      </trkpt>
      <trkpt lat="44.1461" lon="5.3387">
        <ele>1355.8</ele>
        <time>2026-06-16T11:14:05.284Z</time>
      </trkpt>
      <trkpt lat="44.14616" lon="5.33869">
        <ele>1356</ele>
        <time>2026-06-16T11:14:07.360Z</time>
      </trkpt>
      <trkpt lat="44.14622" lon="5.33865">
        <ele>1355.3</ele>
        <time>2026-06-16T11:14:09.286Z</time>
      </trkpt>
      <trkpt lat="44.14625" lon="5.33858">
        <ele>1354.9</ele>
        <time>2026-06-16T11:14:11.027Z</time>
      </trkpt>
      <trkpt lat="44.14625" lon="5.3385">
        <ele>1355.9</ele>
        <time>2026-06-16T11:14:13.898Z</time>
      </trkpt>
      <trkpt lat="44.14623" lon="5.33843">
        <ele>1356.4</ele>
        <time>2026-06-16T11:14:16.018Z</time>
      </trkpt>
      <trkpt lat="44.14617" lon="5.33837">
        <ele>1355.9</ele>
        <time>2026-06-16T11:14:18.215Z</time>
      </trkpt>
      <trkpt lat="44.14583" lon="5.33817">
        <ele>1355.7</ele>
        <time>2026-06-16T11:14:30.073Z</time>
      </trkpt>
      <trkpt lat="44.14501" lon="5.33766">
        <ele>1359.2</ele>
        <time>2026-06-16T11:15:01.269Z</time>
      </trkpt>
      <trkpt lat="44.14485" lon="5.3375">
        <ele>1359.8</ele>
        <time>2026-06-16T11:15:07.999Z</time>
      </trkpt>
      <trkpt lat="44.14473" lon="5.33729">
        <ele>1360.4</ele>
        <time>2026-06-16T11:15:14.590Z</time>
      </trkpt>
      <trkpt lat="44.14469" lon="5.33717">
        <ele>1360.8</ele>
        <time>2026-06-16T11:15:17.910Z</time>
      </trkpt>
      <trkpt lat="44.14465" lon="5.33688">
        <ele>1361.7</ele>
        <time>2026-06-16T11:15:25.323Z</time>
      </trkpt>
      <trkpt lat="44.14468" lon="5.33655">
        <ele>1362.2</ele>
        <time>2026-06-16T11:15:33.338Z</time>
      </trkpt>
      <trkpt lat="44.14474" lon="5.33622">
        <ele>1363.4</ele>
        <time>2026-06-16T11:15:42.001Z</time>
      </trkpt>
      <trkpt lat="44.14496" lon="5.33542">
        <ele>1366.1</ele>
        <time>2026-06-16T11:16:03.573Z</time>
      </trkpt>
      <trkpt lat="44.14509" lon="5.33498">
        <ele>1367.5</ele>
        <time>2026-06-16T11:16:15.483Z</time>
      </trkpt>
      <trkpt lat="44.14522" lon="5.33469">
        <ele>1368.7</ele>
        <time>2026-06-16T11:16:24.181Z</time>
      </trkpt>
      <trkpt lat="44.14527" lon="5.3346">
        <ele>1369</ele>
        <time>2026-06-16T11:16:27.006Z</time>
      </trkpt>
      <trkpt lat="44.14541" lon="5.33447">
        <ele>1369.7</ele>
        <time>2026-06-16T11:16:32.882Z</time>
      </trkpt>
      <trkpt lat="44.14554" lon="5.33442">
        <ele>1370.4</ele>
        <time>2026-06-16T11:16:37.693Z</time>
      </trkpt>
      <trkpt lat="44.14572" lon="5.33442">
        <ele>1371</ele>
        <time>2026-06-16T11:16:43.878Z</time>
      </trkpt>
      <trkpt lat="44.14637" lon="5.33448">
        <ele>1374.9</ele>
        <time>2026-06-16T11:17:07.518Z</time>
      </trkpt>
      <trkpt lat="44.14692" lon="5.33444">
        <ele>1376.6</ele>
        <time>2026-06-16T11:17:26.353Z</time>
      </trkpt>
      <trkpt lat="44.14743" lon="5.33436">
        <ele>1380.1</ele>
        <time>2026-06-16T11:17:45.329Z</time>
      </trkpt>
      <trkpt lat="44.14842" lon="5.33409">
        <ele>1384.8</ele>
        <time>2026-06-16T11:18:20.919Z</time>
      </trkpt>
      <trkpt lat="44.14857" lon="5.33407">
        <ele>1386.3</ele>
        <time>2026-06-16T11:18:26.934Z</time>
      </trkpt>
      <trkpt lat="44.14881" lon="5.33407">
        <ele>1387.6</ele>
        <time>2026-06-16T11:18:35.537Z</time>
      </trkpt>
      <trkpt lat="44.14918" lon="5.33423">
        <ele>1391.3</ele>
        <time>2026-06-16T11:18:50.841Z</time>
      </trkpt>
      <trkpt lat="44.14927" lon="5.33425">
        <ele>1392.4</ele>
        <time>2026-06-16T11:18:54.694Z</time>
      </trkpt>
      <trkpt lat="44.14934" lon="5.33424">
        <ele>1392.4</ele>
        <time>2026-06-16T11:18:56.975Z</time>
      </trkpt>
      <trkpt lat="44.14939" lon="5.33421">
        <ele>1391.8</ele>
        <time>2026-06-16T11:18:58.548Z</time>
      </trkpt>
      <trkpt lat="44.14942" lon="5.33414">
        <ele>1391.2</ele>
        <time>2026-06-16T11:19:00.245Z</time>
      </trkpt>
      <trkpt lat="44.14942" lon="5.33404">
        <ele>1392.4</ele>
        <time>2026-06-16T11:19:03.750Z</time>
      </trkpt>
      <trkpt lat="44.14915" lon="5.3336">
        <ele>1392.6</ele>
        <time>2026-06-16T11:19:17.316Z</time>
      </trkpt>
      <trkpt lat="44.14887" lon="5.333">
        <ele>1394.8</ele>
        <time>2026-06-16T11:19:35.297Z</time>
      </trkpt>
      <trkpt lat="44.14885" lon="5.33293">
        <ele>1394.8</ele>
        <time>2026-06-16T11:19:37.049Z</time>
      </trkpt>
      <trkpt lat="44.14886" lon="5.33281">
        <ele>1395.7</ele>
        <time>2026-06-16T11:19:40.548Z</time>
      </trkpt>
      <trkpt lat="44.14892" lon="5.33272">
        <ele>1395.1</ele>
        <time>2026-06-16T11:19:43.171Z</time>
      </trkpt>
      <trkpt lat="44.14897" lon="5.33269">
        <ele>1394.7</ele>
        <time>2026-06-16T11:19:44.782Z</time>
      </trkpt>
      <trkpt lat="44.14922" lon="5.33266">
        <ele>1395.2</ele>
        <time>2026-06-16T11:19:53.192Z</time>
      </trkpt>
      <trkpt lat="44.14929" lon="5.33264">
        <ele>1395.6</ele>
        <time>2026-06-16T11:19:55.763Z</time>
      </trkpt>
      <trkpt lat="44.14935" lon="5.3326">
        <ele>1395.7</ele>
        <time>2026-06-16T11:19:57.973Z</time>
      </trkpt>
      <trkpt lat="44.14938" lon="5.33255">
        <ele>1395.4</ele>
        <time>2026-06-16T11:19:59.370Z</time>
      </trkpt>
      <trkpt lat="44.14941" lon="5.33249">
        <ele>1395.3</ele>
        <time>2026-06-16T11:20:01.022Z</time>
      </trkpt>
      <trkpt lat="44.14943" lon="5.33239">
        <ele>1395.9</ele>
        <time>2026-06-16T11:20:03.857Z</time>
      </trkpt>
      <trkpt lat="44.14941" lon="5.33213">
        <ele>1396</ele>
        <time>2026-06-16T11:20:09.990Z</time>
      </trkpt>
      <trkpt lat="44.14935" lon="5.33182">
        <ele>1396.9</ele>
        <time>2026-06-16T11:20:17.995Z</time>
      </trkpt>
      <trkpt lat="44.1491" lon="5.33105">
        <ele>1396.1</ele>
        <time>2026-06-16T11:20:37.253Z</time>
      </trkpt>
      <trkpt lat="44.14892" lon="5.33028">
        <ele>1397.4</ele>
        <time>2026-06-16T11:20:56.814Z</time>
      </trkpt>
      <trkpt lat="44.14888" lon="5.33">
        <ele>1398.4</ele>
        <time>2026-06-16T11:21:04.074Z</time>
      </trkpt>
      <trkpt lat="44.14888" lon="5.32981">
        <ele>1398.4</ele>
        <time>2026-06-16T11:21:08.492Z</time>
      </trkpt>
      <trkpt lat="44.14896" lon="5.32915">
        <ele>1397.4</ele>
        <time>2026-06-16T11:21:23.579Z</time>
      </trkpt>
      <trkpt lat="44.149" lon="5.3283">
        <ele>1399.8</ele>
        <time>2026-06-16T11:21:44.826Z</time>
      </trkpt>
      <trkpt lat="44.14899" lon="5.3281">
        <ele>1400.5</ele>
        <time>2026-06-16T11:21:49.923Z</time>
      </trkpt>
      <trkpt lat="44.14876" lon="5.32739">
        <ele>1396.9</ele>
        <time>2026-06-16T11:22:06.609Z</time>
      </trkpt>
      <trkpt lat="44.14874" lon="5.32725">
        <ele>1397.8</ele>
        <time>2026-06-16T11:22:10.578Z</time>
      </trkpt>
      <trkpt lat="44.14874" lon="5.32714">
        <ele>1398.2</ele>
        <time>2026-06-16T11:22:13.386Z</time>
      </trkpt>
      <trkpt lat="44.14876" lon="5.32703">
        <ele>1398.8</ele>
        <time>2026-06-16T11:22:16.435Z</time>
      </trkpt>
      <trkpt lat="44.14879" lon="5.32695">
        <ele>1399.5</ele>
        <time>2026-06-16T11:22:19.080Z</time>
      </trkpt>
      <trkpt lat="44.14889" lon="5.32682">
        <ele>1400.2</ele>
        <time>2026-06-16T11:22:23.951Z</time>
      </trkpt>
      <trkpt lat="44.14903" lon="5.32679">
        <ele>1399.3</ele>
        <time>2026-06-16T11:22:28.183Z</time>
      </trkpt>
      <trkpt lat="44.14921" lon="5.32684">
        <ele>1400.1</ele>
        <time>2026-06-16T11:22:34.619Z</time>
      </trkpt>
      <trkpt lat="44.15009" lon="5.3273">
        <ele>1402.1</ele>
        <time>2026-06-16T11:23:06.195Z</time>
      </trkpt>
      <trkpt lat="44.15094" lon="5.32765">
        <ele>1402.7</ele>
        <time>2026-06-16T11:23:35.233Z</time>
      </trkpt>
      <trkpt lat="44.15133" lon="5.32777">
        <ele>1402.1</ele>
        <time>2026-06-16T11:23:47.882Z</time>
      </trkpt>
      <trkpt lat="44.15191" lon="5.32787">
        <ele>1404.1</ele>
        <time>2026-06-16T11:24:07.997Z</time>
      </trkpt>
      <trkpt lat="44.15235" lon="5.3279">
        <ele>1404.1</ele>
        <time>2026-06-16T11:24:22.272Z</time>
      </trkpt>
      <trkpt lat="44.15317" lon="5.32789">
        <ele>1406.1</ele>
        <time>2026-06-16T11:24:49.978Z</time>
      </trkpt>
      <trkpt lat="44.15321" lon="5.32788">
        <ele>1406.1</ele>
        <time>2026-06-16T11:24:51.295Z</time>
      </trkpt>
      <trkpt lat="44.15327" lon="5.32783">
        <ele>1405.1</ele>
        <time>2026-06-16T11:24:53.297Z</time>
      </trkpt>
      <trkpt lat="44.15329" lon="5.3278">
        <ele>1404.3</ele>
        <time>2026-06-16T11:24:54.233Z</time>
      </trkpt>
      <trkpt lat="44.15331" lon="5.32771">
        <ele>1404.5</ele>
        <time>2026-06-16T11:24:56.539Z</time>
      </trkpt>
      <trkpt lat="44.1533" lon="5.32764">
        <ele>1405.1</ele>
        <time>2026-06-16T11:24:58.683Z</time>
      </trkpt>
      <trkpt lat="44.15326" lon="5.32756">
        <ele>1405.6</ele>
        <time>2026-06-16T11:25:01.289Z</time>
      </trkpt>
      <trkpt lat="44.15321" lon="5.32753">
        <ele>1405.3</ele>
        <time>2026-06-16T11:25:02.930Z</time>
      </trkpt>
      <trkpt lat="44.15242" lon="5.32711">
        <ele>1406</ele>
        <time>2026-06-16T11:25:30.701Z</time>
      </trkpt>
      <trkpt lat="44.15223" lon="5.32699">
        <ele>1404.6</ele>
        <time>2026-06-16T11:25:36.912Z</time>
      </trkpt>
      <trkpt lat="44.15177" lon="5.32666">
        <ele>1406.2</ele>
        <time>2026-06-16T11:25:54.607Z</time>
      </trkpt>
      <trkpt lat="44.15154" lon="5.32637">
        <ele>1406.9</ele>
        <time>2026-06-16T11:26:05.051Z</time>
      </trkpt>
      <trkpt lat="44.15105" lon="5.32556">
        <ele>1408.5</ele>
        <time>2026-06-16T11:26:30.580Z</time>
      </trkpt>
      <trkpt lat="44.15075" lon="5.32518">
        <ele>1408.3</ele>
        <time>2026-06-16T11:26:43.614Z</time>
      </trkpt>
      <trkpt lat="44.15041" lon="5.32479">
        <ele>1409.4</ele>
        <time>2026-06-16T11:26:58.509Z</time>
      </trkpt>
      <trkpt lat="44.15009" lon="5.32449">
        <ele>1409.1</ele>
        <time>2026-06-16T11:27:10.855Z</time>
      </trkpt>
      <trkpt lat="44.1493" lon="5.32384">
        <ele>1409.2</ele>
        <time>2026-06-16T11:27:40.633Z</time>
      </trkpt>
      <trkpt lat="44.14874" lon="5.32351">
        <ele>1409.7</ele>
        <time>2026-06-16T11:28:00.601Z</time>
      </trkpt>
      <trkpt lat="44.14858" lon="5.32336">
        <ele>1410.1</ele>
        <time>2026-06-16T11:28:07.073Z</time>
      </trkpt>
      <trkpt lat="44.14849" lon="5.32323">
        <ele>1410.2</ele>
        <time>2026-06-16T11:28:11.327Z</time>
      </trkpt>
      <trkpt lat="44.14842" lon="5.32309">
        <ele>1410.6</ele>
        <time>2026-06-16T11:28:15.528Z</time>
      </trkpt>
      <trkpt lat="44.14834" lon="5.32281">
        <ele>1411</ele>
        <time>2026-06-16T11:28:22.758Z</time>
      </trkpt>
      <trkpt lat="44.14831" lon="5.32263">
        <ele>1411.3</ele>
        <time>2026-06-16T11:28:27.223Z</time>
      </trkpt>
      <trkpt lat="44.14832" lon="5.32234">
        <ele>1411.9</ele>
        <time>2026-06-16T11:28:34.320Z</time>
      </trkpt>
      <trkpt lat="44.14835" lon="5.32218">
        <ele>1412</ele>
        <time>2026-06-16T11:28:38.218Z</time>
      </trkpt>
      <trkpt lat="44.14841" lon="5.32198">
        <ele>1412</ele>
        <time>2026-06-16T11:28:43.258Z</time>
      </trkpt>
      <trkpt lat="44.14874" lon="5.3212">
        <ele>1413.2</ele>
        <time>2026-06-16T11:29:04.977Z</time>
      </trkpt>
      <trkpt lat="44.14887" lon="5.32077">
        <ele>1413.4</ele>
        <time>2026-06-16T11:29:15.932Z</time>
      </trkpt>
      <trkpt lat="44.14893" lon="5.32044">
        <ele>1413.7</ele>
        <time>2026-06-16T11:29:24.009Z</time>
      </trkpt>
      <trkpt lat="44.14896" lon="5.32008">
        <ele>1413.8</ele>
        <time>2026-06-16T11:29:32.488Z</time>
      </trkpt>
      <trkpt lat="44.14896" lon="5.31927">
        <ele>1415</ele>
        <time>2026-06-16T11:29:51.992Z</time>
      </trkpt>
      <trkpt lat="44.14901" lon="5.31859">
        <ele>1415.1</ele>
        <time>2026-06-16T11:30:07.937Z</time>
      </trkpt>
      <trkpt lat="44.14905" lon="5.31831">
        <ele>1414.8</ele>
        <time>2026-06-16T11:30:14.428Z</time>
      </trkpt>
      <trkpt lat="44.14914" lon="5.31799">
        <ele>1415.3</ele>
        <time>2026-06-16T11:30:22.699Z</time>
      </trkpt>
      <trkpt lat="44.1492" lon="5.31785">
        <ele>1415.7</ele>
        <time>2026-06-16T11:30:26.726Z</time>
      </trkpt>
      <trkpt lat="44.14926" lon="5.31775">
        <ele>1415.7</ele>
        <time>2026-06-16T11:30:29.757Z</time>
      </trkpt>
      <trkpt lat="44.14937" lon="5.31767">
        <ele>1415.7</ele>
        <time>2026-06-16T11:30:33.777Z</time>
      </trkpt>
      <trkpt lat="44.14949" lon="5.31767">
        <ele>1416.1</ele>
        <time>2026-06-16T11:30:37.900Z</time>
      </trkpt>
      <trkpt lat="44.15078" lon="5.31813">
        <ele>1418.7</ele>
        <time>2026-06-16T11:31:22.495Z</time>
      </trkpt>
      <trkpt lat="44.15095" lon="5.31823">
        <ele>1418.1</ele>
        <time>2026-06-16T11:31:28.202Z</time>
      </trkpt>
      <trkpt lat="44.15131" lon="5.31849">
        <ele>1418.6</ele>
        <time>2026-06-16T11:31:41.611Z</time>
      </trkpt>
      <trkpt lat="44.15175" lon="5.31885">
        <ele>1420.8</ele>
        <time>2026-06-16T11:31:59.485Z</time>
      </trkpt>
      <trkpt lat="44.15183" lon="5.31893">
        <ele>1421.5</ele>
        <time>2026-06-16T11:32:03.149Z</time>
      </trkpt>
      <trkpt lat="44.15189" lon="5.31896">
        <ele>1421.3</ele>
        <time>2026-06-16T11:32:05.124Z</time>
      </trkpt>
      <trkpt lat="44.15195" lon="5.31894">
        <ele>1419.6</ele>
        <time>2026-06-16T11:32:07.102Z</time>
      </trkpt>
      <trkpt lat="44.15197" lon="5.31886">
        <ele>1417.9</ele>
        <time>2026-06-16T11:32:09.069Z</time>
      </trkpt>
      <trkpt lat="44.15203" lon="5.31886">
        <ele>1418</ele>
        <time>2026-06-16T11:32:11.068Z</time>
      </trkpt>
      <trkpt lat="44.15204" lon="5.31889">
        <ele>1418</ele>
        <time>2026-06-16T11:32:11.837Z</time>
        <extensions>
          <visugpx:TrkExtension xmlns:visugpx="https://www.visugpx.com/editgpx/">
            <visugpx:node>7</visugpx:node>
            </visugpx:TrkExtension>
        </extensions>
      </trkpt>
      <trkpt lat="44.15203" lon="5.31886">
        <ele>1418</ele>
        <time>2026-06-16T11:32:12.606Z</time>
      </trkpt>
      <trkpt lat="44.15213" lon="5.31879">
        <ele>1418.1</ele>
        <time>2026-06-16T11:32:16.286Z</time>
      </trkpt>
      <trkpt lat="44.1522" lon="5.31869">
        <ele>1418.6</ele>
        <time>2026-06-16T11:32:19.846Z</time>
      </trkpt>
      <trkpt lat="44.15223" lon="5.31855">
        <ele>1419.8</ele>
        <time>2026-06-16T11:32:24.203Z</time>
      </trkpt>
      <trkpt lat="44.15222" lon="5.3184">
        <ele>1420.5</ele>
        <time>2026-06-16T11:32:28.168Z</time>
      </trkpt>
      <trkpt lat="44.15191" lon="5.31734">
        <ele>1427.1</ele>
        <time>2026-06-16T11:32:59.412Z</time>
      </trkpt>
      <trkpt lat="44.15157" lon="5.31643">
        <ele>1432.9</ele>
        <time>2026-06-16T11:33:27.312Z</time>
      </trkpt>
      <trkpt lat="44.15118" lon="5.315">
        <ele>1442.2</ele>
        <time>2026-06-16T11:34:09.515Z</time>
      </trkpt>
      <trkpt lat="44.15115" lon="5.31491">
        <ele>1442.8</ele>
        <time>2026-06-16T11:34:12.250Z</time>
      </trkpt>
      <trkpt lat="44.15096" lon="5.31455">
        <ele>1444.1</ele>
        <time>2026-06-16T11:34:23.425Z</time>
      </trkpt>
      <trkpt lat="44.15091" lon="5.3144">
        <ele>1445.4</ele>
        <time>2026-06-16T11:34:28.290Z</time>
      </trkpt>
      <trkpt lat="44.1509" lon="5.31426">
        <ele>1446.3</ele>
        <time>2026-06-16T11:34:32.214Z</time>
      </trkpt>
      <trkpt lat="44.15092" lon="5.31413">
        <ele>1447.3</ele>
        <time>2026-06-16T11:34:36.075Z</time>
      </trkpt>
      <trkpt lat="44.15098" lon="5.314">
        <ele>1448.4</ele>
        <time>2026-06-16T11:34:40.498Z</time>
      </trkpt>
      <trkpt lat="44.15108" lon="5.31386">
        <ele>1449.8</ele>
        <time>2026-06-16T11:34:46.145Z</time>
      </trkpt>
      <trkpt lat="44.15137" lon="5.31359">
        <ele>1452.8</ele>
        <time>2026-06-16T11:34:59.597Z</time>
      </trkpt>
      <trkpt lat="44.15145" lon="5.31353">
        <ele>1453.4</ele>
        <time>2026-06-16T11:35:02.939Z</time>
      </trkpt>
      <trkpt lat="44.15154" lon="5.31349">
        <ele>1454.2</ele>
        <time>2026-06-16T11:35:06.571Z</time>
      </trkpt>
      <trkpt lat="44.15163" lon="5.31348">
        <ele>1455.1</ele>
        <time>2026-06-16T11:35:10.176Z</time>
      </trkpt>
      <trkpt lat="44.15174" lon="5.31349">
        <ele>1456.1</ele>
        <time>2026-06-16T11:35:14.478Z</time>
      </trkpt>
      <trkpt lat="44.15228" lon="5.31361">
        <ele>1461.4</ele>
        <time>2026-06-16T11:35:36.158Z</time>
      </trkpt>
      <trkpt lat="44.15248" lon="5.31372">
        <ele>1463.6</ele>
        <time>2026-06-16T11:35:44.804Z</time>
      </trkpt>
      <trkpt lat="44.15258" lon="5.3138">
        <ele>1464</ele>
        <time>2026-06-16T11:35:48.776Z</time>
      </trkpt>
      <trkpt lat="44.15277" lon="5.31402">
        <ele>1466.4</ele>
        <time>2026-06-16T11:35:58.576Z</time>
      </trkpt>
      <trkpt lat="44.15297" lon="5.31429">
        <ele>1469.2</ele>
        <time>2026-06-16T11:36:09.720Z</time>
      </trkpt>
      <trkpt lat="44.15321" lon="5.31447">
        <ele>1471.8</ele>
        <time>2026-06-16T11:36:20.483Z</time>
      </trkpt>
      <trkpt lat="44.15379" lon="5.31475">
        <ele>1476.4</ele>
        <time>2026-06-16T11:36:43.535Z</time>
      </trkpt>
      <trkpt lat="44.15477" lon="5.31543">
        <ele>1487.4</ele>
        <time>2026-06-16T11:37:27.342Z</time>
      </trkpt>
      <trkpt lat="44.15484" lon="5.31545">
        <ele>1487.9</ele>
        <time>2026-06-16T11:37:29.994Z</time>
      </trkpt>
      <trkpt lat="44.1549" lon="5.31544">
        <ele>1487.9</ele>
        <time>2026-06-16T11:37:31.952Z</time>
      </trkpt>
      <trkpt lat="44.15494" lon="5.31541">
        <ele>1487.7</ele>
        <time>2026-06-16T11:37:33.338Z</time>
      </trkpt>
      <trkpt lat="44.15498" lon="5.31532">
        <ele>1487.1</ele>
        <time>2026-06-16T11:37:35.577Z</time>
      </trkpt>
      <trkpt lat="44.15497" lon="5.31524">
        <ele>1487.3</ele>
        <time>2026-06-16T11:37:37.582Z</time>
      </trkpt>
      <trkpt lat="44.15484" lon="5.31491">
        <ele>1488.4</ele>
        <time>2026-06-16T11:37:46.999Z</time>
      </trkpt>
      <trkpt lat="44.15478" lon="5.3146">
        <ele>1489.7</ele>
        <time>2026-06-16T11:37:55.297Z</time>
      </trkpt>
      <trkpt lat="44.15478" lon="5.31437">
        <ele>1490.6</ele>
        <time>2026-06-16T11:38:01.216Z</time>
      </trkpt>
      <trkpt lat="44.15479" lon="5.31389">
        <ele>1491.5</ele>
        <time>2026-06-16T11:38:12.894Z</time>
      </trkpt>
      <trkpt lat="44.15486" lon="5.31295">
        <ele>1496.5</ele>
        <time>2026-06-16T11:38:38.287Z</time>
      </trkpt>
      <trkpt lat="44.15491" lon="5.31258">
        <ele>1497.8</ele>
        <time>2026-06-16T11:38:47.847Z</time>
      </trkpt>
      <trkpt lat="44.155" lon="5.31237">
        <ele>1499</ele>
        <time>2026-06-16T11:38:54.339Z</time>
      </trkpt>
      <trkpt lat="44.15511" lon="5.31224">
        <ele>1500.3</ele>
        <time>2026-06-16T11:38:59.959Z</time>
      </trkpt>
      <trkpt lat="44.15524" lon="5.31219">
        <ele>1501.4</ele>
        <time>2026-06-16T11:39:05.104Z</time>
      </trkpt>
      <trkpt lat="44.15531" lon="5.31218">
        <ele>1501.7</ele>
        <time>2026-06-16T11:39:07.567Z</time>
      </trkpt>
      <trkpt lat="44.15545" lon="5.31221">
        <ele>1502.3</ele>
        <time>2026-06-16T11:39:12.521Z</time>
      </trkpt>
      <trkpt lat="44.15606" lon="5.31265">
        <ele>1506.9</ele>
        <time>2026-06-16T11:39:37.846Z</time>
      </trkpt>
      <trkpt lat="44.15623" lon="5.31275">
        <ele>1507.8</ele>
        <time>2026-06-16T11:39:44.385Z</time>
      </trkpt>
      <trkpt lat="44.15693" lon="5.31305">
        <ele>1510.9</ele>
        <time>2026-06-16T11:40:09.999Z</time>
      </trkpt>
      <trkpt lat="44.15711" lon="5.31315">
        <ele>1513.1</ele>
        <time>2026-06-16T11:40:18.030Z</time>
      </trkpt>
      <trkpt lat="44.15748" lon="5.31344">
        <ele>1516.4</ele>
        <time>2026-06-16T11:40:34.078Z</time>
      </trkpt>
      <trkpt lat="44.15755" lon="5.31346">
        <ele>1516.9</ele>
        <time>2026-06-16T11:40:36.731Z</time>
      </trkpt>
      <trkpt lat="44.15763" lon="5.31345">
        <ele>1517</ele>
        <time>2026-06-16T11:40:39.387Z</time>
      </trkpt>
      <trkpt lat="44.15769" lon="5.31343">
        <ele>1516.9</ele>
        <time>2026-06-16T11:40:41.338Z</time>
      </trkpt>
      <trkpt lat="44.15775" lon="5.31337">
        <ele>1516.3</ele>
        <time>2026-06-16T11:40:43.511Z</time>
      </trkpt>
      <trkpt lat="44.1578" lon="5.31327">
        <ele>1516.8</ele>
        <time>2026-06-16T11:40:46.666Z</time>
      </trkpt>
      <trkpt lat="44.15782" lon="5.31307">
        <ele>1518.3</ele>
        <time>2026-06-16T11:40:52.510Z</time>
      </trkpt>
      <trkpt lat="44.15778" lon="5.31221">
        <ele>1522.2</ele>
        <time>2026-06-16T11:41:15.108Z</time>
      </trkpt>
      <trkpt lat="44.15775" lon="5.3121">
        <ele>1522.8</ele>
        <time>2026-06-16T11:41:18.250Z</time>
      </trkpt>
      <trkpt lat="44.15753" lon="5.31151">
        <ele>1527.6</ele>
        <time>2026-06-16T11:41:37.346Z</time>
      </trkpt>
      <trkpt lat="44.15747" lon="5.31129">
        <ele>1528</ele>
        <time>2026-06-16T11:41:43.044Z</time>
      </trkpt>
      <trkpt lat="44.15743" lon="5.31103">
        <ele>1530</ele>
        <time>2026-06-16T11:41:50.766Z</time>
      </trkpt>
      <trkpt lat="44.1574" lon="5.31076">
        <ele>1532.7</ele>
        <time>2026-06-16T11:41:59.480Z</time>
      </trkpt>
      <trkpt lat="44.15741" lon="5.31048">
        <ele>1534.8</ele>
        <time>2026-06-16T11:42:07.612Z</time>
      </trkpt>
      <trkpt lat="44.15743" lon="5.31022">
        <ele>1535.5</ele>
        <time>2026-06-16T11:42:14.108Z</time>
      </trkpt>
      <trkpt lat="44.15756" lon="5.3096">
        <ele>1539.8</ele>
        <time>2026-06-16T11:42:32.288Z</time>
      </trkpt>
      <trkpt lat="44.15772" lon="5.30912">
        <ele>1542.5</ele>
        <time>2026-06-16T11:42:46.422Z</time>
      </trkpt>
      <trkpt lat="44.15784" lon="5.30888">
        <ele>1545.3</ele>
        <time>2026-06-16T11:42:55.631Z</time>
      </trkpt>
      <trkpt lat="44.15794" lon="5.30872">
        <ele>1545.9</ele>
        <time>2026-06-16T11:43:00.924Z</time>
      </trkpt>
      <trkpt lat="44.15814" lon="5.30851">
        <ele>1548.4</ele>
        <time>2026-06-16T11:43:10.927Z</time>
      </trkpt>
      <trkpt lat="44.15831" lon="5.30838">
        <ele>1550.3</ele>
        <time>2026-06-16T11:43:18.636Z</time>
      </trkpt>
      <trkpt lat="44.15868" lon="5.30819">
        <ele>1553.6</ele>
        <time>2026-06-16T11:43:33.759Z</time>
      </trkpt>
      <trkpt lat="44.15886" lon="5.30813">
        <ele>1555.2</ele>
        <time>2026-06-16T11:43:40.905Z</time>
      </trkpt>
      <trkpt lat="44.15904" lon="5.30811">
        <ele>1556.4</ele>
        <time>2026-06-16T11:43:47.555Z</time>
      </trkpt>
      <trkpt lat="44.15922" lon="5.3081">
        <ele>1557.5</ele>
        <time>2026-06-16T11:43:54.110Z</time>
      </trkpt>
      <trkpt lat="44.16008" lon="5.30822">
        <ele>1564.4</ele>
        <time>2026-06-16T11:44:26.948Z</time>
      </trkpt>
      <trkpt lat="44.1602" lon="5.30818">
        <ele>1564.9</ele>
        <time>2026-06-16T11:44:31.248Z</time>
      </trkpt>
      <trkpt lat="44.16024" lon="5.30814">
        <ele>1564.8</ele>
        <time>2026-06-16T11:44:32.796Z</time>
      </trkpt>
      <trkpt lat="44.16027" lon="5.30807">
        <ele>1564.1</ele>
        <time>2026-06-16T11:44:34.480Z</time>
      </trkpt>
      <trkpt lat="44.16028" lon="5.30798">
        <ele>1564.3</ele>
        <time>2026-06-16T11:44:36.713Z</time>
      </trkpt>
      <trkpt lat="44.16026" lon="5.30786">
        <ele>1564.3</ele>
        <time>2026-06-16T11:44:39.577Z</time>
      </trkpt>
      <trkpt lat="44.16023" lon="5.30776">
        <ele>1564.1</ele>
        <time>2026-06-16T11:44:42.003Z</time>
      </trkpt>
      <trkpt lat="44.16" lon="5.30726">
        <ele>1568.5</ele>
        <time>2026-06-16T11:44:59.179Z</time>
      </trkpt>
      <trkpt lat="44.15992" lon="5.30705">
        <ele>1569.1</ele>
        <time>2026-06-16T11:45:05.061Z</time>
      </trkpt>
      <trkpt lat="44.15984" lon="5.30674">
        <ele>1572.1</ele>
        <time>2026-06-16T11:45:15.236Z</time>
      </trkpt>
      <trkpt lat="44.15965" lon="5.3058">
        <ele>1576.6</ele>
        <time>2026-06-16T11:45:40.909Z</time>
      </trkpt>
      <trkpt lat="44.15961" lon="5.30544">
        <ele>1579.4</ele>
        <time>2026-06-16T11:45:51.553Z</time>
      </trkpt>
      <trkpt lat="44.15964" lon="5.30504">
        <ele>1581.8</ele>
        <time>2026-06-16T11:46:02.605Z</time>
      </trkpt>
      <trkpt lat="44.16002" lon="5.30326">
        <ele>1592.8</ele>
        <time>2026-06-16T11:46:53.561Z</time>
      </trkpt>
      <trkpt lat="44.16038" lon="5.30227">
        <ele>1599.3</ele>
        <time>2026-06-16T11:47:23.946Z</time>
      </trkpt>
      <trkpt lat="44.16058" lon="5.30176">
        <ele>1602.6</ele>
        <time>2026-06-16T11:47:39.762Z</time>
      </trkpt>
      <trkpt lat="44.16072" lon="5.30149">
        <ele>1604</ele>
        <time>2026-06-16T11:47:48.411Z</time>
      </trkpt>
      <trkpt lat="44.16089" lon="5.30128">
        <ele>1606.4</ele>
        <time>2026-06-16T11:47:57.626Z</time>
      </trkpt>
      <trkpt lat="44.16107" lon="5.3011">
        <ele>1608.2</ele>
        <time>2026-06-16T11:48:06.071Z</time>
      </trkpt>
      <trkpt lat="44.16129" lon="5.30092">
        <ele>1611.1</ele>
        <time>2026-06-16T11:48:16.648Z</time>
      </trkpt>
      <trkpt lat="44.16141" lon="5.30083">
        <ele>1612.2</ele>
        <time>2026-06-16T11:48:21.837Z</time>
      </trkpt>
      <trkpt lat="44.16164" lon="5.30073">
        <ele>1614.3</ele>
        <time>2026-06-16T11:48:31.156Z</time>
      </trkpt>
      <trkpt lat="44.16174" lon="5.30073">
        <ele>1615.2</ele>
        <time>2026-06-16T11:48:35.052Z</time>
      </trkpt>
      <trkpt lat="44.16182" lon="5.30075">
        <ele>1616</ele>
        <time>2026-06-16T11:48:38.287Z</time>
      </trkpt>
      <trkpt lat="44.16189" lon="5.30081">
        <ele>1617.2</ele>
        <time>2026-06-16T11:48:42.034Z</time>
      </trkpt>
      <trkpt lat="44.16197" lon="5.30091">
        <ele>1618.5</ele>
        <time>2026-06-16T11:48:46.581Z</time>
      </trkpt>
      <trkpt lat="44.16267" lon="5.3022">
        <ele>1629.8</ele>
        <time>2026-06-16T11:49:32.641Z</time>
      </trkpt>
      <trkpt lat="44.16276" lon="5.30233">
        <ele>1630.4</ele>
        <time>2026-06-16T11:49:37.210Z</time>
      </trkpt>
      <trkpt lat="44.16291" lon="5.3025">
        <ele>1632</ele>
        <time>2026-06-16T11:49:44.608Z</time>
      </trkpt>
      <trkpt lat="44.16298" lon="5.30253">
        <ele>1632.8</ele>
        <time>2026-06-16T11:49:47.607Z</time>
      </trkpt>
      <trkpt lat="44.16304" lon="5.30253">
        <ele>1632.8</ele>
        <time>2026-06-16T11:49:49.552Z</time>
      </trkpt>
      <trkpt lat="44.16315" lon="5.3025">
        <ele>1633.4</ele>
        <time>2026-06-16T11:49:53.564Z</time>
      </trkpt>
      <trkpt lat="44.16324" lon="5.30244">
        <ele>1633.4</ele>
        <time>2026-06-16T11:49:56.796Z</time>
      </trkpt>
      <trkpt lat="44.16369" lon="5.30213">
        <ele>1635.6</ele>
        <time>2026-06-16T11:50:14.406Z</time>
      </trkpt>
      <trkpt lat="44.16384" lon="5.30197">
        <ele>1637.1</ele>
        <time>2026-06-16T11:50:21.575Z</time>
      </trkpt>
      <trkpt lat="44.1639" lon="5.30189">
        <ele>1638</ele>
        <time>2026-06-16T11:50:24.968Z</time>
      </trkpt>
      <trkpt lat="44.164" lon="5.30167">
        <ele>1640</ele>
        <time>2026-06-16T11:50:32.576Z</time>
      </trkpt>
      <trkpt lat="44.1645" lon="5.30019">
        <ele>1648.6</ele>
        <time>2026-06-16T11:51:16.477Z</time>
      </trkpt>
      <trkpt lat="44.16462" lon="5.29989">
        <ele>1650.8</ele>
        <time>2026-06-16T11:51:26.058Z</time>
      </trkpt>
      <trkpt lat="44.16505" lon="5.29894">
        <ele>1659</ele>
        <time>2026-06-16T11:51:58.412Z</time>
      </trkpt>
      <trkpt lat="44.16514" lon="5.29863">
        <ele>1660.7</ele>
        <time>2026-06-16T11:52:07.336Z</time>
      </trkpt>
      <trkpt lat="44.16534" lon="5.29766">
        <ele>1667</ele>
        <time>2026-06-16T11:52:35.330Z</time>
      </trkpt>
      <trkpt lat="44.16544" lon="5.2973">
        <ele>1667.7</ele>
        <time>2026-06-16T11:52:44.702Z</time>
      </trkpt>
      <trkpt lat="44.16551" lon="5.29717">
        <ele>1668.4</ele>
        <time>2026-06-16T11:52:48.935Z</time>
      </trkpt>
      <trkpt lat="44.16569" lon="5.29693">
        <ele>1672.1</ele>
        <time>2026-06-16T11:53:00.384Z</time>
      </trkpt>
      <trkpt lat="44.16577" lon="5.29687">
        <ele>1673.1</ele>
        <time>2026-06-16T11:53:04.113Z</time>
      </trkpt>
      <trkpt lat="44.16698" lon="5.29608">
        <ele>1686.6</ele>
        <time>2026-06-16T11:53:57.658Z</time>
      </trkpt>
      <trkpt lat="44.16734" lon="5.29573">
        <ele>1690.7</ele>
        <time>2026-06-16T11:54:14.903Z</time>
      </trkpt>
      <trkpt lat="44.16747" lon="5.29558">
        <ele>1691.5</ele>
        <time>2026-06-16T11:54:20.867Z</time>
      </trkpt>
      <trkpt lat="44.16757" lon="5.29542">
        <ele>1693.6</ele>
        <time>2026-06-16T11:54:27.638Z</time>
      </trkpt>
      <trkpt lat="44.16763" lon="5.29528">
        <ele>1693.7</ele>
        <time>2026-06-16T11:54:31.482Z</time>
      </trkpt>
      <trkpt lat="44.16768" lon="5.29508">
        <ele>1693.3</ele>
        <time>2026-06-16T11:54:36.219Z</time>
      </trkpt>
      <trkpt lat="44.16768" lon="5.29498">
        <ele>1692.9</ele>
        <time>2026-06-16T11:54:38.379Z</time>
      </trkpt>
      <trkpt lat="44.16764" lon="5.29478">
        <ele>1695.8</ele>
        <time>2026-06-16T11:54:46.396Z</time>
      </trkpt>
      <trkpt lat="44.16759" lon="5.29465">
        <ele>1696.7</ele>
        <time>2026-06-16T11:54:50.468Z</time>
      </trkpt>
      <trkpt lat="44.16719" lon="5.29377">
        <ele>1702.1</ele>
        <time>2026-06-16T11:55:18.358Z</time>
      </trkpt>
      <trkpt lat="44.16713" lon="5.29361">
        <ele>1703.4</ele>
        <time>2026-06-16T11:55:23.539Z</time>
      </trkpt>
      <trkpt lat="44.16708" lon="5.29336">
        <ele>1706.9</ele>
        <time>2026-06-16T11:55:33.317Z</time>
      </trkpt>
      <trkpt lat="44.16705" lon="5.29307">
        <ele>1709.5</ele>
        <time>2026-06-16T11:55:42.281Z</time>
      </trkpt>
      <trkpt lat="44.16708" lon="5.29277">
        <ele>1710.4</ele>
        <time>2026-06-16T11:55:49.867Z</time>
      </trkpt>
      <trkpt lat="44.16716" lon="5.29251">
        <ele>1711.5</ele>
        <time>2026-06-16T11:55:57.142Z</time>
      </trkpt>
      <trkpt lat="44.16722" lon="5.29238">
        <ele>1712.5</ele>
        <time>2026-06-16T11:56:01.463Z</time>
      </trkpt>
      <trkpt lat="44.16738" lon="5.29212">
        <ele>1714.9</ele>
        <time>2026-06-16T11:56:11.224Z</time>
      </trkpt>
      <trkpt lat="44.16746" lon="5.29203">
        <ele>1716</ele>
        <time>2026-06-16T11:56:15.410Z</time>
      </trkpt>
      <trkpt lat="44.16763" lon="5.29189">
        <ele>1717.1</ele>
        <time>2026-06-16T11:56:22.511Z</time>
      </trkpt>
      <trkpt lat="44.16931" lon="5.29119">
        <ele>1737.2</ele>
        <time>2026-06-16T11:57:35.405Z</time>
      </trkpt>
      <trkpt lat="44.1694" lon="5.29111">
        <ele>1736.4</ele>
        <time>2026-06-16T11:57:38.561Z</time>
      </trkpt>
      <trkpt lat="44.16944" lon="5.29103">
        <ele>1737.5</ele>
        <time>2026-06-16T11:57:41.867Z</time>
      </trkpt>
      <trkpt lat="44.16945" lon="5.29096">
        <ele>1738.3</ele>
        <time>2026-06-16T11:57:44.279Z</time>
      </trkpt>
      <trkpt lat="44.16945" lon="5.29088">
        <ele>1738.8</ele>
        <time>2026-06-16T11:57:46.499Z</time>
      </trkpt>
      <trkpt lat="44.16939" lon="5.29072">
        <ele>1740</ele>
        <time>2026-06-16T11:57:51.578Z</time>
      </trkpt>
      <trkpt lat="44.16889" lon="5.29015">
        <ele>1744.3</ele>
        <time>2026-06-16T11:58:15.370Z</time>
      </trkpt>
      <trkpt lat="44.16875" lon="5.28996">
        <ele>1745.4</ele>
        <time>2026-06-16T11:58:22.406Z</time>
      </trkpt>
      <trkpt lat="44.16867" lon="5.28975">
        <ele>1747.9</ele>
        <time>2026-06-16T11:58:30.197Z</time>
      </trkpt>
      <trkpt lat="44.16862" lon="5.28953">
        <ele>1748.6</ele>
        <time>2026-06-16T11:58:35.986Z</time>
      </trkpt>
      <trkpt lat="44.1686" lon="5.28918">
        <ele>1749.7</ele>
        <time>2026-06-16T11:58:44.819Z</time>
      </trkpt>
      <trkpt lat="44.16862" lon="5.28885">
        <ele>1752.4</ele>
        <time>2026-06-16T11:58:54.668Z</time>
      </trkpt>
      <trkpt lat="44.16868" lon="5.28841">
        <ele>1756.3</ele>
        <time>2026-06-16T11:59:08.280Z</time>
      </trkpt>
      <trkpt lat="44.16875" lon="5.28801">
        <ele>1758.8</ele>
        <time>2026-06-16T11:59:19.633Z</time>
      </trkpt>
      <trkpt lat="44.16887" lon="5.28759">
        <ele>1760.8</ele>
        <time>2026-06-16T11:59:31.448Z</time>
      </trkpt>
      <trkpt lat="44.16902" lon="5.28716">
        <ele>1764.4</ele>
        <time>2026-06-16T11:59:45.336Z</time>
      </trkpt>
      <trkpt lat="44.16913" lon="5.28688">
        <ele>1766</ele>
        <time>2026-06-16T11:59:53.835Z</time>
      </trkpt>
      <trkpt lat="44.16926" lon="5.28662">
        <ele>1769</ele>
        <time>2026-06-16T12:00:03.768Z</time>
      </trkpt>
      <trkpt lat="44.16945" lon="5.28631">
        <ele>1771.2</ele>
        <time>2026-06-16T12:00:14.759Z</time>
      </trkpt>
      <trkpt lat="44.16964" lon="5.28605">
        <ele>1774.7</ele>
        <time>2026-06-16T12:00:26.374Z</time>
      </trkpt>
      <trkpt lat="44.16991" lon="5.28577">
        <ele>1778.2</ele>
        <time>2026-06-16T12:00:39.965Z</time>
      </trkpt>
      <trkpt lat="44.17049" lon="5.28526">
        <ele>1786.1</ele>
        <time>2026-06-16T12:01:08.518Z</time>
      </trkpt>
      <trkpt lat="44.1707" lon="5.28502">
        <ele>1789.4</ele>
        <time>2026-06-16T12:01:20.027Z</time>
      </trkpt>
      <trkpt lat="44.17101" lon="5.28458">
        <ele>1794.2</ele>
        <time>2026-06-16T12:01:38.112Z</time>
      </trkpt>
      <trkpt lat="44.17125" lon="5.2844">
        <ele>1796.7</ele>
        <time>2026-06-16T12:01:48.775Z</time>
      </trkpt>
      <trkpt lat="44.17153" lon="5.28428">
        <ele>1800.3</ele>
        <time>2026-06-16T12:02:01.239Z</time>
      </trkpt>
      <trkpt lat="44.17173" lon="5.28424">
        <ele>1802.7</ele>
        <time>2026-06-16T12:02:09.737Z</time>
      </trkpt>
      <trkpt lat="44.17369" lon="5.28393">
        <ele>1824.5</ele>
        <time>2026-06-16T12:03:30.818Z</time>
      </trkpt>
      <trkpt lat="44.17401" lon="5.28384">
        <ele>1827.4</ele>
        <time>2026-06-16T12:03:43.498Z</time>
      </trkpt>
      <trkpt lat="44.17416" lon="5.28375">
        <ele>1829.4</ele>
        <time>2026-06-16T12:03:50.438Z</time>
      </trkpt>
      <trkpt lat="44.17423" lon="5.2836">
        <ele>1828.9</ele>
        <time>2026-06-16T12:03:54.376Z</time>
      </trkpt>
      <trkpt lat="44.17424" lon="5.28335">
        <ele>1830.9</ele>
        <time>2026-06-16T12:04:01.775Z</time>
      </trkpt>
      <trkpt lat="44.17418" lon="5.28289">
        <ele>1836.6</ele>
        <time>2026-06-16T12:04:18.309Z</time>
      </trkpt>
      <trkpt lat="44.17377" lon="5.28076">
        <ele>1855.3</ele>
        <time>2026-06-16T12:05:24.729Z</time>
      </trkpt>
      <trkpt lat="44.17366" lon="5.28049">
        <ele>1857.9</ele>
        <time>2026-06-16T12:05:34.042Z</time>
      </trkpt>
      <trkpt lat="44.17311" lon="5.27938">
        <ele>1868.7</ele>
        <time>2026-06-16T12:06:13.936Z</time>
      </trkpt>
      <trkpt lat="44.17302" lon="5.27916">
        <ele>1868.1</ele>
        <time>2026-06-16T12:06:19.551Z</time>
      </trkpt>
      <trkpt lat="44.17296" lon="5.2789">
        <ele>1871.7</ele>
        <time>2026-06-16T12:06:29.685Z</time>
      </trkpt>
      <trkpt lat="44.17297" lon="5.27841">
        <ele>1876.9</ele>
        <time>2026-06-16T12:06:45.813Z</time>
      </trkpt>
      <trkpt lat="44.17298" lon="5.27828">
        <ele>1877.3</ele>
        <time>2026-06-16T12:06:49.095Z</time>
      </trkpt>
      <trkpt lat="44.17301" lon="5.27811">
        <ele>1877.2</ele>
        <time>2026-06-16T12:06:53.113Z</time>
      </trkpt>
      <trkpt lat="44.17302" lon="5.27805">
        <ele>1877.1</ele>
        <time>2026-06-16T12:06:54.498Z</time>
      </trkpt>
      <trkpt lat="44.17308" lon="5.27787">
        <ele>1879</ele>
        <time>2026-06-16T12:07:00.746Z</time>
      </trkpt>
      <trkpt lat="44.1733" lon="5.27732">
        <ele>1883.5</ele>
        <time>2026-06-16T12:07:18.780Z</time>
      </trkpt>
      <trkpt lat="44.17335" lon="5.27709">
        <ele>1883.7</ele>
        <time>2026-06-16T12:07:24.473Z</time>
      </trkpt>
      <trkpt lat="44.17339" lon="5.27704">
        <ele>1883.7</ele>
        <time>2026-06-16T12:07:26.214Z</time>
      </trkpt>
      <trkpt lat="44.17346" lon="5.27703">
        <ele>1884</ele>
        <time>2026-06-16T12:07:28.677Z</time>
      </trkpt>
      <trkpt lat="44.17349" lon="5.27708">
        <ele>1884.9</ele>
        <time>2026-06-16T12:07:31.173Z</time>
      </trkpt>
      <trkpt lat="44.1735" lon="5.27715">
        <ele>1886</ele>
        <time>2026-06-16T12:07:34.150Z</time>
        <extensions>
          <visugpx:TrkExtension xmlns:visugpx="https://www.visugpx.com/editgpx/">
            <visugpx:node>8</visugpx:node>
            </visugpx:TrkExtension>
        </extensions>
      </trkpt>
      <trkpt lat="44.17351" lon="5.27724">
        <ele>1887.5</ele>
        <time>2026-06-16T12:07:38.181Z</time>
      </trkpt>
      <trkpt lat="44.17352" lon="5.27739">
        <ele>1890.2</ele>
        <time>2026-06-16T12:07:45.450Z</time>
      </trkpt>
      <trkpt lat="44.1735" lon="5.27785">
        <ele>1893.2</ele>
        <time>2026-06-16T12:07:58.351Z</time>
        <extensions>
          <visugpx:TrkExtension xmlns:visugpx="https://www.visugpx.com/editgpx/">
            <visugpx:node>9</visugpx:node>
            </visugpx:TrkExtension>
        </extensions>
      </trkpt>
      <trkpt lat="44.1735" lon="5.27809">
        <ele>1894.8</ele>
        <time>2026-06-16T12:08:05.106Z</time>
      </trkpt>
      <trkpt lat="44.1735" lon="5.2784">
        <ele>1894.8</ele>
        <time>2026-06-16T12:08:12.311Z</time>
      </trkpt>
      <trkpt lat="44.17352" lon="5.27861">
        <ele>1895.4</ele>
        <time>2026-06-16T12:08:17.595Z</time>
      </trkpt>
      <trkpt lat="44.17356" lon="5.27877">
        <ele>1895.7</ele>
        <time>2026-06-16T12:08:21.703Z</time>
      </trkpt>
      <trkpt lat="44.1736" lon="5.27886">
        <ele>1896.7</ele>
        <time>2026-06-16T12:08:25.019Z</time>
      </trkpt>
      <trkpt lat="44.17362" lon="5.27889">
        <ele>1897.1</ele>
        <time>2026-06-16T12:08:26.318Z</time>
        <extensions>
          <visugpx:TrkExtension xmlns:visugpx="https://www.visugpx.com/editgpx/">
            <visugpx:node>10</visugpx:node>
            </visugpx:TrkExtension>
        </extensions>
      </trkpt>
      <trkpt lat="44.17363" lon="5.2789">
        <ele>1897</ele>
        <time>2026-06-16T12:08:26.680Z</time>
      </trkpt>
      <trkpt lat="44.17385" lon="5.2792">
        <ele>1891.7</ele>
        <time>2026-06-16T12:08:35.515Z</time>
      </trkpt>
      <trkpt lat="44.17423" lon="5.27956">
        <ele>1888.7</ele>
        <time>2026-06-16T12:08:49.219Z</time>
      </trkpt>
      <trkpt lat="44.17431" lon="5.27966">
        <ele>1887.5</ele>
        <time>2026-06-16T12:08:52.321Z</time>
      </trkpt>
      <trkpt lat="44.17429" lon="5.27965">
        <ele>1887.6</ele>
        <time>2026-06-16T12:08:53.072Z</time>
        <extensions>
          <visugpx:TrkExtension xmlns:visugpx="https://www.visugpx.com/editgpx/">
            <visugpx:node>11</visugpx:node>
            </visugpx:TrkExtension>
        </extensions>
      </trkpt>
      <trkpt lat="44.17416" lon="5.27959">
        <ele>1887.8</ele>
        <time>2026-06-16T12:08:57.618Z</time>
      </trkpt>
      <trkpt lat="44.17399" lon="5.27949">
        <ele>1887.1</ele>
        <time>2026-06-16T12:09:03.287Z</time>
      </trkpt>
      <trkpt lat="44.17386" lon="5.27939">
        <ele>1887.6</ele>
        <time>2026-06-16T12:09:08.392Z</time>
      </trkpt>
      <trkpt lat="44.1736" lon="5.27915">
        <ele>1889.1</ele>
        <time>2026-06-16T12:09:19.427Z</time>
      </trkpt>
      <trkpt lat="44.17346" lon="5.27895">
        <ele>1889.9</ele>
        <time>2026-06-16T12:09:26.404Z</time>
      </trkpt>
      <trkpt lat="44.17337" lon="5.27876">
        <ele>1889.6</ele>
        <time>2026-06-16T12:09:31.551Z</time>
      </trkpt>
      <trkpt lat="44.17333" lon="5.2786">
        <ele>1889.9</ele>
        <time>2026-06-16T12:09:35.660Z</time>
      </trkpt>
      <trkpt lat="44.1733" lon="5.2784">
        <ele>1888.8</ele>
        <time>2026-06-16T12:09:39.993Z</time>
      </trkpt>
      <trkpt lat="44.1733" lon="5.27827">
        <ele>1888.7</ele>
        <time>2026-06-16T12:09:42.965Z</time>
      </trkpt>
      <trkpt lat="44.17332" lon="5.27804">
        <ele>1889.4</ele>
        <time>2026-06-16T12:09:48.775Z</time>
      </trkpt>
      <trkpt lat="44.17351" lon="5.27724">
        <ele>1887.5</ele>
        <time>2026-06-16T12:10:07.495Z</time>
      </trkpt>
      <trkpt lat="44.17349" lon="5.27708">
        <ele>1884.9</ele>
        <time>2026-06-16T12:10:10.948Z</time>
      </trkpt>
      <trkpt lat="44.17346" lon="5.27703">
        <ele>1884</ele>
        <time>2026-06-16T12:10:12.302Z</time>
      </trkpt>
      <trkpt lat="44.17339" lon="5.27704">
        <ele>1883.7</ele>
        <time>2026-06-16T12:10:14.452Z</time>
      </trkpt>
      <trkpt lat="44.17335" lon="5.27709">
        <ele>1883.7</ele>
        <time>2026-06-16T12:10:16.192Z</time>
      </trkpt>
      <trkpt lat="44.1733" lon="5.27732">
        <ele>1883.5</ele>
        <time>2026-06-16T12:10:21.679Z</time>
      </trkpt>
      <trkpt lat="44.17308" lon="5.27787">
        <ele>1879</ele>
        <time>2026-06-16T12:10:34.804Z</time>
      </trkpt>
      <trkpt lat="44.17302" lon="5.27805">
        <ele>1877.1</ele>
        <time>2026-06-16T12:10:38.887Z</time>
      </trkpt>
      <trkpt lat="44.17301" lon="5.27811">
        <ele>1877.2</ele>
        <time>2026-06-16T12:10:40.375Z</time>
      </trkpt>
      <trkpt lat="44.17298" lon="5.27828">
        <ele>1877.3</ele>
        <time>2026-06-16T12:10:44.497Z</time>
      </trkpt>
      <trkpt lat="44.17297" lon="5.27841">
        <ele>1876.9</ele>
        <time>2026-06-16T12:10:47.361Z</time>
      </trkpt>
      <trkpt lat="44.17296" lon="5.2789">
        <ele>1871.7</ele>
        <time>2026-06-16T12:10:57.426Z</time>
      </trkpt>
      <trkpt lat="44.17302" lon="5.27916">
        <ele>1868.1</ele>
        <time>2026-06-16T12:11:03.073Z</time>
      </trkpt>
      <trkpt lat="44.17311" lon="5.27938">
        <ele>1868.7</ele>
        <time>2026-06-16T12:11:09.311Z</time>
      </trkpt>
      <trkpt lat="44.17366" lon="5.28049">
        <ele>1857.9</ele>
        <time>2026-06-16T12:11:37.256Z</time>
      </trkpt>
      <trkpt lat="44.17377" lon="5.28076">
        <ele>1855.3</ele>
        <time>2026-06-16T12:11:43.674Z</time>
      </trkpt>
      <trkpt lat="44.17418" lon="5.28289">
        <ele>1836.6</ele>
        <time>2026-06-16T12:12:29.231Z</time>
      </trkpt>
      <trkpt lat="44.17424" lon="5.28335">
        <ele>1830.9</ele>
        <time>2026-06-16T12:12:38.852Z</time>
      </trkpt>
      <trkpt lat="44.17423" lon="5.2836">
        <ele>1828.9</ele>
        <time>2026-06-16T12:12:44.039Z</time>
      </trkpt>
      <trkpt lat="44.17416" lon="5.28375">
        <ele>1829.4</ele>
        <time>2026-06-16T12:12:48.498Z</time>
      </trkpt>
      <trkpt lat="44.17401" lon="5.28384">
        <ele>1827.4</ele>
        <time>2026-06-16T12:12:53.194Z</time>
      </trkpt>
      <trkpt lat="44.17369" lon="5.28393">
        <ele>1824.5</ele>
        <time>2026-06-16T12:13:02.746Z</time>
      </trkpt>
      <trkpt lat="44.17173" lon="5.28424">
        <ele>1802.7</ele>
        <time>2026-06-16T12:13:59.742Z</time>
      </trkpt>
      <trkpt lat="44.17153" lon="5.28428">
        <ele>1800.3</ele>
        <time>2026-06-16T12:14:05.560Z</time>
      </trkpt>
      <trkpt lat="44.17125" lon="5.2844">
        <ele>1796.7</ele>
        <time>2026-06-16T12:14:13.983Z</time>
      </trkpt>
      <trkpt lat="44.17101" lon="5.28458">
        <ele>1794.2</ele>
        <time>2026-06-16T12:14:21.941Z</time>
      </trkpt>
      <trkpt lat="44.17083" lon="5.28483">
        <ele>1791.7</ele>
        <time>2026-06-16T12:14:29.330Z</time>
        <extensions>
          <visugpx:TrkExtension xmlns:visugpx="https://www.visugpx.com/editgpx/">
            <visugpx:node>12</visugpx:node>
            </visugpx:TrkExtension>
        </extensions>
      </trkpt>
      <trkpt lat="44.1707" lon="5.28502">
        <ele>1789.4</ele>
        <time>2026-06-16T12:14:34.747Z</time>
      </trkpt>
      <trkpt lat="44.17049" lon="5.28526">
        <ele>1786.1</ele>
        <time>2026-06-16T12:14:42.558Z</time>
      </trkpt>
      <trkpt lat="44.16991" lon="5.28577">
        <ele>1778.2</ele>
        <time>2026-06-16T12:15:02.332Z</time>
      </trkpt>
      <trkpt lat="44.16964" lon="5.28605">
        <ele>1774.7</ele>
        <time>2026-06-16T12:15:12.086Z</time>
      </trkpt>
      <trkpt lat="44.16945" lon="5.28631">
        <ele>1771.2</ele>
        <time>2026-06-16T12:15:19.723Z</time>
      </trkpt>
      <trkpt lat="44.16932" lon="5.28651">
        <ele>1769.4</ele>
        <time>2026-06-16T12:15:25.372Z</time>
        <extensions>
          <visugpx:TrkExtension xmlns:visugpx="https://www.visugpx.com/editgpx/">
            <visugpx:node>13</visugpx:node>
            </visugpx:TrkExtension>
        </extensions>
      </trkpt>
      <trkpt lat="44.16926" lon="5.28662">
        <ele>1769</ele>
        <time>2026-06-16T12:15:28.409Z</time>
      </trkpt>
      <trkpt lat="44.16913" lon="5.28688">
        <ele>1766</ele>
        <time>2026-06-16T12:15:34.929Z</time>
      </trkpt>
      <trkpt lat="44.16902" lon="5.28716">
        <ele>1764.4</ele>
        <time>2026-06-16T12:15:41.731Z</time>
      </trkpt>
      <trkpt lat="44.16887" lon="5.28759">
        <ele>1760.8</ele>
        <time>2026-06-16T12:15:51.668Z</time>
      </trkpt>
      <trkpt lat="44.16875" lon="5.28801">
        <ele>1758.8</ele>
        <time>2026-06-16T12:16:01.374Z</time>
      </trkpt>
      <trkpt lat="44.16868" lon="5.28841">
        <ele>1756.3</ele>
        <time>2026-06-16T12:16:10.042Z</time>
      </trkpt>
      <trkpt lat="44.16862" lon="5.28885">
        <ele>1752.4</ele>
        <time>2026-06-16T12:16:19.284Z</time>
      </trkpt>
      <trkpt lat="44.1686" lon="5.28918">
        <ele>1749.7</ele>
        <time>2026-06-16T12:16:26.138Z</time>
      </trkpt>
      <trkpt lat="44.16862" lon="5.28953">
        <ele>1748.6</ele>
        <time>2026-06-16T12:16:33.823Z</time>
      </trkpt>
      <trkpt lat="44.16867" lon="5.28975">
        <ele>1747.9</ele>
        <time>2026-06-16T12:16:38.882Z</time>
      </trkpt>
      <trkpt lat="44.16875" lon="5.28996">
        <ele>1745.4</ele>
        <time>2026-06-16T12:16:43.764Z</time>
      </trkpt>
      <trkpt lat="44.16889" lon="5.29015">
        <ele>1744.3</ele>
        <time>2026-06-16T12:16:49.644Z</time>
      </trkpt>
      <trkpt lat="44.16939" lon="5.29072">
        <ele>1740</ele>
        <time>2026-06-16T12:17:08.886Z</time>
      </trkpt>
      <trkpt lat="44.16945" lon="5.29088">
        <ele>1738.8</ele>
        <time>2026-06-16T12:17:12.666Z</time>
      </trkpt>
      <trkpt lat="44.16945" lon="5.29096">
        <ele>1738.3</ele>
        <time>2026-06-16T12:17:14.347Z</time>
      </trkpt>
      <trkpt lat="44.16944" lon="5.29103">
        <ele>1737.5</ele>
        <time>2026-06-16T12:17:15.812Z</time>
      </trkpt>
      <trkpt lat="44.1694" lon="5.29111">
        <ele>1736.4</ele>
        <time>2026-06-16T12:17:17.815Z</time>
      </trkpt>
      <trkpt lat="44.16931" lon="5.29119">
        <ele>1737.2</ele>
        <time>2026-06-16T12:17:21.824Z</time>
      </trkpt>
      <trkpt lat="44.16763" lon="5.29189">
        <ele>1717.1</ele>
        <time>2026-06-16T12:18:12.397Z</time>
      </trkpt>
      <trkpt lat="44.16746" lon="5.29203">
        <ele>1716</ele>
        <time>2026-06-16T12:18:18.342Z</time>
      </trkpt>
      <trkpt lat="44.16738" lon="5.29212">
        <ele>1714.9</ele>
        <time>2026-06-16T12:18:21.317Z</time>
      </trkpt>
      <trkpt lat="44.16722" lon="5.29238">
        <ele>1712.5</ele>
        <time>2026-06-16T12:18:28.466Z</time>
      </trkpt>
      <trkpt lat="44.16716" lon="5.29251">
        <ele>1711.5</ele>
        <time>2026-06-16T12:18:31.708Z</time>
      </trkpt>
      <trkpt lat="44.16708" lon="5.29277">
        <ele>1710.4</ele>
        <time>2026-06-16T12:18:37.828Z</time>
      </trkpt>
      <trkpt lat="44.16705" lon="5.29307">
        <ele>1709.5</ele>
        <time>2026-06-16T12:18:44.475Z</time>
      </trkpt>
      <trkpt lat="44.16708" lon="5.29336">
        <ele>1706.9</ele>
        <time>2026-06-16T12:18:50.517Z</time>
      </trkpt>
      <trkpt lat="44.16713" lon="5.29361">
        <ele>1703.4</ele>
        <time>2026-06-16T12:18:55.894Z</time>
      </trkpt>
      <trkpt lat="44.16719" lon="5.29377">
        <ele>1702.1</ele>
        <time>2026-06-16T12:18:59.655Z</time>
      </trkpt>
      <trkpt lat="44.16759" lon="5.29465">
        <ele>1696.7</ele>
        <time>2026-06-16T12:19:21.806Z</time>
      </trkpt>
      <trkpt lat="44.16764" lon="5.29478">
        <ele>1695.8</ele>
        <time>2026-06-16T12:19:24.910Z</time>
      </trkpt>
      <trkpt lat="44.16768" lon="5.29498">
        <ele>1692.9</ele>
        <time>2026-06-16T12:19:29.227Z</time>
      </trkpt>
      <trkpt lat="44.16768" lon="5.29508">
        <ele>1693.3</ele>
        <time>2026-06-16T12:19:31.807Z</time>
      </trkpt>
      <trkpt lat="44.16763" lon="5.29528">
        <ele>1693.7</ele>
        <time>2026-06-16T12:19:36.959Z</time>
      </trkpt>
      <trkpt lat="44.16757" lon="5.29542">
        <ele>1693.6</ele>
        <time>2026-06-16T12:19:40.699Z</time>
      </trkpt>
      <trkpt lat="44.16747" lon="5.29558">
        <ele>1691.5</ele>
        <time>2026-06-16T12:19:45.061Z</time>
      </trkpt>
      <trkpt lat="44.16734" lon="5.29573">
        <ele>1690.7</ele>
        <time>2026-06-16T12:19:50.188Z</time>
      </trkpt>
      <trkpt lat="44.16719" lon="5.29587">
        <ele>1688.9</ele>
        <time>2026-06-16T12:19:55.433Z</time>
        <extensions>
          <visugpx:TrkExtension xmlns:visugpx="https://www.visugpx.com/editgpx/">
            <visugpx:node>14</visugpx:node>
            </visugpx:TrkExtension>
        </extensions>
      </trkpt>
      <trkpt lat="44.16698" lon="5.29608">
        <ele>1686.6</ele>
        <time>2026-06-16T12:20:02.994Z</time>
      </trkpt>
      <trkpt lat="44.16577" lon="5.29687">
        <ele>1673.1</ele>
        <time>2026-06-16T12:20:41.789Z</time>
      </trkpt>
      <trkpt lat="44.16569" lon="5.29693">
        <ele>1672.1</ele>
        <time>2026-06-16T12:20:44.414Z</time>
      </trkpt>
      <trkpt lat="44.16551" lon="5.29717">
        <ele>1668.4</ele>
        <time>2026-06-16T12:20:51.544Z</time>
      </trkpt>
      <trkpt lat="44.16544" lon="5.2973">
        <ele>1667.7</ele>
        <time>2026-06-16T12:20:55.040Z</time>
      </trkpt>
      <trkpt lat="44.16534" lon="5.29766">
        <ele>1667</ele>
        <time>2026-06-16T12:21:03.686Z</time>
      </trkpt>
      <trkpt lat="44.16514" lon="5.29863">
        <ele>1660.7</ele>
        <time>2026-06-16T12:21:24.896Z</time>
      </trkpt>
      <trkpt lat="44.16505" lon="5.29894">
        <ele>1659</ele>
        <time>2026-06-16T12:21:32.016Z</time>
      </trkpt>
      <trkpt lat="44.16462" lon="5.29989">
        <ele>1650.8</ele>
        <time>2026-06-16T12:21:55.403Z</time>
      </trkpt>
      <trkpt lat="44.1645" lon="5.30019">
        <ele>1648.6</ele>
        <time>2026-06-16T12:22:02.610Z</time>
      </trkpt>
      <trkpt lat="44.164" lon="5.30167">
        <ele>1640</ele>
        <time>2026-06-16T12:22:37.363Z</time>
      </trkpt>
      <trkpt lat="44.1639" lon="5.30189">
        <ele>1638</ele>
        <time>2026-06-16T12:22:42.771Z</time>
      </trkpt>
      <trkpt lat="44.16384" lon="5.30197">
        <ele>1637.1</ele>
        <time>2026-06-16T12:22:45.172Z</time>
      </trkpt>
      <trkpt lat="44.16369" lon="5.30213">
        <ele>1635.6</ele>
        <time>2026-06-16T12:22:50.737Z</time>
      </trkpt>
      <trkpt lat="44.16324" lon="5.30244">
        <ele>1633.4</ele>
        <time>2026-06-16T12:23:06.050Z</time>
      </trkpt>
      <trkpt lat="44.16315" lon="5.3025">
        <ele>1633.4</ele>
        <time>2026-06-16T12:23:09.283Z</time>
      </trkpt>
      <trkpt lat="44.16304" lon="5.30253">
        <ele>1632.8</ele>
        <time>2026-06-16T12:23:12.666Z</time>
      </trkpt>
      <trkpt lat="44.16298" lon="5.30253">
        <ele>1632.8</ele>
        <time>2026-06-16T12:23:14.610Z</time>
      </trkpt>
      <trkpt lat="44.16291" lon="5.3025">
        <ele>1632</ele>
        <time>2026-06-16T12:23:16.727Z</time>
      </trkpt>
      <trkpt lat="44.16276" lon="5.30233">
        <ele>1630.4</ele>
        <time>2026-06-16T12:23:22.409Z</time>
      </trkpt>
      <trkpt lat="44.16267" lon="5.3022">
        <ele>1629.8</ele>
        <time>2026-06-16T12:23:26.351Z</time>
      </trkpt>
      <trkpt lat="44.16197" lon="5.30091">
        <ele>1618.5</ele>
        <time>2026-06-16T12:24:00.114Z</time>
      </trkpt>
      <trkpt lat="44.16189" lon="5.30081">
        <ele>1617.2</ele>
        <time>2026-06-16T12:24:03.206Z</time>
      </trkpt>
      <trkpt lat="44.16182" lon="5.30075">
        <ele>1616</ele>
        <time>2026-06-16T12:24:05.558Z</time>
      </trkpt>
      <trkpt lat="44.16174" lon="5.30073">
        <ele>1615.2</ele>
        <time>2026-06-16T12:24:07.922Z</time>
      </trkpt>
      <trkpt lat="44.16164" lon="5.30073">
        <ele>1614.3</ele>
        <time>2026-06-16T12:24:10.845Z</time>
      </trkpt>
      <trkpt lat="44.16141" lon="5.30083">
        <ele>1612.2</ele>
        <time>2026-06-16T12:24:17.903Z</time>
      </trkpt>
      <trkpt lat="44.16129" lon="5.30092">
        <ele>1611.1</ele>
        <time>2026-06-16T12:24:21.914Z</time>
      </trkpt>
      <trkpt lat="44.16107" lon="5.3011">
        <ele>1608.2</ele>
        <time>2026-06-16T12:24:29.274Z</time>
      </trkpt>
      <trkpt lat="44.16089" lon="5.30128">
        <ele>1606.4</ele>
        <time>2026-06-16T12:24:35.792Z</time>
      </trkpt>
      <trkpt lat="44.16072" lon="5.30149">
        <ele>1604</ele>
        <time>2026-06-16T12:24:42.371Z</time>
      </trkpt>
      <trkpt lat="44.16058" lon="5.30176">
        <ele>1602.6</ele>
        <time>2026-06-16T12:24:49.547Z</time>
      </trkpt>
      <trkpt lat="44.16038" lon="5.30227">
        <ele>1599.3</ele>
        <time>2026-06-16T12:25:01.835Z</time>
      </trkpt>
      <trkpt lat="44.16002" lon="5.30326">
        <ele>1592.8</ele>
        <time>2026-06-16T12:25:25.256Z</time>
      </trkpt>
      <trkpt lat="44.15964" lon="5.30504">
        <ele>1581.8</ele>
        <time>2026-06-16T12:26:04.417Z</time>
      </trkpt>
      <trkpt lat="44.15961" lon="5.30544">
        <ele>1579.4</ele>
        <time>2026-06-16T12:26:12.894Z</time>
      </trkpt>
      <trkpt lat="44.15965" lon="5.3058">
        <ele>1576.6</ele>
        <time>2026-06-16T12:26:20.457Z</time>
      </trkpt>
      <trkpt lat="44.15984" lon="5.30674">
        <ele>1572.1</ele>
        <time>2026-06-16T12:26:41.376Z</time>
      </trkpt>
      <trkpt lat="44.15992" lon="5.30705">
        <ele>1569.1</ele>
        <time>2026-06-16T12:26:48.164Z</time>
      </trkpt>
      <trkpt lat="44.16" lon="5.30726">
        <ele>1568.5</ele>
        <time>2026-06-16T12:26:53.422Z</time>
      </trkpt>
      <trkpt lat="44.16023" lon="5.30776">
        <ele>1564.1</ele>
        <time>2026-06-16T12:27:05.779Z</time>
      </trkpt>
      <trkpt lat="44.16026" lon="5.30786">
        <ele>1564.3</ele>
        <time>2026-06-16T12:27:08.413Z</time>
      </trkpt>
      <trkpt lat="44.16028" lon="5.30798">
        <ele>1564.3</ele>
        <time>2026-06-16T12:27:11.276Z</time>
      </trkpt>
      <trkpt lat="44.16027" lon="5.30807">
        <ele>1564.1</ele>
        <time>2026-06-16T12:27:13.302Z</time>
      </trkpt>
      <trkpt lat="44.16024" lon="5.30814">
        <ele>1564.8</ele>
        <time>2026-06-16T12:27:15.768Z</time>
      </trkpt>
      <trkpt lat="44.1602" lon="5.30818">
        <ele>1564.9</ele>
        <time>2026-06-16T12:27:17.419Z</time>
      </trkpt>
      <trkpt lat="44.16008" lon="5.30822">
        <ele>1564.4</ele>
        <time>2026-06-16T12:27:21.198Z</time>
      </trkpt>
      <trkpt lat="44.15922" lon="5.3081">
        <ele>1557.5</ele>
        <time>2026-06-16T12:27:46.656Z</time>
      </trkpt>
      <trkpt lat="44.15904" lon="5.30811">
        <ele>1556.4</ele>
        <time>2026-06-16T12:27:52.052Z</time>
      </trkpt>
      <trkpt lat="44.15886" lon="5.30813">
        <ele>1555.2</ele>
        <time>2026-06-16T12:27:57.432Z</time>
      </trkpt>
      <trkpt lat="44.15868" lon="5.30819">
        <ele>1553.6</ele>
        <time>2026-06-16T12:28:02.856Z</time>
      </trkpt>
      <trkpt lat="44.15831" lon="5.30838">
        <ele>1550.3</ele>
        <time>2026-06-16T12:28:14.436Z</time>
      </trkpt>
      <trkpt lat="44.15814" lon="5.30851">
        <ele>1548.4</ele>
        <time>2026-06-16T12:28:20.076Z</time>
      </trkpt>
      <trkpt lat="44.15794" lon="5.30872">
        <ele>1545.9</ele>
        <time>2026-06-16T12:28:27.352Z</time>
      </trkpt>
      <trkpt lat="44.15784" lon="5.30888">
        <ele>1545.3</ele>
        <time>2026-06-16T12:28:32.020Z</time>
      </trkpt>
      <trkpt lat="44.15772" lon="5.30912">
        <ele>1542.5</ele>
        <time>2026-06-16T12:28:38.038Z</time>
      </trkpt>
      <trkpt lat="44.15756" lon="5.3096">
        <ele>1539.8</ele>
        <time>2026-06-16T12:28:49.305Z</time>
      </trkpt>
      <trkpt lat="44.15743" lon="5.31022">
        <ele>1535.5</ele>
        <time>2026-06-16T12:29:02.828Z</time>
      </trkpt>
      <trkpt lat="44.15741" lon="5.31048">
        <ele>1534.8</ele>
        <time>2026-06-16T12:29:08.595Z</time>
      </trkpt>
      <trkpt lat="44.1574" lon="5.31076">
        <ele>1532.7</ele>
        <time>2026-06-16T12:29:14.424Z</time>
      </trkpt>
      <trkpt lat="44.15743" lon="5.31103">
        <ele>1530</ele>
        <time>2026-06-16T12:29:20.041Z</time>
      </trkpt>
      <trkpt lat="44.15747" lon="5.31129">
        <ele>1528</ele>
        <time>2026-06-16T12:29:25.569Z</time>
      </trkpt>
      <trkpt lat="44.15753" lon="5.31151">
        <ele>1527.6</ele>
        <time>2026-06-16T12:29:30.852Z</time>
      </trkpt>
      <trkpt lat="44.15775" lon="5.3121">
        <ele>1522.8</ele>
        <time>2026-06-16T12:29:44.706Z</time>
      </trkpt>
      <trkpt lat="44.15778" lon="5.31221">
        <ele>1522.2</ele>
        <time>2026-06-16T12:29:47.211Z</time>
      </trkpt>
      <trkpt lat="44.15782" lon="5.31307">
        <ele>1518.3</ele>
        <time>2026-06-16T12:30:05.692Z</time>
      </trkpt>
      <trkpt lat="44.1578" lon="5.31327">
        <ele>1516.8</ele>
        <time>2026-06-16T12:30:09.893Z</time>
      </trkpt>
      <trkpt lat="44.15775" lon="5.31337">
        <ele>1516.3</ele>
        <time>2026-06-16T12:30:12.522Z</time>
      </trkpt>
      <trkpt lat="44.15769" lon="5.31343">
        <ele>1516.9</ele>
        <time>2026-06-16T12:30:15.337Z</time>
      </trkpt>
      <trkpt lat="44.15763" lon="5.31345">
        <ele>1517</ele>
        <time>2026-06-16T12:30:17.391Z</time>
      </trkpt>
      <trkpt lat="44.15755" lon="5.31346">
        <ele>1516.9</ele>
        <time>2026-06-16T12:30:19.945Z</time>
      </trkpt>
      <trkpt lat="44.15748" lon="5.31344">
        <ele>1516.4</ele>
        <time>2026-06-16T12:30:22.067Z</time>
      </trkpt>
      <trkpt lat="44.15711" lon="5.31315">
        <ele>1513.1</ele>
        <time>2026-06-16T12:30:34.591Z</time>
      </trkpt>
      <trkpt lat="44.15693" lon="5.31305">
        <ele>1510.9</ele>
        <time>2026-06-16T12:30:40.183Z</time>
      </trkpt>
      <trkpt lat="44.15623" lon="5.31275">
        <ele>1507.8</ele>
        <time>2026-06-16T12:31:02.563Z</time>
      </trkpt>
      <trkpt lat="44.15606" lon="5.31265">
        <ele>1506.9</ele>
        <time>2026-06-16T12:31:08.161Z</time>
      </trkpt>
      <trkpt lat="44.15545" lon="5.31221">
        <ele>1502.3</ele>
        <time>2026-06-16T12:31:28.616Z</time>
      </trkpt>
      <trkpt lat="44.15531" lon="5.31218">
        <ele>1501.7</ele>
        <time>2026-06-16T12:31:32.945Z</time>
      </trkpt>
      <trkpt lat="44.15524" lon="5.31219">
        <ele>1501.4</ele>
        <time>2026-06-16T12:31:35.094Z</time>
      </trkpt>
      <trkpt lat="44.15511" lon="5.31224">
        <ele>1500.3</ele>
        <time>2026-06-16T12:31:39.061Z</time>
      </trkpt>
      <trkpt lat="44.155" lon="5.31237">
        <ele>1499</ele>
        <time>2026-06-16T12:31:43.277Z</time>
      </trkpt>
      <trkpt lat="44.15491" lon="5.31258">
        <ele>1497.8</ele>
        <time>2026-06-16T12:31:48.497Z</time>
      </trkpt>
      <trkpt lat="44.15486" lon="5.31295">
        <ele>1496.5</ele>
        <time>2026-06-16T12:31:56.698Z</time>
      </trkpt>
      <trkpt lat="44.15479" lon="5.31389">
        <ele>1491.5</ele>
        <time>2026-06-16T12:32:16.770Z</time>
      </trkpt>
      <trkpt lat="44.15478" lon="5.31437">
        <ele>1490.6</ele>
        <time>2026-06-16T12:32:27.515Z</time>
      </trkpt>
      <trkpt lat="44.15478" lon="5.3146">
        <ele>1489.7</ele>
        <time>2026-06-16T12:32:32.490Z</time>
      </trkpt>
      <trkpt lat="44.15484" lon="5.31491">
        <ele>1488.4</ele>
        <time>2026-06-16T12:32:39.421Z</time>
      </trkpt>
      <trkpt lat="44.15497" lon="5.31524">
        <ele>1487.3</ele>
        <time>2026-06-16T12:32:47.691Z</time>
      </trkpt>
      <trkpt lat="44.15498" lon="5.31532">
        <ele>1487.1</ele>
        <time>2026-06-16T12:32:49.489Z</time>
      </trkpt>
      <trkpt lat="44.15494" lon="5.31541">
        <ele>1487.7</ele>
        <time>2026-06-16T12:32:52.369Z</time>
        <extensions>
          <visugpx:TrkExtension xmlns:visugpx="https://www.visugpx.com/editgpx/">
            <visugpx:node>15</visugpx:node>
            </visugpx:TrkExtension>
        </extensions>
      </trkpt>
      <trkpt lat="44.15494" lon="5.31541">
        <ele>1487.7</ele>
        <time>2026-06-16T12:32:52.369Z</time>
      </trkpt>
      <trkpt lat="44.1549" lon="5.31544">
        <ele>1487.9</ele>
        <time>2026-06-16T12:32:53.963Z</time>
      </trkpt>
      <trkpt lat="44.15484" lon="5.31545">
        <ele>1487.9</ele>
        <time>2026-06-16T12:32:55.921Z</time>
      </trkpt>
      <trkpt lat="44.15477" lon="5.31543">
        <ele>1487.4</ele>
        <time>2026-06-16T12:32:58.044Z</time>
      </trkpt>
      <trkpt lat="44.15379" lon="5.31475">
        <ele>1476.4</ele>
        <time>2026-06-16T12:33:29.839Z</time>
      </trkpt>
      <trkpt lat="44.15321" lon="5.31447">
        <ele>1471.8</ele>
        <time>2026-06-16T12:33:47.992Z</time>
      </trkpt>
      <trkpt lat="44.15297" lon="5.31429">
        <ele>1469.2</ele>
        <time>2026-06-16T12:33:55.931Z</time>
      </trkpt>
      <trkpt lat="44.15277" lon="5.31402">
        <ele>1466.4</ele>
        <time>2026-06-16T12:34:04.018Z</time>
      </trkpt>
      <trkpt lat="44.15258" lon="5.3138">
        <ele>1464</ele>
        <time>2026-06-16T12:34:11.207Z</time>
      </trkpt>
      <trkpt lat="44.15248" lon="5.31372">
        <ele>1463.6</ele>
        <time>2026-06-16T12:34:14.763Z</time>
      </trkpt>
      <trkpt lat="44.15228" lon="5.31361">
        <ele>1461.4</ele>
        <time>2026-06-16T12:34:21.001Z</time>
      </trkpt>
      <trkpt lat="44.15174" lon="5.31349">
        <ele>1456.1</ele>
        <time>2026-06-16T12:34:36.917Z</time>
      </trkpt>
      <trkpt lat="44.15163" lon="5.31348">
        <ele>1455.1</ele>
        <time>2026-06-16T12:34:40.138Z</time>
      </trkpt>
      <trkpt lat="44.15154" lon="5.31349">
        <ele>1454.2</ele>
        <time>2026-06-16T12:34:42.761Z</time>
      </trkpt>
      <trkpt lat="44.15145" lon="5.31353">
        <ele>1453.4</ele>
        <time>2026-06-16T12:34:45.534Z</time>
      </trkpt>
      <trkpt lat="44.15137" lon="5.31359">
        <ele>1452.8</ele>
        <time>2026-06-16T12:34:48.242Z</time>
      </trkpt>
      <trkpt lat="44.15108" lon="5.31386">
        <ele>1449.8</ele>
        <time>2026-06-16T12:34:58.466Z</time>
      </trkpt>
      <trkpt lat="44.15098" lon="5.314">
        <ele>1448.4</ele>
        <time>2026-06-16T12:35:02.587Z</time>
      </trkpt>
      <trkpt lat="44.15092" lon="5.31413">
        <ele>1447.3</ele>
        <time>2026-06-16T12:35:05.811Z</time>
      </trkpt>
      <trkpt lat="44.1509" lon="5.31426">
        <ele>1446.3</ele>
        <time>2026-06-16T12:35:08.575Z</time>
      </trkpt>
      <trkpt lat="44.15091" lon="5.3144">
        <ele>1445.4</ele>
        <time>2026-06-16T12:35:11.528Z</time>
      </trkpt>
      <trkpt lat="44.15096" lon="5.31455">
        <ele>1444.1</ele>
        <time>2026-06-16T12:35:14.959Z</time>
      </trkpt>
      <trkpt lat="44.15115" lon="5.31491">
        <ele>1442.8</ele>
        <time>2026-06-16T12:35:24.779Z</time>
      </trkpt>
      <trkpt lat="44.15118" lon="5.315">
        <ele>1442.2</ele>
        <time>2026-06-16T12:35:26.869Z</time>
      </trkpt>
      <trkpt lat="44.15157" lon="5.31643">
        <ele>1432.9</ele>
        <time>2026-06-16T12:35:59.080Z</time>
      </trkpt>
      <trkpt lat="44.15191" lon="5.31734">
        <ele>1427.1</ele>
        <time>2026-06-16T12:36:20.781Z</time>
      </trkpt>
      <trkpt lat="44.15222" lon="5.3184">
        <ele>1420.5</ele>
        <time>2026-06-16T12:36:44.963Z</time>
      </trkpt>
      <trkpt lat="44.15223" lon="5.31855">
        <ele>1419.8</ele>
        <time>2026-06-16T12:36:48.189Z</time>
      </trkpt>
      <trkpt lat="44.1522" lon="5.31869">
        <ele>1418.6</ele>
        <time>2026-06-16T12:36:51.212Z</time>
      </trkpt>
      <trkpt lat="44.15213" lon="5.31879">
        <ele>1418.1</ele>
        <time>2026-06-16T12:36:54.250Z</time>
      </trkpt>
      <trkpt lat="44.15203" lon="5.31886">
        <ele>1418</ele>
        <time>2026-06-16T12:36:57.826Z</time>
      </trkpt>
      <trkpt lat="44.15197" lon="5.31886">
        <ele>1417.9</ele>
        <time>2026-06-16T12:36:59.722Z</time>
      </trkpt>
      <trkpt lat="44.15189" lon="5.31882">
        <ele>1418.4</ele>
        <time>2026-06-16T12:37:02.799Z</time>
      </trkpt>
      <trkpt lat="44.15186" lon="5.31887">
        <ele>1419.3</ele>
        <time>2026-06-16T12:37:05.296Z</time>
      </trkpt>
      <trkpt lat="44.15184" lon="5.31888">
        <ele>1419.8</ele>
        <time>2026-06-16T12:37:06.638Z</time>
      </trkpt>
      <trkpt lat="44.15175" lon="5.31885">
        <ele>1420.8</ele>
        <time>2026-06-16T12:37:10.417Z</time>
      </trkpt>
      <trkpt lat="44.15131" lon="5.31849">
        <ele>1418.6</ele>
        <time>2026-06-16T12:37:25.995Z</time>
      </trkpt>
      <trkpt lat="44.15095" lon="5.31823">
        <ele>1418.1</ele>
        <time>2026-06-16T12:37:38.887Z</time>
      </trkpt>
      <trkpt lat="44.15078" lon="5.31813">
        <ele>1418.7</ele>
        <time>2026-06-16T12:37:45.218Z</time>
      </trkpt>
      <trkpt lat="44.14949" lon="5.31767">
        <ele>1416.1</ele>
        <time>2026-06-16T12:38:27.121Z</time>
      </trkpt>
      <trkpt lat="44.14937" lon="5.31767">
        <ele>1415.7</ele>
        <time>2026-06-16T12:38:30.829Z</time>
      </trkpt>
      <trkpt lat="44.14926" lon="5.31775">
        <ele>1415.7</ele>
        <time>2026-06-16T12:38:34.849Z</time>
      </trkpt>
      <trkpt lat="44.1492" lon="5.31785">
        <ele>1415.7</ele>
        <time>2026-06-16T12:38:37.880Z</time>
      </trkpt>
      <trkpt lat="44.14914" lon="5.31799">
        <ele>1415.3</ele>
        <time>2026-06-16T12:38:41.491Z</time>
      </trkpt>
      <trkpt lat="44.14905" lon="5.31831">
        <ele>1414.8</ele>
        <time>2026-06-16T12:38:49.244Z</time>
      </trkpt>
      <trkpt lat="44.14901" lon="5.31859">
        <ele>1415.1</ele>
        <time>2026-06-16T12:38:56.046Z</time>
      </trkpt>
      <trkpt lat="44.14896" lon="5.31927">
        <ele>1415</ele>
        <time>2026-06-16T12:39:11.888Z</time>
      </trkpt>
      <trkpt lat="44.14896" lon="5.32008">
        <ele>1413.8</ele>
        <time>2026-06-16T12:39:30.150Z</time>
      </trkpt>
      <trkpt lat="44.14893" lon="5.32044">
        <ele>1413.7</ele>
        <time>2026-06-16T12:39:38.525Z</time>
      </trkpt>
      <trkpt lat="44.14887" lon="5.32077">
        <ele>1413.4</ele>
        <time>2026-06-16T12:39:46.293Z</time>
      </trkpt>
      <trkpt lat="44.14874" lon="5.3212">
        <ele>1413.2</ele>
        <time>2026-06-16T12:39:57.041Z</time>
      </trkpt>
      <trkpt lat="44.14841" lon="5.32198">
        <ele>1412</ele>
        <time>2026-06-16T12:40:17.518Z</time>
      </trkpt>
      <trkpt lat="44.14835" lon="5.32218">
        <ele>1412</ele>
        <time>2026-06-16T12:40:22.558Z</time>
      </trkpt>
      <trkpt lat="44.14832" lon="5.32234">
        <ele>1411.9</ele>
        <time>2026-06-16T12:40:26.353Z</time>
      </trkpt>
      <trkpt lat="44.14831" lon="5.32263">
        <ele>1411.3</ele>
        <time>2026-06-16T12:40:32.827Z</time>
      </trkpt>
      <trkpt lat="44.14834" lon="5.32281">
        <ele>1411</ele>
        <time>2026-06-16T12:40:36.982Z</time>
      </trkpt>
      <trkpt lat="44.14842" lon="5.32309">
        <ele>1410.6</ele>
        <time>2026-06-16T12:40:43.797Z</time>
      </trkpt>
      <trkpt lat="44.14849" lon="5.32323">
        <ele>1410.2</ele>
        <time>2026-06-16T12:40:47.583Z</time>
      </trkpt>
      <trkpt lat="44.14858" lon="5.32336">
        <ele>1410.1</ele>
        <time>2026-06-16T12:40:51.733Z</time>
      </trkpt>
      <trkpt lat="44.14874" lon="5.32351">
        <ele>1409.7</ele>
        <time>2026-06-16T12:40:57.791Z</time>
      </trkpt>
      <trkpt lat="44.1493" lon="5.32384">
        <ele>1409.2</ele>
        <time>2026-06-16T12:41:17.243Z</time>
      </trkpt>
      <trkpt lat="44.15009" lon="5.32449">
        <ele>1409.1</ele>
        <time>2026-06-16T12:41:46.918Z</time>
      </trkpt>
      <trkpt lat="44.15041" lon="5.32479">
        <ele>1409.4</ele>
        <time>2026-06-16T12:41:59.574Z</time>
      </trkpt>
      <trkpt lat="44.15075" lon="5.32518">
        <ele>1408.3</ele>
        <time>2026-06-16T12:42:13.328Z</time>
      </trkpt>
      <trkpt lat="44.15105" lon="5.32556">
        <ele>1408.5</ele>
        <time>2026-06-16T12:42:26.569Z</time>
      </trkpt>
      <trkpt lat="44.15154" lon="5.32637">
        <ele>1406.9</ele>
        <time>2026-06-16T12:42:50.441Z</time>
      </trkpt>
      <trkpt lat="44.15177" lon="5.32666">
        <ele>1406.2</ele>
        <time>2026-06-16T12:43:00.161Z</time>
      </trkpt>
      <trkpt lat="44.15223" lon="5.32699">
        <ele>1404.6</ele>
        <time>2026-06-16T12:43:16.195Z</time>
      </trkpt>
      <trkpt lat="44.15242" lon="5.32711">
        <ele>1406</ele>
        <time>2026-06-16T12:43:23.888Z</time>
      </trkpt>
      <trkpt lat="44.15321" lon="5.32753">
        <ele>1405.3</ele>
        <time>2026-06-16T12:43:50.936Z</time>
      </trkpt>
      <trkpt lat="44.15326" lon="5.32756">
        <ele>1405.6</ele>
        <time>2026-06-16T12:43:52.891Z</time>
      </trkpt>
      <trkpt lat="44.1533" lon="5.32764">
        <ele>1405.1</ele>
        <time>2026-06-16T12:43:54.966Z</time>
      </trkpt>
      <trkpt lat="44.15331" lon="5.32771">
        <ele>1404.5</ele>
        <time>2026-06-16T12:43:56.442Z</time>
      </trkpt>
      <trkpt lat="44.15329" lon="5.3278">
        <ele>1404.3</ele>
        <time>2026-06-16T12:43:58.540Z</time>
      </trkpt>
      <trkpt lat="44.15327" lon="5.32783">
        <ele>1405.1</ele>
        <time>2026-06-16T12:44:00.728Z</time>
      </trkpt>
      <trkpt lat="44.15321" lon="5.32788">
        <ele>1406.1</ele>
        <time>2026-06-16T12:44:03.887Z</time>
      </trkpt>
      <trkpt lat="44.15317" lon="5.32789">
        <ele>1406.1</ele>
        <time>2026-06-16T12:44:05.203Z</time>
      </trkpt>
      <trkpt lat="44.15235" lon="5.3279">
        <ele>1404.1</ele>
        <time>2026-06-16T12:44:30.838Z</time>
      </trkpt>
      <trkpt lat="44.15191" lon="5.32787">
        <ele>1404.1</ele>
        <time>2026-06-16T12:44:45.112Z</time>
      </trkpt>
      <trkpt lat="44.15133" lon="5.32777">
        <ele>1402.1</ele>
        <time>2026-06-16T12:45:03.149Z</time>
      </trkpt>
      <trkpt lat="44.15094" lon="5.32765">
        <ele>1402.7</ele>
        <time>2026-06-16T12:45:16.418Z</time>
      </trkpt>
      <trkpt lat="44.15009" lon="5.3273">
        <ele>1402.1</ele>
        <time>2026-06-16T12:45:44.836Z</time>
      </trkpt>
      <trkpt lat="44.14921" lon="5.32684">
        <ele>1400.1</ele>
        <time>2026-06-16T12:46:14.342Z</time>
      </trkpt>
      <trkpt lat="44.14903" lon="5.32679">
        <ele>1399.3</ele>
        <time>2026-06-16T12:46:19.942Z</time>
      </trkpt>
      <trkpt lat="44.14889" lon="5.32682">
        <ele>1400.2</ele>
        <time>2026-06-16T12:46:25.125Z</time>
      </trkpt>
      <trkpt lat="44.14879" lon="5.32695">
        <ele>1399.5</ele>
        <time>2026-06-16T12:46:29.262Z</time>
      </trkpt>
      <trkpt lat="44.14876" lon="5.32703">
        <ele>1398.8</ele>
        <time>2026-06-16T12:46:31.136Z</time>
      </trkpt>
      <trkpt lat="44.14874" lon="5.32714">
        <ele>1398.2</ele>
        <time>2026-06-16T12:46:33.547Z</time>
      </trkpt>
      <trkpt lat="44.14874" lon="5.32725">
        <ele>1397.8</ele>
        <time>2026-06-16T12:46:35.936Z</time>
      </trkpt>
      <trkpt lat="44.14876" lon="5.32739">
        <ele>1396.9</ele>
        <time>2026-06-16T12:46:38.935Z</time>
      </trkpt>
      <trkpt lat="44.14899" lon="5.3281">
        <ele>1400.5</ele>
        <time>2026-06-16T12:46:59.425Z</time>
      </trkpt>
      <trkpt lat="44.149" lon="5.3283">
        <ele>1399.8</ele>
        <time>2026-06-16T12:47:03.790Z</time>
      </trkpt>
      <trkpt lat="44.14896" lon="5.32915">
        <ele>1397.4</ele>
        <time>2026-06-16T12:47:22.537Z</time>
      </trkpt>
      <trkpt lat="44.14888" lon="5.32981">
        <ele>1398.4</ele>
        <time>2026-06-16T12:47:38.659Z</time>
      </trkpt>
      <trkpt lat="44.14888" lon="5.33">
        <ele>1398.4</ele>
        <time>2026-06-16T12:47:43.077Z</time>
      </trkpt>
      <trkpt lat="44.14892" lon="5.33028">
        <ele>1397.4</ele>
        <time>2026-06-16T12:47:49.291Z</time>
      </trkpt>
      <trkpt lat="44.1491" lon="5.33105">
        <ele>1396.1</ele>
        <time>2026-06-16T12:48:07.506Z</time>
      </trkpt>
      <trkpt lat="44.14935" lon="5.33182">
        <ele>1396.9</ele>
        <time>2026-06-16T12:48:27.590Z</time>
      </trkpt>
      <trkpt lat="44.14941" lon="5.33213">
        <ele>1396</ele>
        <time>2026-06-16T12:48:34.658Z</time>
      </trkpt>
      <trkpt lat="44.14943" lon="5.33239">
        <ele>1395.9</ele>
        <time>2026-06-16T12:48:40.687Z</time>
      </trkpt>
      <trkpt lat="44.14941" lon="5.33249">
        <ele>1395.3</ele>
        <time>2026-06-16T12:48:42.880Z</time>
      </trkpt>
      <trkpt lat="44.14938" lon="5.33255">
        <ele>1395.4</ele>
        <time>2026-06-16T12:48:44.636Z</time>
      </trkpt>
      <trkpt lat="44.14935" lon="5.3326">
        <ele>1395.7</ele>
        <time>2026-06-16T12:48:46.350Z</time>
      </trkpt>
      <trkpt lat="44.14929" lon="5.33264">
        <ele>1395.6</ele>
        <time>2026-06-16T12:48:48.456Z</time>
      </trkpt>
      <trkpt lat="44.14922" lon="5.33266">
        <ele>1395.2</ele>
        <time>2026-06-16T12:48:50.607Z</time>
      </trkpt>
      <trkpt lat="44.14897" lon="5.33269">
        <ele>1394.7</ele>
        <time>2026-06-16T12:48:58.499Z</time>
      </trkpt>
      <trkpt lat="44.14892" lon="5.33272">
        <ele>1395.1</ele>
        <time>2026-06-16T12:49:00.537Z</time>
      </trkpt>
      <trkpt lat="44.14886" lon="5.33281">
        <ele>1395.7</ele>
        <time>2026-06-16T12:49:03.795Z</time>
      </trkpt>
      <trkpt lat="44.14885" lon="5.33293">
        <ele>1394.8</ele>
        <time>2026-06-16T12:49:06.308Z</time>
      </trkpt>
      <trkpt lat="44.14887" lon="5.333">
        <ele>1394.8</ele>
        <time>2026-06-16T12:49:08.060Z</time>
      </trkpt>
      <trkpt lat="44.14915" lon="5.3336">
        <ele>1392.6</ele>
        <time>2026-06-16T12:49:23.745Z</time>
      </trkpt>
      <trkpt lat="44.14942" lon="5.33404">
        <ele>1392.4</ele>
        <time>2026-06-16T12:49:37.105Z</time>
      </trkpt>
      <trkpt lat="44.14942" lon="5.33414">
        <ele>1391.2</ele>
        <time>2026-06-16T12:49:39.162Z</time>
      </trkpt>
      <trkpt lat="44.14939" lon="5.33421">
        <ele>1391.8</ele>
        <time>2026-06-16T12:49:41.516Z</time>
      </trkpt>
      <trkpt lat="44.14934" lon="5.33424">
        <ele>1392.4</ele>
        <time>2026-06-16T12:49:43.752Z</time>
      </trkpt>
      <trkpt lat="44.14927" lon="5.33425">
        <ele>1392.4</ele>
        <time>2026-06-16T12:49:46.032Z</time>
      </trkpt>
      <trkpt lat="44.14918" lon="5.33423">
        <ele>1391.3</ele>
        <time>2026-06-16T12:49:48.654Z</time>
      </trkpt>
      <trkpt lat="44.14881" lon="5.33407">
        <ele>1387.6</ele>
        <time>2026-06-16T12:49:59.940Z</time>
      </trkpt>
      <trkpt lat="44.14857" lon="5.33407">
        <ele>1386.3</ele>
        <time>2026-06-16T12:50:07.178Z</time>
      </trkpt>
      <trkpt lat="44.14842" lon="5.33409">
        <ele>1384.8</ele>
        <time>2026-06-16T12:50:11.557Z</time>
      </trkpt>
      <trkpt lat="44.14743" lon="5.33436">
        <ele>1380.1</ele>
        <time>2026-06-16T12:50:42.235Z</time>
      </trkpt>
      <trkpt lat="44.14692" lon="5.33444">
        <ele>1376.6</ele>
        <time>2026-06-16T12:50:57.502Z</time>
      </trkpt>
      <trkpt lat="44.14637" lon="5.33448">
        <ele>1374.9</ele>
        <time>2026-06-16T12:51:14.572Z</time>
      </trkpt>
      <trkpt lat="44.14572" lon="5.33442">
        <ele>1371</ele>
        <time>2026-06-16T12:51:34.105Z</time>
      </trkpt>
      <trkpt lat="44.14554" lon="5.33442">
        <ele>1370.4</ele>
        <time>2026-06-16T12:51:39.667Z</time>
      </trkpt>
      <trkpt lat="44.14541" lon="5.33447">
        <ele>1369.7</ele>
        <time>2026-06-16T12:51:43.744Z</time>
      </trkpt>
      <trkpt lat="44.14527" lon="5.3346">
        <ele>1369</ele>
        <time>2026-06-16T12:51:48.889Z</time>
      </trkpt>
      <trkpt lat="44.14522" lon="5.33469">
        <ele>1368.7</ele>
        <time>2026-06-16T12:51:51.402Z</time>
      </trkpt>
      <trkpt lat="44.14509" lon="5.33498">
        <ele>1367.5</ele>
        <time>2026-06-16T12:51:58.845Z</time>
      </trkpt>
      <trkpt lat="44.14496" lon="5.33542">
        <ele>1366.1</ele>
        <time>2026-06-16T12:52:09.296Z</time>
      </trkpt>
      <trkpt lat="44.14474" lon="5.33622">
        <ele>1363.4</ele>
        <time>2026-06-16T12:52:28.049Z</time>
      </trkpt>
      <trkpt lat="44.14468" lon="5.33655">
        <ele>1362.2</ele>
        <time>2026-06-16T12:52:35.457Z</time>
      </trkpt>
      <trkpt lat="44.14465" lon="5.33688">
        <ele>1361.7</ele>
        <time>2026-06-16T12:52:42.954Z</time>
      </trkpt>
      <trkpt lat="44.14469" lon="5.33717">
        <ele>1360.8</ele>
        <time>2026-06-16T12:52:49.429Z</time>
      </trkpt>
      <trkpt lat="44.14473" lon="5.33729">
        <ele>1360.4</ele>
        <time>2026-06-16T12:52:52.331Z</time>
      </trkpt>
      <trkpt lat="44.14485" lon="5.3375">
        <ele>1359.8</ele>
        <time>2026-06-16T12:52:58.299Z</time>
      </trkpt>
      <trkpt lat="44.14501" lon="5.33766">
        <ele>1359.2</ele>
        <time>2026-06-16T12:53:04.406Z</time>
      </trkpt>
      <trkpt lat="44.14583" lon="5.33817">
        <ele>1355.7</ele>
        <time>2026-06-16T12:53:31.958Z</time>
      </trkpt>
      <trkpt lat="44.14617" lon="5.33837">
        <ele>1355.9</ele>
        <time>2026-06-16T12:53:44.021Z</time>
      </trkpt>
      <trkpt lat="44.14623" lon="5.33843">
        <ele>1356.4</ele>
        <time>2026-06-16T12:53:46.749Z</time>
      </trkpt>
      <trkpt lat="44.14625" lon="5.3385">
        <ele>1355.9</ele>
        <time>2026-06-16T12:53:48.327Z</time>
      </trkpt>
      <trkpt lat="44.14625" lon="5.33858">
        <ele>1354.9</ele>
        <time>2026-06-16T12:53:49.976Z</time>
      </trkpt>
      <trkpt lat="44.14622" lon="5.33865">
        <ele>1355.3</ele>
        <time>2026-06-16T12:53:52.140Z</time>
      </trkpt>
      <trkpt lat="44.14616" lon="5.33869">
        <ele>1356</ele>
        <time>2026-06-16T12:53:54.835Z</time>
      </trkpt>
      <trkpt lat="44.1461" lon="5.3387">
        <ele>1355.8</ele>
        <time>2026-06-16T12:53:56.703Z</time>
      </trkpt>
      <trkpt lat="44.14561" lon="5.3387">
        <ele>1353.1</ele>
        <time>2026-06-16T12:54:11.467Z</time>
      </trkpt>
      <trkpt lat="44.14525" lon="5.33879">
        <ele>1350.7</ele>
        <time>2026-06-16T12:54:22.373Z</time>
      </trkpt>
      <trkpt lat="44.1444" lon="5.33927">
        <ele>1347</ele>
        <time>2026-06-16T12:54:50.467Z</time>
      </trkpt>
      <trkpt lat="44.14424" lon="5.33933">
        <ele>1346.6</ele>
        <time>2026-06-16T12:54:55.648Z</time>
      </trkpt>
      <trkpt lat="44.14408" lon="5.33937">
        <ele>1346.2</ele>
        <time>2026-06-16T12:55:00.728Z</time>
      </trkpt>
      <trkpt lat="44.14362" lon="5.33939">
        <ele>1343.7</ele>
        <time>2026-06-16T12:55:14.606Z</time>
      </trkpt>
      <trkpt lat="44.14335" lon="5.33944">
        <ele>1343</ele>
        <time>2026-06-16T12:55:23.106Z</time>
      </trkpt>
      <trkpt lat="44.1431" lon="5.33959">
        <ele>1341.6</ele>
        <time>2026-06-16T12:55:31.339Z</time>
      </trkpt>
      <trkpt lat="44.14286" lon="5.33981">
        <ele>1340.6</ele>
        <time>2026-06-16T12:55:40.198Z</time>
      </trkpt>
      <trkpt lat="44.14268" lon="5.34004">
        <ele>1339.8</ele>
        <time>2026-06-16T12:55:47.749Z</time>
      </trkpt>
      <trkpt lat="44.14261" lon="5.34017">
        <ele>1339.4</ele>
        <time>2026-06-16T12:55:51.349Z</time>
      </trkpt>
      <trkpt lat="44.14233" lon="5.34096">
        <ele>1336.9</ele>
        <time>2026-06-16T12:56:10.736Z</time>
      </trkpt>
      <trkpt lat="44.14224" lon="5.34138">
        <ele>1336.3</ele>
        <time>2026-06-16T12:56:20.641Z</time>
      </trkpt>
      <trkpt lat="44.14217" lon="5.34203">
        <ele>1334.7</ele>
        <time>2026-06-16T12:56:35.203Z</time>
      </trkpt>
      <trkpt lat="44.14214" lon="5.34221">
        <ele>1334.2</ele>
        <time>2026-06-16T12:56:39.278Z</time>
      </trkpt>
      <trkpt lat="44.14209" lon="5.3424">
        <ele>1333.8</ele>
        <time>2026-06-16T12:56:43.799Z</time>
      </trkpt>
      <trkpt lat="44.14191" lon="5.34292">
        <ele>1332</ele>
        <time>2026-06-16T12:56:56.443Z</time>
      </trkpt>
      <trkpt lat="44.14178" lon="5.34323">
        <ele>1331.3</ele>
        <time>2026-06-16T12:57:04.468Z</time>
      </trkpt>
      <trkpt lat="44.14144" lon="5.3437">
        <ele>1328.9</ele>
        <time>2026-06-16T12:57:18.975Z</time>
      </trkpt>
      <trkpt lat="44.14134" lon="5.34385">
        <ele>1328.4</ele>
        <time>2026-06-16T12:57:23.511Z</time>
      </trkpt>
      <trkpt lat="44.14128" lon="5.34385">
        <ele>1327.7</ele>
        <time>2026-06-16T12:57:25.240Z</time>
      </trkpt>
      <trkpt lat="44.14115" lon="5.34392">
        <ele>1326.5</ele>
        <time>2026-06-16T12:57:29.326Z</time>
        <extensions>
          <visugpx:TrkExtension xmlns:visugpx="https://www.visugpx.com/editgpx/">
            <visugpx:node>16</visugpx:node>
            </visugpx:TrkExtension>
        </extensions>
      </trkpt>
      <trkpt lat="44.14128" lon="5.34385">
        <ele>1327.7</ele>
        <time>2026-06-16T12:57:34.702Z</time>
      </trkpt>
      <trkpt lat="44.14134" lon="5.34385">
        <ele>1328.4</ele>
        <time>2026-06-16T12:57:37.211Z</time>
      </trkpt>
      <trkpt lat="44.14113" lon="5.3442">
        <ele>1327.2</ele>
        <time>2026-06-16T12:57:47.284Z</time>
      </trkpt>
      <trkpt lat="44.1411" lon="5.3443">
        <ele>1326.9</ele>
        <time>2026-06-16T12:57:49.672Z</time>
      </trkpt>
      <trkpt lat="44.1411" lon="5.34441">
        <ele>1326.9</ele>
        <time>2026-06-16T12:57:52.230Z</time>
      </trkpt>
      <trkpt lat="44.14113" lon="5.3445">
        <ele>1326.7</ele>
        <time>2026-06-16T12:57:54.445Z</time>
      </trkpt>
      <trkpt lat="44.14119" lon="5.34459">
        <ele>1326.4</ele>
        <time>2026-06-16T12:57:57.167Z</time>
      </trkpt>
      <trkpt lat="44.14144" lon="5.34481">
        <ele>1325.6</ele>
        <time>2026-06-16T12:58:06.376Z</time>
      </trkpt>
      <trkpt lat="44.1416" lon="5.34493">
        <ele>1325.3</ele>
        <time>2026-06-16T12:58:12.119Z</time>
      </trkpt>
      <trkpt lat="44.14178" lon="5.34502">
        <ele>1324.7</ele>
        <time>2026-06-16T12:58:18.042Z</time>
      </trkpt>
      <trkpt lat="44.14217" lon="5.34519">
        <ele>1323.3</ele>
        <time>2026-06-16T12:58:30.653Z</time>
      </trkpt>
      <trkpt lat="44.1424" lon="5.34527">
        <ele>1322.8</ele>
        <time>2026-06-16T12:58:38.097Z</time>
      </trkpt>
      <trkpt lat="44.14256" lon="5.34529">
        <ele>1322.7</ele>
        <time>2026-06-16T12:58:43.252Z</time>
      </trkpt>
      <trkpt lat="44.143" lon="5.34526">
        <ele>1321.8</ele>
        <time>2026-06-16T12:58:57.098Z</time>
      </trkpt>
      <trkpt lat="44.14328" lon="5.34519">
        <ele>1320.7</ele>
        <time>2026-06-16T12:59:05.829Z</time>
      </trkpt>
      <trkpt lat="44.14376" lon="5.34497">
        <ele>1319.6</ele>
        <time>2026-06-16T12:59:21.681Z</time>
      </trkpt>
      <trkpt lat="44.14416" lon="5.3447">
        <ele>1318.6</ele>
        <time>2026-06-16T12:59:35.611Z</time>
      </trkpt>
      <trkpt lat="44.14499" lon="5.34395">
        <ele>1315.7</ele>
        <time>2026-06-16T13:00:06.332Z</time>
      </trkpt>
      <trkpt lat="44.14508" lon="5.34389">
        <ele>1316.1</ele>
        <time>2026-06-16T13:00:09.806Z</time>
      </trkpt>
      <trkpt lat="44.14518" lon="5.34388">
        <ele>1315.3</ele>
        <time>2026-06-16T13:00:12.759Z</time>
      </trkpt>
      <trkpt lat="44.14527" lon="5.34391">
        <ele>1313.6</ele>
        <time>2026-06-16T13:00:15.427Z</time>
      </trkpt>
      <trkpt lat="44.14535" lon="5.34397">
        <ele>1314.2</ele>
        <time>2026-06-16T13:00:18.769Z</time>
      </trkpt>
      <trkpt lat="44.14556" lon="5.34426">
        <ele>1313.1</ele>
        <time>2026-06-16T13:00:27.860Z</time>
      </trkpt>
      <trkpt lat="44.14576" lon="5.34458">
        <ele>1311.8</ele>
        <time>2026-06-16T13:00:37.162Z</time>
      </trkpt>
      <trkpt lat="44.14589" lon="5.34474">
        <ele>1311.5</ele>
        <time>2026-06-16T13:00:42.637Z</time>
      </trkpt>
      <trkpt lat="44.14619" lon="5.34495">
        <ele>1310.1</ele>
        <time>2026-06-16T13:00:52.904Z</time>
      </trkpt>
      <trkpt lat="44.1465" lon="5.34507">
        <ele>1308.7</ele>
        <time>2026-06-16T13:01:02.723Z</time>
      </trkpt>
      <trkpt lat="44.14718" lon="5.34516">
        <ele>1306.3</ele>
        <time>2026-06-16T13:01:23.780Z</time>
      </trkpt>
      <trkpt lat="44.14799" lon="5.34515">
        <ele>1303.1</ele>
        <time>2026-06-16T13:01:48.618Z</time>
      </trkpt>
      <trkpt lat="44.14894" lon="5.345">
        <ele>1301.1</ele>
        <time>2026-06-16T13:02:18.647Z</time>
      </trkpt>
      <trkpt lat="44.14913" lon="5.34493">
        <ele>1299.7</ele>
        <time>2026-06-16T13:02:24.477Z</time>
      </trkpt>
      <trkpt lat="44.14932" lon="5.34477">
        <ele>1300.1</ele>
        <time>2026-06-16T13:02:31.892Z</time>
      </trkpt>
      <trkpt lat="44.1494" lon="5.34474">
        <ele>1299.3</ele>
        <time>2026-06-16T13:02:34.304Z</time>
      </trkpt>
      <trkpt lat="44.14945" lon="5.34474">
        <ele>1298.5</ele>
        <time>2026-06-16T13:02:35.736Z</time>
      </trkpt>
      <trkpt lat="44.14953" lon="5.34478">
        <ele>1299.4</ele>
        <time>2026-06-16T13:02:39.186Z</time>
      </trkpt>
      <trkpt lat="44.14976" lon="5.34504">
        <ele>1297.3</ele>
        <time>2026-06-16T13:02:47.975Z</time>
      </trkpt>
      <trkpt lat="44.14985" lon="5.34511">
        <ele>1296.5</ele>
        <time>2026-06-16T13:02:51.016Z</time>
      </trkpt>
      <trkpt lat="44.15004" lon="5.3452">
        <ele>1296.4</ele>
        <time>2026-06-16T13:02:57.468Z</time>
      </trkpt>
      <trkpt lat="44.15035" lon="5.34531">
        <ele>1294.8</ele>
        <time>2026-06-16T13:03:07.159Z</time>
      </trkpt>
      <trkpt lat="44.15065" lon="5.34537">
        <ele>1294.7</ele>
        <time>2026-06-16T13:03:16.928Z</time>
      </trkpt>
      <trkpt lat="44.15109" lon="5.3454">
        <ele>1293.6</ele>
        <time>2026-06-16T13:03:30.688Z</time>
      </trkpt>
      <trkpt lat="44.15133" lon="5.34537">
        <ele>1293.4</ele>
        <time>2026-06-16T13:03:38.396Z</time>
      </trkpt>
      <trkpt lat="44.15147" lon="5.34533">
        <ele>1292.8</ele>
        <time>2026-06-16T13:03:42.766Z</time>
      </trkpt>
      <trkpt lat="44.15156" lon="5.34528">
        <ele>1292.8</ele>
        <time>2026-06-16T13:03:45.905Z</time>
      </trkpt>
      <trkpt lat="44.15164" lon="5.3452">
        <ele>1293.5</ele>
        <time>2026-06-16T13:03:49.570Z</time>
      </trkpt>
      <trkpt lat="44.1519" lon="5.34489">
        <ele>1292.5</ele>
        <time>2026-06-16T13:04:00.197Z</time>
      </trkpt>
      <trkpt lat="44.15197" lon="5.34485">
        <ele>1292</ele>
        <time>2026-06-16T13:04:02.452Z</time>
      </trkpt>
      <trkpt lat="44.15204" lon="5.34485">
        <ele>1292.5</ele>
        <time>2026-06-16T13:04:05.060Z</time>
      </trkpt>
      <trkpt lat="44.15211" lon="5.34486">
        <ele>1292.7</ele>
        <time>2026-06-16T13:04:07.455Z</time>
      </trkpt>
      <trkpt lat="44.15217" lon="5.3449">
        <ele>1292.1</ele>
        <time>2026-06-16T13:04:09.399Z</time>
      </trkpt>
      <trkpt lat="44.15226" lon="5.345">
        <ele>1292</ele>
        <time>2026-06-16T13:04:13.079Z</time>
      </trkpt>
      <trkpt lat="44.15251" lon="5.34547">
        <ele>1291.4</ele>
        <time>2026-06-16T13:04:26.388Z</time>
      </trkpt>
      <trkpt lat="44.1527" lon="5.34566">
        <ele>1289.5</ele>
        <time>2026-06-16T13:04:33.269Z</time>
      </trkpt>
      <trkpt lat="44.15291" lon="5.34576">
        <ele>1289.2</ele>
        <time>2026-06-16T13:04:40.313Z</time>
      </trkpt>
      <trkpt lat="44.15326" lon="5.34585">
        <ele>1288.2</ele>
        <time>2026-06-16T13:04:51.383Z</time>
      </trkpt>
      <trkpt lat="44.15344" lon="5.34589">
        <ele>1287.2</ele>
        <time>2026-06-16T13:04:56.877Z</time>
      </trkpt>
      <trkpt lat="44.15367" lon="5.3459">
        <ele>1286.6</ele>
        <time>2026-06-16T13:05:04.054Z</time>
      </trkpt>
      <trkpt lat="44.15395" lon="5.34585">
        <ele>1286.4</ele>
        <time>2026-06-16T13:05:13.101Z</time>
      </trkpt>
      <trkpt lat="44.15409" lon="5.34578">
        <ele>1285.9</ele>
        <time>2026-06-16T13:05:17.694Z</time>
      </trkpt>
      <trkpt lat="44.1543" lon="5.34559">
        <ele>1285.1</ele>
        <time>2026-06-16T13:05:25.443Z</time>
      </trkpt>
      <trkpt lat="44.15448" lon="5.34532">
        <ele>1284.3</ele>
        <time>2026-06-16T13:05:33.646Z</time>
      </trkpt>
      <trkpt lat="44.15464" lon="5.34502">
        <ele>1284.6</ele>
        <time>2026-06-16T13:05:42.498Z</time>
      </trkpt>
      <trkpt lat="44.15482" lon="5.3446">
        <ele>1285.2</ele>
        <time>2026-06-16T13:05:54.202Z</time>
      </trkpt>
      <trkpt lat="44.15486" lon="5.34455">
        <ele>1285.5</ele>
        <time>2026-06-16T13:05:56.135Z</time>
      </trkpt>
      <trkpt lat="44.15496" lon="5.34452">
        <ele>1283.6</ele>
        <time>2026-06-16T13:05:59.086Z</time>
      </trkpt>
      <trkpt lat="44.15503" lon="5.34456">
        <ele>1282.5</ele>
        <time>2026-06-16T13:06:01.252Z</time>
      </trkpt>
      <trkpt lat="44.15512" lon="5.34469">
        <ele>1282.2</ele>
        <time>2026-06-16T13:06:05.311Z</time>
      </trkpt>
      <trkpt lat="44.1553" lon="5.34506">
        <ele>1279.5</ele>
        <time>2026-06-16T13:06:14.727Z</time>
      </trkpt>
      <trkpt lat="44.15552" lon="5.34558">
        <ele>1277.5</ele>
        <time>2026-06-16T13:06:27.904Z</time>
      </trkpt>
      <trkpt lat="44.15565" lon="5.34576">
        <ele>1276.5</ele>
        <time>2026-06-16T13:06:33.428Z</time>
      </trkpt>
      <trkpt lat="44.15598" lon="5.34609">
        <ele>1276.2</ele>
        <time>2026-06-16T13:06:46.438Z</time>
      </trkpt>
      <trkpt lat="44.15614" lon="5.34635">
        <ele>1274.7</ele>
        <time>2026-06-16T13:06:53.799Z</time>
      </trkpt>
      <trkpt lat="44.15629" lon="5.34664">
        <ele>1272.4</ele>
        <time>2026-06-16T13:07:01.299Z</time>
      </trkpt>
      <trkpt lat="44.15646" lon="5.34689">
        <ele>1271.3</ele>
        <time>2026-06-16T13:07:08.832Z</time>
      </trkpt>
      <trkpt lat="44.15671" lon="5.34711">
        <ele>1269.5</ele>
        <time>2026-06-16T13:07:17.689Z</time>
      </trkpt>
      <trkpt lat="44.15702" lon="5.34731">
        <ele>1267.7</ele>
        <time>2026-06-16T13:07:28.008Z</time>
      </trkpt>
      <trkpt lat="44.15728" lon="5.34742">
        <ele>1266.2</ele>
        <time>2026-06-16T13:07:36.194Z</time>
      </trkpt>
      <trkpt lat="44.15753" lon="5.34747">
        <ele>1266.7</ele>
        <time>2026-06-16T13:07:44.656Z</time>
      </trkpt>
      <trkpt lat="44.15758" lon="5.3475">
        <ele>1267</ele>
        <time>2026-06-16T13:07:46.611Z</time>
      </trkpt>
      <trkpt lat="44.15767" lon="5.34763">
        <ele>1265.8</ele>
        <time>2026-06-16T13:07:50.394Z</time>
      </trkpt>
      <trkpt lat="44.1577" lon="5.34769">
        <ele>1265.1</ele>
        <time>2026-06-16T13:07:51.899Z</time>
      </trkpt>
      <trkpt lat="44.1577" lon="5.3478">
        <ele>1263.2</ele>
        <time>2026-06-16T13:07:54.287Z</time>
      </trkpt>
      <trkpt lat="44.15766" lon="5.34791">
        <ele>1264.6</ele>
        <time>2026-06-16T13:07:58.482Z</time>
      </trkpt>
      <trkpt lat="44.15754" lon="5.34801">
        <ele>1264.5</ele>
        <time>2026-06-16T13:08:02.962Z</time>
      </trkpt>
      <trkpt lat="44.15725" lon="5.34813">
        <ele>1262.4</ele>
        <time>2026-06-16T13:08:11.951Z</time>
      </trkpt>
      <trkpt lat="44.15717" lon="5.34818">
        <ele>1262</ele>
        <time>2026-06-16T13:08:14.620Z</time>
      </trkpt>
      <trkpt lat="44.15705" lon="5.34829">
        <ele>1262.2</ele>
        <time>2026-06-16T13:08:19.383Z</time>
      </trkpt>
      <trkpt lat="44.15693" lon="5.34845">
        <ele>1261.5</ele>
        <time>2026-06-16T13:08:24.459Z</time>
      </trkpt>
      <trkpt lat="44.1569" lon="5.34854">
        <ele>1261.2</ele>
        <time>2026-06-16T13:08:26.636Z</time>
      </trkpt>
      <trkpt lat="44.15688" lon="5.34869">
        <ele>1260.1</ele>
        <time>2026-06-16T13:08:29.815Z</time>
      </trkpt>
      <trkpt lat="44.1569" lon="5.34878">
        <ele>1260.1</ele>
        <time>2026-06-16T13:08:32.005Z</time>
      </trkpt>
      <trkpt lat="44.15705" lon="5.3491">
        <ele>1261</ele>
        <time>2026-06-16T13:08:41.419Z</time>
      </trkpt>
      <trkpt lat="44.15721" lon="5.3494">
        <ele>1259.8</ele>
        <time>2026-06-16T13:08:49.592Z</time>
      </trkpt>
      <trkpt lat="44.15725" lon="5.34956">
        <ele>1260.2</ele>
        <time>2026-06-16T13:08:53.765Z</time>
      </trkpt>
      <trkpt lat="44.15723" lon="5.34966">
        <ele>1258.7</ele>
        <time>2026-06-16T13:08:55.933Z</time>
      </trkpt>
      <trkpt lat="44.15717" lon="5.34972">
        <ele>1257.6</ele>
        <time>2026-06-16T13:08:58.047Z</time>
      </trkpt>
      <trkpt lat="44.15702" lon="5.34975">
        <ele>1257.6</ele>
        <time>2026-06-16T13:09:02.957Z</time>
      </trkpt>
      <trkpt lat="44.15673" lon="5.34973">
        <ele>1257.1</ele>
        <time>2026-06-16T13:09:12.124Z</time>
      </trkpt>
      <trkpt lat="44.15662" lon="5.34971">
        <ele>1257.3</ele>
        <time>2026-06-16T13:09:15.829Z</time>
      </trkpt>
      <trkpt lat="44.15649" lon="5.34965">
        <ele>1257.4</ele>
        <time>2026-06-16T13:09:20.320Z</time>
      </trkpt>
      <trkpt lat="44.15618" lon="5.34944">
        <ele>1256.6</ele>
        <time>2026-06-16T13:09:31.112Z</time>
      </trkpt>
      <trkpt lat="44.15606" lon="5.34939">
        <ele>1256</ele>
        <time>2026-06-16T13:09:34.915Z</time>
      </trkpt>
      <trkpt lat="44.15585" lon="5.34938">
        <ele>1256.2</ele>
        <time>2026-06-16T13:09:41.831Z</time>
      </trkpt>
      <trkpt lat="44.15566" lon="5.34941">
        <ele>1255.6</ele>
        <time>2026-06-16T13:09:47.753Z</time>
      </trkpt>
      <trkpt lat="44.15541" lon="5.34951">
        <ele>1256</ele>
        <time>2026-06-16T13:09:56.400Z</time>
      </trkpt>
      <trkpt lat="44.15502" lon="5.34977">
        <ele>1256.8</ele>
        <time>2026-06-16T13:10:10.852Z</time>
      </trkpt>
      <trkpt lat="44.15458" lon="5.34997">
        <ele>1256.6</ele>
        <time>2026-06-16T13:10:25.747Z</time>
      </trkpt>
      <trkpt lat="44.15442" lon="5.35">
        <ele>1256.2</ele>
        <time>2026-06-16T13:10:30.791Z</time>
      </trkpt>
      <trkpt lat="44.15396" lon="5.34994">
        <ele>1254.6</ele>
        <time>2026-06-16T13:10:45.043Z</time>
      </trkpt>
      <trkpt lat="44.15352" lon="5.34999">
        <ele>1252</ele>
        <time>2026-06-16T13:10:58.293Z</time>
      </trkpt>
      <trkpt lat="44.15324" lon="5.35011">
        <ele>1250.7</ele>
        <time>2026-06-16T13:11:07.224Z</time>
      </trkpt>
      <trkpt lat="44.15313" lon="5.3502">
        <ele>1250</ele>
        <time>2026-06-16T13:11:11.068Z</time>
      </trkpt>
      <trkpt lat="44.15304" lon="5.3503">
        <ele>1249.7</ele>
        <time>2026-06-16T13:11:14.658Z</time>
      </trkpt>
      <trkpt lat="44.15295" lon="5.35045">
        <ele>1248.2</ele>
        <time>2026-06-16T13:11:18.719Z</time>
      </trkpt>
      <trkpt lat="44.15288" lon="5.35059">
        <ele>1247.3</ele>
        <time>2026-06-16T13:11:22.344Z</time>
      </trkpt>
      <trkpt lat="44.15284" lon="5.35074">
        <ele>1246.5</ele>
        <time>2026-06-16T13:11:25.755Z</time>
      </trkpt>
      <trkpt lat="44.15281" lon="5.35089">
        <ele>1245.6</ele>
        <time>2026-06-16T13:11:29.044Z</time>
      </trkpt>
      <trkpt lat="44.15279" lon="5.35122">
        <ele>1244</ele>
        <time>2026-06-16T13:11:36.118Z</time>
      </trkpt>
      <trkpt lat="44.15277" lon="5.35189">
        <ele>1241</ele>
        <time>2026-06-16T13:11:50.509Z</time>
      </trkpt>
      <trkpt lat="44.15275" lon="5.35206">
        <ele>1240.7</ele>
        <time>2026-06-16T13:11:54.374Z</time>
      </trkpt>
      <trkpt lat="44.15265" lon="5.35238">
        <ele>1238.9</ele>
        <time>2026-06-16T13:12:01.799Z</time>
      </trkpt>
      <trkpt lat="44.15242" lon="5.35289">
        <ele>1235.2</ele>
        <time>2026-06-16T13:12:14.474Z</time>
      </trkpt>
      <trkpt lat="44.15232" lon="5.35318">
        <ele>1233.6</ele>
        <time>2026-06-16T13:12:21.335Z</time>
      </trkpt>
      <trkpt lat="44.15219" lon="5.3539">
        <ele>1230.1</ele>
        <time>2026-06-16T13:12:37.218Z</time>
      </trkpt>
      <trkpt lat="44.15219" lon="5.35405">
        <ele>1229</ele>
        <time>2026-06-16T13:12:40.341Z</time>
      </trkpt>
      <trkpt lat="44.15221" lon="5.35427">
        <ele>1227.9</ele>
        <time>2026-06-16T13:12:45.070Z</time>
      </trkpt>
      <trkpt lat="44.15221" lon="5.35437">
        <ele>1227.2</ele>
        <time>2026-06-16T13:12:47.157Z</time>
      </trkpt>
      <trkpt lat="44.15215" lon="5.35451">
        <ele>1226.2</ele>
        <time>2026-06-16T13:12:50.589Z</time>
      </trkpt>
      <trkpt lat="44.1521" lon="5.35456">
        <ele>1226</ele>
        <time>2026-06-16T13:12:52.492Z</time>
      </trkpt>
      <trkpt lat="44.15186" lon="5.35464">
        <ele>1222.9</ele>
        <time>2026-06-16T13:12:59.582Z</time>
      </trkpt>
      <trkpt lat="44.15176" lon="5.35469">
        <ele>1222.1</ele>
        <time>2026-06-16T13:13:02.723Z</time>
      </trkpt>
      <trkpt lat="44.15145" lon="5.35499">
        <ele>1220</ele>
        <time>2026-06-16T13:13:14.088Z</time>
      </trkpt>
      <trkpt lat="44.15133" lon="5.35513">
        <ele>1218</ele>
        <time>2026-06-16T13:13:18.581Z</time>
      </trkpt>
      <trkpt lat="44.15127" lon="5.35523">
        <ele>1216.8</ele>
        <time>2026-06-16T13:13:21.267Z</time>
      </trkpt>
      <trkpt lat="44.15115" lon="5.35553">
        <ele>1216.6</ele>
        <time>2026-06-16T13:13:29.152Z</time>
      </trkpt>
      <trkpt lat="44.15107" lon="5.35558">
        <ele>1216.4</ele>
        <time>2026-06-16T13:13:31.899Z</time>
      </trkpt>
      <trkpt lat="44.15098" lon="5.35556">
        <ele>1216.5</ele>
        <time>2026-06-16T13:13:34.906Z</time>
      </trkpt>
      <trkpt lat="44.15092" lon="5.35552">
        <ele>1216.1</ele>
        <time>2026-06-16T13:13:36.899Z</time>
      </trkpt>
      <trkpt lat="44.15066" lon="5.35516">
        <ele>1211.9</ele>
        <time>2026-06-16T13:13:47.470Z</time>
      </trkpt>
      <trkpt lat="44.15052" lon="5.35505">
        <ele>1211.5</ele>
        <time>2026-06-16T13:13:52.491Z</time>
      </trkpt>
      <trkpt lat="44.15032" lon="5.355">
        <ele>1209.3</ele>
        <time>2026-06-16T13:13:58.368Z</time>
      </trkpt>
      <trkpt lat="44.15019" lon="5.35499">
        <ele>1208.2</ele>
        <time>2026-06-16T13:14:02.190Z</time>
      </trkpt>
      <trkpt lat="44.15007" lon="5.35501">
        <ele>1207.6</ele>
        <time>2026-06-16T13:14:05.852Z</time>
      </trkpt>
      <trkpt lat="44.14986" lon="5.35511">
        <ele>1206.2</ele>
        <time>2026-06-16T13:14:12.486Z</time>
      </trkpt>
      <trkpt lat="44.14971" lon="5.35522">
        <ele>1205.2</ele>
        <time>2026-06-16T13:14:17.573Z</time>
      </trkpt>
      <trkpt lat="44.14951" lon="5.35539">
        <ele>1203</ele>
        <time>2026-06-16T13:14:24.404Z</time>
      </trkpt>
      <trkpt lat="44.14924" lon="5.35572">
        <ele>1200.5</ele>
        <time>2026-06-16T13:14:35.073Z</time>
      </trkpt>
      <trkpt lat="44.14906" lon="5.35598">
        <ele>1198.9</ele>
        <time>2026-06-16T13:14:42.832Z</time>
      </trkpt>
      <trkpt lat="44.14885" lon="5.3564">
        <ele>1196.3</ele>
        <time>2026-06-16T13:14:53.734Z</time>
      </trkpt>
      <trkpt lat="44.14875" lon="5.35671">
        <ele>1194.9</ele>
        <time>2026-06-16T13:15:01.065Z</time>
      </trkpt>
      <trkpt lat="44.14871" lon="5.35687">
        <ele>1193.7</ele>
        <time>2026-06-16T13:15:04.599Z</time>
      </trkpt>
      <trkpt lat="44.14869" lon="5.35706">
        <ele>1192.6</ele>
        <time>2026-06-16T13:15:08.658Z</time>
      </trkpt>
      <trkpt lat="44.14869" lon="5.3574">
        <ele>1191.2</ele>
        <time>2026-06-16T13:15:15.992Z</time>
      </trkpt>
      <trkpt lat="44.14872" lon="5.35765">
        <ele>1189.9</ele>
        <time>2026-06-16T13:15:21.386Z</time>
      </trkpt>
      <trkpt lat="44.14893" lon="5.3586">
        <ele>1185</ele>
        <time>2026-06-16T13:15:42.595Z</time>
      </trkpt>
      <trkpt lat="44.14898" lon="5.35873">
        <ele>1183.8</ele>
        <time>2026-06-16T13:15:45.649Z</time>
      </trkpt>
      <trkpt lat="44.14905" lon="5.35883">
        <ele>1183.5</ele>
        <time>2026-06-16T13:15:48.760Z</time>
      </trkpt>
      <trkpt lat="44.14943" lon="5.3592">
        <ele>1182.3</ele>
        <time>2026-06-16T13:16:03.221Z</time>
      </trkpt>
      <trkpt lat="44.14949" lon="5.35928">
        <ele>1182.5</ele>
        <time>2026-06-16T13:16:06.025Z</time>
      </trkpt>
      <trkpt lat="44.14952" lon="5.35936">
        <ele>1181.8</ele>
        <time>2026-06-16T13:16:07.899Z</time>
      </trkpt>
      <trkpt lat="44.14953" lon="5.35949">
        <ele>1180.4</ele>
        <time>2026-06-16T13:16:10.584Z</time>
      </trkpt>
      <trkpt lat="44.14947" lon="5.35961">
        <ele>1179.3</ele>
        <time>2026-06-16T13:16:13.625Z</time>
      </trkpt>
      <trkpt lat="44.14943" lon="5.35965">
        <ele>1179</ele>
        <time>2026-06-16T13:16:15.100Z</time>
      </trkpt>
      <trkpt lat="44.14938" lon="5.35966">
        <ele>1179.1</ele>
        <time>2026-06-16T13:16:16.792Z</time>
      </trkpt>
      <trkpt lat="44.14929" lon="5.35964">
        <ele>1179</ele>
        <time>2026-06-16T13:16:19.696Z</time>
      </trkpt>
      <trkpt lat="44.14776" lon="5.35911">
        <ele>1165.5</ele>
        <time>2026-06-16T13:17:05.930Z</time>
      </trkpt>
      <trkpt lat="44.14762" lon="5.35911">
        <ele>1164.6</ele>
        <time>2026-06-16T13:17:10.110Z</time>
      </trkpt>
      <trkpt lat="44.14747" lon="5.35914">
        <ele>1164.1</ele>
        <time>2026-06-16T13:17:14.794Z</time>
      </trkpt>
      <trkpt lat="44.14706" lon="5.35925">
        <ele>1161.4</ele>
        <time>2026-06-16T13:17:27.256Z</time>
      </trkpt>
      <trkpt lat="44.1468" lon="5.35939">
        <ele>1159.8</ele>
        <time>2026-06-16T13:17:35.634Z</time>
      </trkpt>
      <trkpt lat="44.14657" lon="5.35959">
        <ele>1158.1</ele>
        <time>2026-06-16T13:17:43.741Z</time>
      </trkpt>
      <trkpt lat="44.14641" lon="5.35981">
        <ele>1157</ele>
        <time>2026-06-16T13:17:50.558Z</time>
      </trkpt>
      <trkpt lat="44.14626" lon="5.36012">
        <ele>1155.6</ele>
        <time>2026-06-16T13:17:58.667Z</time>
      </trkpt>
      <trkpt lat="44.14611" lon="5.36056">
        <ele>1154</ele>
        <time>2026-06-16T13:18:09.307Z</time>
      </trkpt>
      <trkpt lat="44.14606" lon="5.36077">
        <ele>1152.7</ele>
        <time>2026-06-16T13:18:13.976Z</time>
      </trkpt>
      <trkpt lat="44.14601" lon="5.36108">
        <ele>1151.5</ele>
        <time>2026-06-16T13:18:20.864Z</time>
      </trkpt>
      <trkpt lat="44.14598" lon="5.36144">
        <ele>1150.5</ele>
        <time>2026-06-16T13:18:28.848Z</time>
      </trkpt>
      <trkpt lat="44.14598" lon="5.36177">
        <ele>1149.1</ele>
        <time>2026-06-16T13:18:35.954Z</time>
      </trkpt>
      <trkpt lat="44.14604" lon="5.36247">
        <ele>1147.2</ele>
        <time>2026-06-16T13:18:51.502Z</time>
      </trkpt>
      <trkpt lat="44.14603" lon="5.36279">
        <ele>1146</ele>
        <time>2026-06-16T13:18:58.448Z</time>
      </trkpt>
      <trkpt lat="44.14598" lon="5.36297">
        <ele>1145</ele>
        <time>2026-06-16T13:19:02.554Z</time>
      </trkpt>
      <trkpt lat="44.14593" lon="5.36306">
        <ele>1144.1</ele>
        <time>2026-06-16T13:19:04.914Z</time>
      </trkpt>
      <trkpt lat="44.14581" lon="5.36321">
        <ele>1142.7</ele>
        <time>2026-06-16T13:19:09.637Z</time>
      </trkpt>
      <trkpt lat="44.14554" lon="5.3635">
        <ele>1141.6</ele>
        <time>2026-06-16T13:19:20.184Z</time>
      </trkpt>
      <trkpt lat="44.1452" lon="5.36389">
        <ele>1139.2</ele>
        <time>2026-06-16T13:19:33.460Z</time>
      </trkpt>
      <trkpt lat="44.14513" lon="5.36401">
        <ele>1138.6</ele>
        <time>2026-06-16T13:19:36.808Z</time>
      </trkpt>
      <trkpt lat="44.14509" lon="5.36412">
        <ele>1138.2</ele>
        <time>2026-06-16T13:19:39.503Z</time>
      </trkpt>
      <trkpt lat="44.14507" lon="5.36424">
        <ele>1137.9</ele>
        <time>2026-06-16T13:19:42.232Z</time>
      </trkpt>
      <trkpt lat="44.14506" lon="5.36437">
        <ele>1137.7</ele>
        <time>2026-06-16T13:19:45.177Z</time>
      </trkpt>
      <trkpt lat="44.14507" lon="5.36448">
        <ele>1137.5</ele>
        <time>2026-06-16T13:19:47.662Z</time>
      </trkpt>
      <trkpt lat="44.14512" lon="5.36472">
        <ele>1136.3</ele>
        <time>2026-06-16T13:19:53.003Z</time>
      </trkpt>
      <trkpt lat="44.14579" lon="5.36622">
        <ele>1131.4</ele>
        <time>2026-06-16T13:20:31.919Z</time>
      </trkpt>
      <trkpt lat="44.14583" lon="5.36635">
        <ele>1131.2</ele>
        <time>2026-06-16T13:20:35.113Z</time>
      </trkpt>
      <trkpt lat="44.14584" lon="5.36645">
        <ele>1131.3</ele>
        <time>2026-06-16T13:20:37.515Z</time>
      </trkpt>
      <trkpt lat="44.14581" lon="5.36653">
        <ele>1131.2</ele>
        <time>2026-06-16T13:20:39.565Z</time>
      </trkpt>
      <trkpt lat="44.14577" lon="5.3666">
        <ele>1131</ele>
        <time>2026-06-16T13:20:41.554Z</time>
      </trkpt>
      <trkpt lat="44.14572" lon="5.36664">
        <ele>1130.6</ele>
        <time>2026-06-16T13:20:43.268Z</time>
      </trkpt>
      <trkpt lat="44.14566" lon="5.36665">
        <ele>1130</ele>
        <time>2026-06-16T13:20:45.024Z</time>
      </trkpt>
      <trkpt lat="44.14475" lon="5.36651">
        <ele>1122.7</ele>
        <time>2026-06-16T13:21:11.993Z</time>
      </trkpt>
      <trkpt lat="44.1445" lon="5.36653">
        <ele>1121</ele>
        <time>2026-06-16T13:21:19.445Z</time>
      </trkpt>
      <trkpt lat="44.1443" lon="5.36657">
        <ele>1119.7</ele>
        <time>2026-06-16T13:21:25.477Z</time>
      </trkpt>
      <trkpt lat="44.14399" lon="5.36667">
        <ele>1118.1</ele>
        <time>2026-06-16T13:21:35.114Z</time>
      </trkpt>
      <trkpt lat="44.14383" lon="5.36676">
        <ele>1117.4</ele>
        <time>2026-06-16T13:21:40.398Z</time>
      </trkpt>
      <trkpt lat="44.14342" lon="5.36706">
        <ele>1114.6</ele>
        <time>2026-06-16T13:21:54.275Z</time>
      </trkpt>
      <trkpt lat="44.14329" lon="5.36721">
        <ele>1113.9</ele>
        <time>2026-06-16T13:21:59.438Z</time>
      </trkpt>
      <trkpt lat="44.14299" lon="5.36763">
        <ele>1112.3</ele>
        <time>2026-06-16T13:22:12.507Z</time>
      </trkpt>
      <trkpt lat="44.14283" lon="5.36797">
        <ele>1110.8</ele>
        <time>2026-06-16T13:22:21.333Z</time>
      </trkpt>
      <trkpt lat="44.14278" lon="5.36816">
        <ele>1110.1</ele>
        <time>2026-06-16T13:22:25.742Z</time>
      </trkpt>
      <trkpt lat="44.14272" lon="5.36859">
        <ele>1108.3</ele>
        <time>2026-06-16T13:22:35.192Z</time>
      </trkpt>
      <trkpt lat="44.14266" lon="5.36964">
        <ele>1104.8</ele>
        <time>2026-06-16T13:22:58.186Z</time>
      </trkpt>
      <trkpt lat="44.14262" lon="5.37004">
        <ele>1103.5</ele>
        <time>2026-06-16T13:23:07.017Z</time>
      </trkpt>
      <trkpt lat="44.1426" lon="5.37016">
        <ele>1103</ele>
        <time>2026-06-16T13:23:09.677Z</time>
      </trkpt>
      <trkpt lat="44.14255" lon="5.37027">
        <ele>1102.1</ele>
        <time>2026-06-16T13:23:12.398Z</time>
      </trkpt>
      <trkpt lat="44.14237" lon="5.37053">
        <ele>1099.6</ele>
        <time>2026-06-16T13:23:19.946Z</time>
      </trkpt>
      <trkpt lat="44.14229" lon="5.3706">
        <ele>1098.7</ele>
        <time>2026-06-16T13:23:22.698Z</time>
      </trkpt>
      <trkpt lat="44.14222" lon="5.37063">
        <ele>1098</ele>
        <time>2026-06-16T13:23:24.831Z</time>
      </trkpt>
      <trkpt lat="44.1421" lon="5.37062">
        <ele>1098.1</ele>
        <time>2026-06-16T13:23:28.780Z</time>
      </trkpt>
      <trkpt lat="44.14202" lon="5.37055">
        <ele>1098</ele>
        <time>2026-06-16T13:23:31.791Z</time>
      </trkpt>
      <trkpt lat="44.14197" lon="5.37048">
        <ele>1098</ele>
        <time>2026-06-16T13:23:34.088Z</time>
      </trkpt>
      <trkpt lat="44.14194" lon="5.37038">
        <ele>1098</ele>
        <time>2026-06-16T13:23:36.608Z</time>
      </trkpt>
      <trkpt lat="44.1418" lon="5.36975">
        <ele>1095.2</ele>
        <time>2026-06-16T13:23:50.809Z</time>
      </trkpt>
      <trkpt lat="44.14173" lon="5.36954">
        <ele>1093.7</ele>
        <time>2026-06-16T13:23:55.666Z</time>
      </trkpt>
      <trkpt lat="44.14141" lon="5.36896">
        <ele>1089.9</ele>
        <time>2026-06-16T13:24:11.227Z</time>
      </trkpt>
      <trkpt lat="44.14113" lon="5.36862">
        <ele>1088</ele>
        <time>2026-06-16T13:24:22.464Z</time>
      </trkpt>
      <trkpt lat="44.14083" lon="5.36834">
        <ele>1085.1</ele>
        <time>2026-06-16T13:24:33.096Z</time>
      </trkpt>
      <trkpt lat="44.14059" lon="5.36818">
        <ele>1083.7</ele>
        <time>2026-06-16T13:24:41.133Z</time>
      </trkpt>
      <trkpt lat="44.14047" lon="5.36811">
        <ele>1082.8</ele>
        <time>2026-06-16T13:24:44.999Z</time>
      </trkpt>
      <trkpt lat="44.13998" lon="5.36791">
        <ele>1078.3</ele>
        <time>2026-06-16T13:24:59.946Z</time>
      </trkpt>
      <trkpt lat="44.13952" lon="5.36785">
        <ele>1075.8</ele>
        <time>2026-06-16T13:25:13.882Z</time>
      </trkpt>
      <trkpt lat="44.13922" lon="5.36784">
        <ele>1073.5</ele>
        <time>2026-06-16T13:25:22.743Z</time>
      </trkpt>
      <trkpt lat="44.13905" lon="5.36784">
        <ele>1071.9</ele>
        <time>2026-06-16T13:25:27.700Z</time>
      </trkpt>
      <trkpt lat="44.13884" lon="5.3679">
        <ele>1070.4</ele>
        <time>2026-06-16T13:25:34.067Z</time>
      </trkpt>
      <trkpt lat="44.13861" lon="5.36801">
        <ele>1068.3</ele>
        <time>2026-06-16T13:25:41.194Z</time>
      </trkpt>
      <trkpt lat="44.13827" lon="5.36824">
        <ele>1065.9</ele>
        <time>2026-06-16T13:25:52.487Z</time>
      </trkpt>
      <trkpt lat="44.13809" lon="5.36844">
        <ele>1064.4</ele>
        <time>2026-06-16T13:25:59.355Z</time>
      </trkpt>
      <trkpt lat="44.1377" lon="5.36893">
        <ele>1061.2</ele>
        <time>2026-06-16T13:26:15.084Z</time>
      </trkpt>
      <trkpt lat="44.13753" lon="5.36908">
        <ele>1059.8</ele>
        <time>2026-06-16T13:26:21.063Z</time>
      </trkpt>
      <trkpt lat="44.13732" lon="5.36921">
        <ele>1058.4</ele>
        <time>2026-06-16T13:26:27.946Z</time>
      </trkpt>
      <trkpt lat="44.13712" lon="5.36929">
        <ele>1056.7</ele>
        <time>2026-06-16T13:26:34.066Z</time>
      </trkpt>
      <trkpt lat="44.13669" lon="5.36944">
        <ele>1054.2</ele>
        <time>2026-06-16T13:26:47.404Z</time>
      </trkpt>
      <trkpt lat="44.13635" lon="5.36951">
        <ele>1051.4</ele>
        <time>2026-06-16T13:26:57.515Z</time>
      </trkpt>
      <trkpt lat="44.1361" lon="5.3696">
        <ele>1050</ele>
        <time>2026-06-16T13:27:05.302Z</time>
      </trkpt>
      <trkpt lat="44.13573" lon="5.36981">
        <ele>1046.9</ele>
        <time>2026-06-16T13:27:17.091Z</time>
      </trkpt>
      <trkpt lat="44.1353" lon="5.37013">
        <ele>1043.3</ele>
        <time>2026-06-16T13:27:31.521Z</time>
      </trkpt>
      <trkpt lat="44.13463" lon="5.37061">
        <ele>1040.2</ele>
        <time>2026-06-16T13:27:54.577Z</time>
      </trkpt>
      <trkpt lat="44.13445" lon="5.37076">
        <ele>1038.8</ele>
        <time>2026-06-16T13:28:00.824Z</time>
      </trkpt>
      <trkpt lat="44.13439" lon="5.37085">
        <ele>1038.4</ele>
        <time>2026-06-16T13:28:03.509Z</time>
      </trkpt>
      <trkpt lat="44.13436" lon="5.37095">
        <ele>1038</ele>
        <time>2026-06-16T13:28:05.862Z</time>
      </trkpt>
      <trkpt lat="44.13434" lon="5.37107">
        <ele>1037.6</ele>
        <time>2026-06-16T13:28:08.555Z</time>
      </trkpt>
      <trkpt lat="44.13435" lon="5.37127">
        <ele>1036.7</ele>
        <time>2026-06-16T13:28:12.858Z</time>
      </trkpt>
      <trkpt lat="44.13439" lon="5.37136">
        <ele>1036.6</ele>
        <time>2026-06-16T13:28:15.271Z</time>
      </trkpt>
      <trkpt lat="44.13445" lon="5.37147">
        <ele>1035.9</ele>
        <time>2026-06-16T13:28:18.214Z</time>
      </trkpt>
      <trkpt lat="44.13553" lon="5.37285">
        <ele>1029.4</ele>
        <time>2026-06-16T13:29:02.892Z</time>
      </trkpt>
      <trkpt lat="44.1357" lon="5.37304">
        <ele>1027.3</ele>
        <time>2026-06-16T13:29:09.237Z</time>
      </trkpt>
      <trkpt lat="44.13596" lon="5.37324">
        <ele>1025.1</ele>
        <time>2026-06-16T13:29:18.026Z</time>
      </trkpt>
      <trkpt lat="44.13634" lon="5.37344">
        <ele>1022.8</ele>
        <time>2026-06-16T13:29:30.246Z</time>
      </trkpt>
      <trkpt lat="44.13641" lon="5.3735">
        <ele>1022</ele>
        <time>2026-06-16T13:29:32.638Z</time>
      </trkpt>
      <trkpt lat="44.13645" lon="5.37358">
        <ele>1020.2</ele>
        <time>2026-06-16T13:29:34.808Z</time>
      </trkpt>
      <trkpt lat="44.13646" lon="5.37368">
        <ele>1019.3</ele>
        <time>2026-06-16T13:29:36.890Z</time>
      </trkpt>
      <trkpt lat="44.13646" lon="5.37378">
        <ele>1018.9</ele>
        <time>2026-06-16T13:29:39.051Z</time>
      </trkpt>
      <trkpt lat="44.13642" lon="5.37387">
        <ele>1018.3</ele>
        <time>2026-06-16T13:29:41.291Z</time>
      </trkpt>
      <trkpt lat="44.13637" lon="5.37393">
        <ele>1018.7</ele>
        <time>2026-06-16T13:29:43.690Z</time>
      </trkpt>
      <trkpt lat="44.1363" lon="5.37396">
        <ele>1018.8</ele>
        <time>2026-06-16T13:29:46.117Z</time>
      </trkpt>
      <trkpt lat="44.13553" lon="5.37409">
        <ele>1012.5</ele>
        <time>2026-06-16T13:30:08.939Z</time>
      </trkpt>
      <trkpt lat="44.13441" lon="5.3744">
        <ele>1005.4</ele>
        <time>2026-06-16T13:30:43.100Z</time>
      </trkpt>
      <trkpt lat="44.13432" lon="5.37443">
        <ele>1005</ele>
        <time>2026-06-16T13:30:45.926Z</time>
      </trkpt>
      <trkpt lat="44.13392" lon="5.37452">
        <ele>1002.6</ele>
        <time>2026-06-16T13:30:58.083Z</time>
      </trkpt>
      <trkpt lat="44.13365" lon="5.37447">
        <ele>1001.5</ele>
        <time>2026-06-16T13:31:06.426Z</time>
      </trkpt>
      <trkpt lat="44.13276" lon="5.37418">
        <ele>995.4</ele>
        <time>2026-06-16T13:31:33.652Z</time>
      </trkpt>
      <trkpt lat="44.13126" lon="5.37338">
        <ele>985.1</ele>
        <time>2026-06-16T13:32:21.613Z</time>
      </trkpt>
      <trkpt lat="44.13098" lon="5.37326">
        <ele>983.7</ele>
        <time>2026-06-16T13:32:30.510Z</time>
      </trkpt>
      <trkpt lat="44.13045" lon="5.37312">
        <ele>980.2</ele>
        <time>2026-06-16T13:32:46.607Z</time>
      </trkpt>
      <trkpt lat="44.13033" lon="5.37312">
        <ele>979.3</ele>
        <time>2026-06-16T13:32:50.155Z</time>
      </trkpt>
      <trkpt lat="44.13008" lon="5.37315">
        <ele>977.7</ele>
        <time>2026-06-16T13:32:57.651Z</time>
      </trkpt>
      <trkpt lat="44.12989" lon="5.37323">
        <ele>976.5</ele>
        <time>2026-06-16T13:33:03.599Z</time>
      </trkpt>
      <trkpt lat="44.12988" lon="5.3733">
        <ele>977.3</ele>
        <time>2026-06-16T13:33:06.011Z</time>
      </trkpt>
      <trkpt lat="44.12982" lon="5.37337">
        <ele>977.8</ele>
        <time>2026-06-16T13:33:08.877Z</time>
      </trkpt>
      <trkpt lat="44.12979" lon="5.37339">
        <ele>977.8</ele>
        <time>2026-06-16T13:33:09.955Z</time>
        <extensions>
          <visugpx:TrkExtension xmlns:visugpx="https://www.visugpx.com/editgpx/">
            <visugpx:node>17</visugpx:node>
            </visugpx:TrkExtension>
        </extensions>
      </trkpt>
      <trkpt lat="44.12982" lon="5.37337">
        <ele>977.8</ele>
        <time>2026-06-16T13:33:11.032Z</time>
      </trkpt>
      <trkpt lat="44.12988" lon="5.3733">
        <ele>977.3</ele>
        <time>2026-06-16T13:33:13.370Z</time>
      </trkpt>
      <trkpt lat="44.12989" lon="5.37323">
        <ele>976.5</ele>
        <time>2026-06-16T13:33:14.836Z</time>
      </trkpt>
      <trkpt lat="44.12947" lon="5.37343">
        <ele>975</ele>
        <time>2026-06-16T13:33:28.542Z</time>
      </trkpt>
      <trkpt lat="44.12938" lon="5.37346">
        <ele>974.6</ele>
        <time>2026-06-16T13:33:31.367Z</time>
      </trkpt>
      <trkpt lat="44.12897" lon="5.37351">
        <ele>971.5</ele>
        <time>2026-06-16T13:33:43.535Z</time>
      </trkpt>
      <trkpt lat="44.12844" lon="5.37353">
        <ele>967.7</ele>
        <time>2026-06-16T13:33:59.258Z</time>
      </trkpt>
      <trkpt lat="44.12822" lon="5.37351">
        <ele>966.5</ele>
        <time>2026-06-16T13:34:05.906Z</time>
      </trkpt>
      <trkpt lat="44.12786" lon="5.37344">
        <ele>964.4</ele>
        <time>2026-06-16T13:34:16.828Z</time>
      </trkpt>
      <trkpt lat="44.12688" lon="5.3731">
        <ele>957.8</ele>
        <time>2026-06-16T13:34:46.950Z</time>
      </trkpt>
      <trkpt lat="44.12655" lon="5.37303">
        <ele>956.1</ele>
        <time>2026-06-16T13:34:57.053Z</time>
      </trkpt>
      <trkpt lat="44.12499" lon="5.37303">
        <ele>946.5</ele>
        <time>2026-06-16T13:35:43.753Z</time>
      </trkpt>
      <trkpt lat="44.12471" lon="5.37308">
        <ele>945.2</ele>
        <time>2026-06-16T13:35:52.343Z</time>
      </trkpt>
      <trkpt lat="44.12433" lon="5.3732">
        <ele>942.6</ele>
        <time>2026-06-16T13:36:03.949Z</time>
      </trkpt>
      <trkpt lat="44.12394" lon="5.37344">
        <ele>940.4</ele>
        <time>2026-06-16T13:36:16.844Z</time>
      </trkpt>
      <trkpt lat="44.1237" lon="5.37363">
        <ele>938.5</ele>
        <time>2026-06-16T13:36:25.051Z</time>
      </trkpt>
      <trkpt lat="44.12357" lon="5.37375">
        <ele>937.8</ele>
        <time>2026-06-16T13:36:29.803Z</time>
      </trkpt>
      <trkpt lat="44.12277" lon="5.37466">
        <ele>931.4</ele>
        <time>2026-06-16T13:37:00.708Z</time>
      </trkpt>
      <trkpt lat="44.12233" lon="5.37524">
        <ele>927.8</ele>
        <time>2026-06-16T13:37:18.880Z</time>
      </trkpt>
      <trkpt lat="44.12199" lon="5.37575">
        <ele>925.2</ele>
        <time>2026-06-16T13:37:33.983Z</time>
      </trkpt>
      <trkpt lat="44.1218" lon="5.37612">
        <ele>922.4</ele>
        <time>2026-06-16T13:37:43.559Z</time>
      </trkpt>
      <trkpt lat="44.12158" lon="5.37669">
        <ele>919.8</ele>
        <time>2026-06-16T13:37:57.545Z</time>
      </trkpt>
      <trkpt lat="44.12144" lon="5.37724">
        <ele>917</ele>
        <time>2026-06-16T13:38:10.022Z</time>
      </trkpt>
      <trkpt lat="44.12127" lon="5.37792">
        <ele>913.9</ele>
        <time>2026-06-16T13:38:25.520Z</time>
      </trkpt>
      <trkpt lat="44.12115" lon="5.37837">
        <ele>912.4</ele>
        <time>2026-06-16T13:38:36.036Z</time>
      </trkpt>
      <trkpt lat="44.1211" lon="5.3785">
        <ele>911.8</ele>
        <time>2026-06-16T13:38:39.221Z</time>
      </trkpt>
      <trkpt lat="44.12103" lon="5.37864">
        <ele>911.2</ele>
        <time>2026-06-16T13:38:42.936Z</time>
      </trkpt>
      <trkpt lat="44.12089" lon="5.37882">
        <ele>909.8</ele>
        <time>2026-06-16T13:38:48.577Z</time>
      </trkpt>
      <trkpt lat="44.12023" lon="5.37959">
        <ele>904.8</ele>
        <time>2026-06-16T13:39:14.438Z</time>
      </trkpt>
      <trkpt lat="44.12002" lon="5.37987">
        <ele>902.8</ele>
        <time>2026-06-16T13:39:23.081Z</time>
      </trkpt>
      <trkpt lat="44.11944" lon="5.38079">
        <ele>897.8</ele>
        <time>2026-06-16T13:39:49.516Z</time>
      </trkpt>
      <trkpt lat="44.11913" lon="5.38132">
        <ele>894.4</ele>
        <time>2026-06-16T13:40:04.102Z</time>
      </trkpt>
      <trkpt lat="44.11905" lon="5.38161">
        <ele>893.2</ele>
        <time>2026-06-16T13:40:10.831Z</time>
      </trkpt>
      <trkpt lat="44.11902" lon="5.38184">
        <ele>892.3</ele>
        <time>2026-06-16T13:40:15.895Z</time>
      </trkpt>
      <trkpt lat="44.11898" lon="5.38211">
        <ele>891.5</ele>
        <time>2026-06-16T13:40:21.957Z</time>
      </trkpt>
      <trkpt lat="44.11893" lon="5.38224">
        <ele>890.6</ele>
        <time>2026-06-16T13:40:25.064Z</time>
      </trkpt>
      <trkpt lat="44.11886" lon="5.38234">
        <ele>890.1</ele>
        <time>2026-06-16T13:40:28.102Z</time>
      </trkpt>
      <trkpt lat="44.11753" lon="5.38369">
        <ele>880.2</ele>
        <time>2026-06-16T13:41:17.433Z</time>
      </trkpt>
      <trkpt lat="44.11738" lon="5.38386">
        <ele>878.7</ele>
        <time>2026-06-16T13:41:23.139Z</time>
      </trkpt>
      <trkpt lat="44.1173" lon="5.384">
        <ele>878.1</ele>
        <time>2026-06-16T13:41:27.045Z</time>
      </trkpt>
      <trkpt lat="44.11723" lon="5.38417">
        <ele>878</ele>
        <time>2026-06-16T13:41:31.554Z</time>
      </trkpt>
      <trkpt lat="44.11718" lon="5.38434">
        <ele>876.9</ele>
        <time>2026-06-16T13:41:35.428Z</time>
      </trkpt>
      <trkpt lat="44.11715" lon="5.38463">
        <ele>875.6</ele>
        <time>2026-06-16T13:41:41.723Z</time>
      </trkpt>
      <trkpt lat="44.11717" lon="5.38487">
        <ele>874.5</ele>
        <time>2026-06-16T13:41:46.907Z</time>
      </trkpt>
      <trkpt lat="44.11721" lon="5.38502">
        <ele>873.8</ele>
        <time>2026-06-16T13:41:50.347Z</time>
      </trkpt>
      <trkpt lat="44.11726" lon="5.38523">
        <ele>872.6</ele>
        <time>2026-06-16T13:41:55.042Z</time>
      </trkpt>
      <trkpt lat="44.11736" lon="5.38547">
        <ele>871.3</ele>
        <time>2026-06-16T13:42:00.985Z</time>
      </trkpt>
      <trkpt lat="44.11744" lon="5.38562">
        <ele>870.3</ele>
        <time>2026-06-16T13:42:04.953Z</time>
      </trkpt>
      <trkpt lat="44.11771" lon="5.386">
        <ele>868.4</ele>
        <time>2026-06-16T13:42:16.588Z</time>
      </trkpt>
      <trkpt lat="44.11774" lon="5.38608">
        <ele>868</ele>
        <time>2026-06-16T13:42:18.527Z</time>
      </trkpt>
      <trkpt lat="44.11774" lon="5.38617">
        <ele>867.7</ele>
        <time>2026-06-16T13:42:20.493Z</time>
      </trkpt>
      <trkpt lat="44.1177" lon="5.3863">
        <ele>867.2</ele>
        <time>2026-06-16T13:42:23.571Z</time>
      </trkpt>
      <trkpt lat="44.11714" lon="5.38681">
        <ele>862.6</ele>
        <time>2026-06-16T13:42:43.465Z</time>
      </trkpt>
      <trkpt lat="44.117" lon="5.38691">
        <ele>861.5</ele>
        <time>2026-06-16T13:42:48.138Z</time>
      </trkpt>
      <trkpt lat="44.11622" lon="5.38737">
        <ele>856</ele>
        <time>2026-06-16T13:43:13.412Z</time>
      </trkpt>
      <trkpt lat="44.11605" lon="5.38749">
        <ele>855.3</ele>
        <time>2026-06-16T13:43:19.276Z</time>
      </trkpt>
      <trkpt lat="44.11594" lon="5.38759">
        <ele>854.4</ele>
        <time>2026-06-16T13:43:23.182Z</time>
      </trkpt>
      <trkpt lat="44.11577" lon="5.38781">
        <ele>853.3</ele>
        <time>2026-06-16T13:43:30.232Z</time>
      </trkpt>
      <trkpt lat="44.11532" lon="5.38872">
        <ele>850.3</ele>
        <time>2026-06-16T13:43:54.607Z</time>
      </trkpt>
      <trkpt lat="44.11525" lon="5.38883">
        <ele>849.9</ele>
        <time>2026-06-16T13:43:57.849Z</time>
      </trkpt>
      <trkpt lat="44.11511" lon="5.38896">
        <ele>849.4</ele>
        <time>2026-06-16T13:44:03.072Z</time>
      </trkpt>
      <trkpt lat="44.11495" lon="5.38901">
        <ele>849</ele>
        <time>2026-06-16T13:44:08.198Z</time>
      </trkpt>
      <trkpt lat="44.11486" lon="5.38899">
        <ele>849</ele>
        <time>2026-06-16T13:44:11.151Z</time>
      </trkpt>
      <trkpt lat="44.1146" lon="5.38886">
        <ele>848.4</ele>
        <time>2026-06-16T13:44:19.818Z</time>
      </trkpt>
      <trkpt lat="44.11448" lon="5.38883">
        <ele>847.7</ele>
        <time>2026-06-16T13:44:23.483Z</time>
      </trkpt>
      <trkpt lat="44.11437" lon="5.38884">
        <ele>847.2</ele>
        <time>2026-06-16T13:44:26.840Z</time>
      </trkpt>
      <trkpt lat="44.11427" lon="5.38888">
        <ele>846.7</ele>
        <time>2026-06-16T13:44:29.999Z</time>
      </trkpt>
      <trkpt lat="44.1136" lon="5.38933">
        <ele>844.5</ele>
        <time>2026-06-16T13:44:53.091Z</time>
      </trkpt>
      <trkpt lat="44.11343" lon="5.38938">
        <ele>843.6</ele>
        <time>2026-06-16T13:44:58.345Z</time>
      </trkpt>
      <trkpt lat="44.11325" lon="5.38933">
        <ele>842.7</ele>
        <time>2026-06-16T13:45:03.911Z</time>
      </trkpt>
      <trkpt lat="44.11307" lon="5.38919">
        <ele>842.1</ele>
        <time>2026-06-16T13:45:10.316Z</time>
      </trkpt>
      <trkpt lat="44.11269" lon="5.38882">
        <ele>840.8</ele>
        <time>2026-06-16T13:45:24.739Z</time>
      </trkpt>
      <trkpt lat="44.1126" lon="5.38876">
        <ele>840.5</ele>
        <time>2026-06-16T13:45:27.835Z</time>
      </trkpt>
      <trkpt lat="44.1125" lon="5.38872">
        <ele>840.4</ele>
        <time>2026-06-16T13:45:31.156Z</time>
      </trkpt>
      <trkpt lat="44.11226" lon="5.3887">
        <ele>838.9</ele>
        <time>2026-06-16T13:45:38.348Z</time>
      </trkpt>
      <trkpt lat="44.1118" lon="5.38873">
        <ele>837.1</ele>
        <time>2026-06-16T13:45:52.475Z</time>
      </trkpt>
      <trkpt lat="44.11126" lon="5.3887">
        <ele>834.7</ele>
        <time>2026-06-16T13:46:08.951Z</time>
      </trkpt>
      <trkpt lat="44.11096" lon="5.38873">
        <ele>833.5</ele>
        <time>2026-06-16T13:46:18.169Z</time>
      </trkpt>
      <trkpt lat="44.11067" lon="5.38883">
        <ele>832.4</ele>
        <time>2026-06-16T13:46:27.360Z</time>
      </trkpt>
      <trkpt lat="44.11041" lon="5.38899">
        <ele>831.2</ele>
        <time>2026-06-16T13:46:36.048Z</time>
      </trkpt>
      <trkpt lat="44.11021" lon="5.3892">
        <ele>830.1</ele>
        <time>2026-06-16T13:46:43.688Z</time>
      </trkpt>
      <trkpt lat="44.11009" lon="5.38935">
        <ele>829.2</ele>
        <time>2026-06-16T13:46:48.543Z</time>
      </trkpt>
      <trkpt lat="44.10987" lon="5.38973">
        <ele>828.1</ele>
        <time>2026-06-16T13:46:59.399Z</time>
      </trkpt>
      <trkpt lat="44.10981" lon="5.38989">
        <ele>827.6</ele>
        <time>2026-06-16T13:47:03.377Z</time>
      </trkpt>
      <trkpt lat="44.10977" lon="5.39011">
        <ele>826.9</ele>
        <time>2026-06-16T13:47:08.353Z</time>
      </trkpt>
      <trkpt lat="44.10972" lon="5.39053">
        <ele>826</ele>
        <time>2026-06-16T13:47:17.845Z</time>
      </trkpt>
      <trkpt lat="44.10972" lon="5.3907">
        <ele>825.5</ele>
        <time>2026-06-16T13:47:21.581Z</time>
      </trkpt>
      <trkpt lat="44.10974" lon="5.39083">
        <ele>825.1</ele>
        <time>2026-06-16T13:47:24.500Z</time>
      </trkpt>
      <trkpt lat="44.10978" lon="5.39095">
        <ele>824</ele>
        <time>2026-06-16T13:47:27.239Z</time>
      </trkpt>
      <trkpt lat="44.10983" lon="5.39104">
        <ele>823.4</ele>
        <time>2026-06-16T13:47:29.658Z</time>
      </trkpt>
      <trkpt lat="44.1099" lon="5.39114">
        <ele>822.9</ele>
        <time>2026-06-16T13:47:32.696Z</time>
      </trkpt>
      <trkpt lat="44.11049" lon="5.39169">
        <ele>818.5</ele>
        <time>2026-06-16T13:47:53.941Z</time>
      </trkpt>
      <trkpt lat="44.11044" lon="5.39172">
        <ele>818</ele>
        <time>2026-06-16T13:47:55.530Z</time>
      </trkpt>
      <trkpt lat="44.11027" lon="5.3917">
        <ele>817.6</ele>
        <time>2026-06-16T13:48:00.870Z</time>
      </trkpt>
      <trkpt lat="44.11014" lon="5.39174">
        <ele>816.6</ele>
        <time>2026-06-16T13:48:04.807Z</time>
      </trkpt>
      <trkpt lat="44.10994" lon="5.39177">
        <ele>815.2</ele>
        <time>2026-06-16T13:48:10.783Z</time>
      </trkpt>
      <trkpt lat="44.10983" lon="5.39181">
        <ele>814</ele>
        <time>2026-06-16T13:48:14.076Z</time>
      </trkpt>
      <trkpt lat="44.10964" lon="5.39182">
        <ele>812.9</ele>
        <time>2026-06-16T13:48:19.789Z</time>
        <extensions>
          <visugpx:TrkExtension xmlns:visugpx="https://www.visugpx.com/editgpx/">
            <visugpx:node>18</visugpx:node>
            </visugpx:TrkExtension>
        </extensions>
      </trkpt>
      <trkpt lat="44.10983" lon="5.39181">
        <ele>814</ele>
        <time>2026-06-16T13:48:26.659Z</time>
      </trkpt>
      <trkpt lat="44.10994" lon="5.39177">
        <ele>815.2</ele>
        <time>2026-06-16T13:48:31.270Z</time>
      </trkpt>
      <trkpt lat="44.11014" lon="5.39174">
        <ele>816.6</ele>
        <time>2026-06-16T13:48:38.731Z</time>
      </trkpt>
      <trkpt lat="44.11027" lon="5.3917">
        <ele>817.6</ele>
        <time>2026-06-16T13:48:43.733Z</time>
      </trkpt>
      <trkpt lat="44.11044" lon="5.39172">
        <ele>818</ele>
        <time>2026-06-16T13:48:49.487Z</time>
      </trkpt>
      <trkpt lat="44.11049" lon="5.39169">
        <ele>818.5</ele>
        <time>2026-06-16T13:48:51.618Z</time>
      </trkpt>
      <trkpt lat="44.11063" lon="5.39179">
        <ele>817.8</ele>
        <time>2026-06-16T13:48:56.414Z</time>
      </trkpt>
      <trkpt lat="44.11145" lon="5.3923">
        <ele>811.8</ele>
        <time>2026-06-16T13:49:23.163Z</time>
      </trkpt>
      <trkpt lat="44.11168" lon="5.39241">
        <ele>810</ele>
        <time>2026-06-16T13:49:30.361Z</time>
      </trkpt>
      <trkpt lat="44.11195" lon="5.39248">
        <ele>809.4</ele>
        <time>2026-06-16T13:49:38.976Z</time>
      </trkpt>
      <trkpt lat="44.11203" lon="5.39251">
        <ele>808.5</ele>
        <time>2026-06-16T13:49:41.372Z</time>
      </trkpt>
      <trkpt lat="44.1121" lon="5.39259">
        <ele>807.1</ele>
        <time>2026-06-16T13:49:43.964Z</time>
      </trkpt>
      <trkpt lat="44.11213" lon="5.3927">
        <ele>805.9</ele>
        <time>2026-06-16T13:49:46.383Z</time>
      </trkpt>
      <trkpt lat="44.11213" lon="5.3928">
        <ele>805.2</ele>
        <time>2026-06-16T13:49:48.472Z</time>
      </trkpt>
      <trkpt lat="44.11209" lon="5.39293">
        <ele>805.5</ele>
        <time>2026-06-16T13:49:51.936Z</time>
      </trkpt>
      <trkpt lat="44.11182" lon="5.39341">
        <ele>802.2</ele>
        <time>2026-06-16T13:50:04.879Z</time>
      </trkpt>
      <trkpt lat="44.1118" lon="5.3936">
        <ele>801.9</ele>
        <time>2026-06-16T13:50:09.204Z</time>
      </trkpt>
      <trkpt lat="44.11182" lon="5.39368">
        <ele>801.4</ele>
        <time>2026-06-16T13:50:10.992Z</time>
      </trkpt>
      <trkpt lat="44.11189" lon="5.3938">
        <ele>801</ele>
        <time>2026-06-16T13:50:14.411Z</time>
      </trkpt>
      <trkpt lat="44.11234" lon="5.39401">
        <ele>799.2</ele>
        <time>2026-06-16T13:50:28.991Z</time>
      </trkpt>
      <trkpt lat="44.11331" lon="5.39461">
        <ele>793.9</ele>
        <time>2026-06-16T13:51:01.147Z</time>
      </trkpt>
      <trkpt lat="44.11348" lon="5.39473">
        <ele>791.9</ele>
        <time>2026-06-16T13:51:06.669Z</time>
      </trkpt>
      <trkpt lat="44.11364" lon="5.3949">
        <ele>790.8</ele>
        <time>2026-06-16T13:51:12.736Z</time>
      </trkpt>
      <trkpt lat="44.11377" lon="5.39509">
        <ele>789.2</ele>
        <time>2026-06-16T13:51:18.265Z</time>
      </trkpt>
      <trkpt lat="44.11387" lon="5.39527">
        <ele>787.9</ele>
        <time>2026-06-16T13:51:23.079Z</time>
      </trkpt>
      <trkpt lat="44.11435" lon="5.39653">
        <ele>782.8</ele>
        <time>2026-06-16T13:51:54.111Z</time>
      </trkpt>
      <trkpt lat="44.11441" lon="5.39668">
        <ele>781.9</ele>
        <time>2026-06-16T13:51:57.763Z</time>
      </trkpt>
      <trkpt lat="44.11443" lon="5.39679">
        <ele>781.5</ele>
        <time>2026-06-16T13:52:00.233Z</time>
      </trkpt>
      <trkpt lat="44.11442" lon="5.39689">
        <ele>781.1</ele>
        <time>2026-06-16T13:52:02.417Z</time>
      </trkpt>
      <trkpt lat="44.11437" lon="5.39703">
        <ele>780.3</ele>
        <time>2026-06-16T13:52:05.748Z</time>
      </trkpt>
      <trkpt lat="44.11423" lon="5.39714">
        <ele>778.4</ele>
        <time>2026-06-16T13:52:10.377Z</time>
      </trkpt>
      <trkpt lat="44.11398" lon="5.39725">
        <ele>776.8</ele>
        <time>2026-06-16T13:52:18.230Z</time>
      </trkpt>
      <trkpt lat="44.1138" lon="5.3973">
        <ele>776.1</ele>
        <time>2026-06-16T13:52:23.867Z</time>
      </trkpt>
      <trkpt lat="44.11336" lon="5.39727">
        <ele>773.8</ele>
        <time>2026-06-16T13:52:37.181Z</time>
      </trkpt>
      <trkpt lat="44.11325" lon="5.39727">
        <ele>773.1</ele>
        <time>2026-06-16T13:52:40.467Z</time>
      </trkpt>
      <trkpt lat="44.11254" lon="5.39742">
        <ele>768.4</ele>
        <time>2026-06-16T13:53:01.884Z</time>
      </trkpt>
      <trkpt lat="44.11196" lon="5.39744">
        <ele>764.5</ele>
        <time>2026-06-16T13:53:19.159Z</time>
      </trkpt>
      <trkpt lat="44.11176" lon="5.39751">
        <ele>763.3</ele>
        <time>2026-06-16T13:53:25.353Z</time>
      </trkpt>
      <trkpt lat="44.11156" lon="5.39761">
        <ele>762</ele>
        <time>2026-06-16T13:53:31.716Z</time>
      </trkpt>
      <trkpt lat="44.11147" lon="5.39768">
        <ele>761.5</ele>
        <time>2026-06-16T13:53:34.844Z</time>
      </trkpt>
      <trkpt lat="44.11084" lon="5.39825">
        <ele>756.3</ele>
        <time>2026-06-16T13:53:57.172Z</time>
      </trkpt>
      <trkpt lat="44.11004" lon="5.3988">
        <ele>750.5</ele>
        <time>2026-06-16T13:54:23.791Z</time>
      </trkpt>
      <trkpt lat="44.10933" lon="5.39926">
        <ele>745.6</ele>
        <time>2026-06-16T13:54:47.208Z</time>
      </trkpt>
      <trkpt lat="44.10918" lon="5.39939">
        <ele>744.3</ele>
        <time>2026-06-16T13:54:52.439Z</time>
      </trkpt>
      <trkpt lat="44.10897" lon="5.39962">
        <ele>742.7</ele>
        <time>2026-06-16T13:55:00.450Z</time>
      </trkpt>
      <trkpt lat="44.10824" lon="5.40068">
        <ele>737</ele>
        <time>2026-06-16T13:55:32.261Z</time>
      </trkpt>
      <trkpt lat="44.1081" lon="5.4008">
        <ele>736.2</ele>
        <time>2026-06-16T13:55:37.248Z</time>
      </trkpt>
      <trkpt lat="44.10801" lon="5.40081">
        <ele>735.7</ele>
        <time>2026-06-16T13:55:39.968Z</time>
      </trkpt>
      <trkpt lat="44.10792" lon="5.40079">
        <ele>735.1</ele>
        <time>2026-06-16T13:55:42.685Z</time>
      </trkpt>
      <trkpt lat="44.10769" lon="5.40066">
        <ele>734.1</ele>
        <time>2026-06-16T13:55:50.289Z</time>
      </trkpt>
      <trkpt lat="44.10749" lon="5.40058">
        <ele>732.9</ele>
        <time>2026-06-16T13:55:56.542Z</time>
      </trkpt>
      <trkpt lat="44.10705" lon="5.40044">
        <ele>730.2</ele>
        <time>2026-06-16T13:56:10.076Z</time>
      </trkpt>
      <trkpt lat="44.10686" lon="5.40032">
        <ele>728.7</ele>
        <time>2026-06-16T13:56:16.262Z</time>
      </trkpt>
      <trkpt lat="44.10657" lon="5.40006">
        <ele>725.8</ele>
        <time>2026-06-16T13:56:26.388Z</time>
      </trkpt>
      <trkpt lat="44.10615" lon="5.39978">
        <ele>723.1</ele>
        <time>2026-06-16T13:56:40.377Z</time>
      </trkpt>
      <trkpt lat="44.10604" lon="5.39971">
        <ele>722.2</ele>
        <time>2026-06-16T13:56:43.955Z</time>
      </trkpt>
      <trkpt lat="44.10525" lon="5.39922">
        <ele>719.5</ele>
        <time>2026-06-16T13:57:10.747Z</time>
      </trkpt>
      <trkpt lat="44.10504" lon="5.39914">
        <ele>719.1</ele>
        <time>2026-06-16T13:57:17.609Z</time>
      </trkpt>
      <trkpt lat="44.10494" lon="5.39913">
        <ele>719</ele>
        <time>2026-06-16T13:57:20.808Z</time>
      </trkpt>
      <trkpt lat="44.10469" lon="5.39917">
        <ele>719.1</ele>
        <time>2026-06-16T13:57:29.015Z</time>
      </trkpt>
      <trkpt lat="44.10455" lon="5.39923">
        <ele>719.2</ele>
        <time>2026-06-16T13:57:33.814Z</time>
      </trkpt>
      <trkpt lat="44.10435" lon="5.39937">
        <ele>719.1</ele>
        <time>2026-06-16T13:57:41.017Z</time>
      </trkpt>
      <trkpt lat="44.10419" lon="5.39957">
        <ele>719</ele>
        <time>2026-06-16T13:57:47.933Z</time>
      </trkpt>
      <trkpt lat="44.10404" lon="5.39979">
        <ele>718.2</ele>
        <time>2026-06-16T13:57:54.635Z</time>
      </trkpt>
      <trkpt lat="44.10399" lon="5.39988">
        <ele>718.1</ele>
        <time>2026-06-16T13:57:57.234Z</time>
      </trkpt>
      <trkpt lat="44.10376" lon="5.40019">
        <ele>717.8</ele>
        <time>2026-06-16T13:58:07.456Z</time>
      </trkpt>
      <trkpt lat="44.10357" lon="5.40038">
        <ele>717.3</ele>
        <time>2026-06-16T13:58:14.798Z</time>
      </trkpt>
      <trkpt lat="44.10338" lon="5.40053">
        <ele>716.9</ele>
        <time>2026-06-16T13:58:21.683Z</time>
      </trkpt>
      <trkpt lat="44.10176" lon="5.40143">
        <ele>714.4</ele>
        <time>2026-06-16T13:59:16.979Z</time>
      </trkpt>
      <trkpt lat="44.1011" lon="5.4018">
        <ele>713.5</ele>
        <time>2026-06-16T13:59:39.591Z</time>
      </trkpt>
      <trkpt lat="44.10071" lon="5.40204">
        <ele>712.9</ele>
        <time>2026-06-16T13:59:53.114Z</time>
      </trkpt>
      <trkpt lat="44.10045" lon="5.4022">
        <ele>712.5</ele>
        <time>2026-06-16T14:00:02.130Z</time>
      </trkpt>
      <trkpt lat="44.1002" lon="5.40231">
        <ele>712.6</ele>
        <time>2026-06-16T14:00:10.678Z</time>
      </trkpt>
      <trkpt lat="44.10005" lon="5.40238">
        <ele>712.2</ele>
        <time>2026-06-16T14:00:15.617Z</time>
      </trkpt>
      <trkpt lat="44.09956" lon="5.40253">
        <ele>712.3</ele>
        <time>2026-06-16T14:00:31.926Z</time>
      </trkpt>
      <trkpt lat="44.09944" lon="5.40258">
        <ele>712.2</ele>
        <time>2026-06-16T14:00:35.934Z</time>
      </trkpt>
      <trkpt lat="44.09936" lon="5.40264">
        <ele>712.1</ele>
        <time>2026-06-16T14:00:38.829Z</time>
      </trkpt>
      <trkpt lat="44.09927" lon="5.40274">
        <ele>711.7</ele>
        <time>2026-06-16T14:00:42.380Z</time>
      </trkpt>
      <trkpt lat="44.09919" lon="5.40287">
        <ele>711.2</ele>
        <time>2026-06-16T14:00:46.145Z</time>
      </trkpt>
      <trkpt lat="44.09896" lon="5.40333">
        <ele>709.5</ele>
        <time>2026-06-16T14:00:58.448Z</time>
      </trkpt>
      <trkpt lat="44.0988" lon="5.40357">
        <ele>708.9</ele>
        <time>2026-06-16T14:01:05.788Z</time>
      </trkpt>
      <trkpt lat="44.09744" lon="5.40544">
        <ele>694.4</ele>
        <time>2026-06-16T14:02:02.268Z</time>
      </trkpt>
      <trkpt lat="44.09729" lon="5.40567">
        <ele>693.5</ele>
        <time>2026-06-16T14:02:09.102Z</time>
      </trkpt>
      <trkpt lat="44.09721" lon="5.40587">
        <ele>693.9</ele>
        <time>2026-06-16T14:02:14.657Z</time>
      </trkpt>
      <trkpt lat="44.09719" lon="5.40599">
        <ele>693.8</ele>
        <time>2026-06-16T14:02:17.474Z</time>
      </trkpt>
      <trkpt lat="44.0972" lon="5.40621">
        <ele>694</ele>
        <time>2026-06-16T14:02:22.712Z</time>
      </trkpt>
      <trkpt lat="44.09726" lon="5.40641">
        <ele>694.1</ele>
        <time>2026-06-16T14:02:27.809Z</time>
      </trkpt>
      <trkpt lat="44.09734" lon="5.40653">
        <ele>695.2</ele>
        <time>2026-06-16T14:02:32.431Z</time>
      </trkpt>
      <trkpt lat="44.09855" lon="5.40772">
        <ele>702.6</ele>
        <time>2026-06-16T14:03:25.060Z</time>
      </trkpt>
      <trkpt lat="44.09939" lon="5.40872">
        <ele>710.1</ele>
        <time>2026-06-16T14:04:05.890Z</time>
      </trkpt>
      <trkpt lat="44.09961" lon="5.40892">
        <ele>711.7</ele>
        <time>2026-06-16T14:04:15.447Z</time>
      </trkpt>
      <trkpt lat="44.09965" lon="5.40899">
        <ele>712.5</ele>
        <time>2026-06-16T14:04:18.193Z</time>
      </trkpt>
      <trkpt lat="44.09967" lon="5.40911">
        <ele>714.4</ele>
        <time>2026-06-16T14:04:23.335Z</time>
      </trkpt>
      <trkpt lat="44.09964" lon="5.40916">
        <ele>715.5</ele>
        <time>2026-06-16T14:04:26.289Z</time>
      </trkpt>
      <trkpt lat="44.0996" lon="5.4092">
        <ele>716.6</ele>
        <time>2026-06-16T14:04:29.251Z</time>
      </trkpt>
      <trkpt lat="44.09949" lon="5.40919">
        <ele>717.2</ele>
        <time>2026-06-16T14:04:33.205Z</time>
      </trkpt>
      <trkpt lat="44.09946" lon="5.40917">
        <ele>717</ele>
        <time>2026-06-16T14:04:34.202Z</time>
        <extensions>
          <visugpx:TrkExtension xmlns:visugpx="https://www.visugpx.com/editgpx/">
            <visugpx:node>19</visugpx:node>
            </visugpx:TrkExtension>
        </extensions>
      </trkpt>
      <trkpt lat="44.09817" lon="5.40868">
        <ele>725</ele>
        <time>2026-06-16T14:05:22.724Z</time>
      </trkpt>
      <trkpt lat="44.09748" lon="5.40839">
        <ele>730.3</ele>
        <time>2026-06-16T14:05:49.703Z</time>
      </trkpt>
      <trkpt lat="44.09681" lon="5.40814">
        <ele>734.6</ele>
        <time>2026-06-16T14:06:14.994Z</time>
      </trkpt>
      <trkpt lat="44.09661" lon="5.40809">
        <ele>736.2</ele>
        <time>2026-06-16T14:06:22.694Z</time>
      </trkpt>
      <trkpt lat="44.09645" lon="5.40806">
        <ele>737.3</ele>
        <time>2026-06-16T14:06:28.663Z</time>
      </trkpt>
      <trkpt lat="44.09629" lon="5.40806">
        <ele>738.5</ele>
        <time>2026-06-16T14:06:34.672Z</time>
      </trkpt>
      <trkpt lat="44.09551" lon="5.4081">
        <ele>745.3</ele>
        <time>2026-06-16T14:07:04.860Z</time>
      </trkpt>
      <trkpt lat="44.09368" lon="5.40817">
        <ele>758.2</ele>
        <time>2026-06-16T14:08:12.900Z</time>
      </trkpt>
      <trkpt lat="44.09357" lon="5.40818">
        <ele>758.8</ele>
        <time>2026-06-16T14:08:16.854Z</time>
      </trkpt>
      <trkpt lat="44.09333" lon="5.40821">
        <ele>759.8</ele>
        <time>2026-06-16T14:08:25.268Z</time>
      </trkpt>
      <trkpt lat="44.09246" lon="5.40829">
        <ele>762</ele>
        <time>2026-06-16T14:08:54.772Z</time>
      </trkpt>
      <trkpt lat="44.09233" lon="5.4083">
        <ele>762.4</ele>
        <time>2026-06-16T14:08:59.224Z</time>
      </trkpt>
      <trkpt lat="44.09223" lon="5.40833">
        <ele>762.9</ele>
        <time>2026-06-16T14:09:02.850Z</time>
      </trkpt>
      <trkpt lat="44.09213" lon="5.40817">
        <ele>761.8</ele>
        <time>2026-06-16T14:09:07.365Z</time>
      </trkpt>
      <trkpt lat="44.09209" lon="5.40809">
        <ele>761.2</ele>
        <time>2026-06-16T14:09:09.418Z</time>
      </trkpt>
      <trkpt lat="44.09207" lon="5.40809">
        <ele>761.2</ele>
        <time>2026-06-16T14:09:10.066Z</time>
        <extensions>
          <visugpx:TrkExtension xmlns:visugpx="https://www.visugpx.com/editgpx/">
            <visugpx:node>20</visugpx:node>
            </visugpx:TrkExtension>
        </extensions>
      </trkpt>
    </trkseg>
  </trk>
</gpx>